[[{"header":{"parameterUnit":"m.s-1","parameterCategory":1,"la1":30.6,"la2":29.2853,"lo1":-89.7004,"lo2":-87.6739,"dy":0.0162,"dx":0.0183,"nx":112,"ny":82,"refTime":"2024-03-31T06:00:00:Z","depth":0,"parameterNumber":2,"parameterNumberName":"U-component_of_WINDS"},"data":[0.0,0.0,0.0,0.0,0.0,0.0,0.0,0.0,0.0,0.0,0.0,0.0,0.0,0.0,0.0,0.0,0.0,0.0,0.0,0.0,0.0,0.0,0.0,0.0,0.0,0.0,0.0,0.0,0.0,0.0,0.0,0.0,0.0,0.0,0.0,0.0,0.0,0.0,0.0,0.0,0.0,0.0,0.0,0.0,0.0,0.0,0.0,0.0,0.0,0.0,0.0,0.0,0.0,0.0,0.0,0.0,0.0,0.0,0.0,0.0,0.0,0.0,0.0,0.0,0.0,0.0,0.0,0.0,0.0,0.0,0.0,0.0,0.0,0.0,0.0,0.0,0.0,0.0,0.0,0.0,0.0,0.0,0.0,0.0,0.0,0.0,0.0,0.0,0.0,0.0,0.0,3.9078,4.2813,4.5015,4.5115,4.3313,4.1247,3.8952,0.0,0.0,0.0,0.0,0.0,0.0,0.0,0.0,0.0,0.0,0.0,0.0,0.0,0.0,0.0,0.0,0.0,0.0,0.0,0.0,0.0,0.0,0.0,0.0,0.0,0.0,0.0,0.0,0.0,0.0,0.0,0.0,0.0,0.0,0.0,0.0,0.0,0.0,0.0,0.0,0.0,0.0,0.0,0.0,0.0,0.0,0.0,0.0,0.0,0.0,0.0,0.0,0.0,0.0,0.0,0.0,0.0,0.0,0.0,0.0,0.0,0.0,0.0,0.0,0.0,0.0,0.0,0.0,0.0,0.0,0.0,0.0,0.0,0.0,0.0,0.0,0.0,0.0,0.0,0.0,0.0,0.0,0.0,0.0,0.0,0.0,0.0,0.0,0.0,0.0,0.0,0.0,0.0,0.0,0.0,0.0,0.0,0.0,0.0,0.0,0.0,0.0,0.0,0.0,3.7741,4.3344,4.511,4.6173,4.6844,4.4025,4.1742,4.0688,0.0,0.0,0.0,0.0,0.0,0.0,0.0,0.0,0.0,0.0,0.0,0.0,0.0,0.0,0.0,0.0,0.0,0.0,0.0,0.0,0.0,0.0,0.0,0.0,0.0,0.0,0.0,0.0,0.0,0.0,0.0,0.0,0.0,0.0,0.0,0.0,0.0,0.0,0.0,0.0,0.0,0.0,0.0,0.0,0.0,0.0,0.0,0.0,0.0,0.0,0.0,0.0,0.0,0.0,0.0,0.0,0.0,0.0,0.0,0.0,0.0,0.0,0.0,0.0,0.0,0.0,0.0,0.0,0.0,0.0,0.0,0.0,0.0,0.0,0.0,0.0,0.0,0.0,0.0,0.0,0.0,0.0,0.0,0.0,0.0,0.0,0.0,0.0,0.0,0.0,0.0,0.0,0.0,0.0,0.0,0.0,0.0,0.0,0.0,0.0,0.0,0.0,0.0,3.6951,4.0535,4.5121,4.5942,4.6481,4.7353,4.4245,4.1707,4.0415,3.5488,0.0,0.0,0.0,0.0,0.0,0.0,0.0,0.0,0.0,0.0,0.0,0.0,0.0,0.0,0.0,0.0,0.0,0.0,0.0,0.0,0.0,0.0,0.0,0.0,0.0,0.0,0.0,0.0,0.0,0.0,0.0,0.0,0.0,0.0,0.0,0.0,0.0,0.0,0.0,0.0,0.0,0.0,0.0,0.0,0.0,0.0,0.0,0.0,0.0,0.0,0.0,0.0,0.0,0.0,0.0,0.0,0.0,0.0,0.0,0.0,0.0,0.0,0.0,0.0,0.0,0.0,0.0,0.0,0.0,0.0,0.0,0.0,0.0,0.0,0.0,0.0,0.0,0.0,0.0,0.0,0.0,0.0,0.0,0.0,0.0,0.0,0.0,0.0,0.0,0.0,0.0,0.0,0.0,0.0,0.0,0.0,0.0,0.0,0.0,0.0,0.0,0.0,3.9531,4.2498,4.6158,4.6335,4.6665,4.7702,4.4436,4.1611,3.9908,3.4964,0.0,0.0,0.0,0.0,0.0,0.0,0.0,0.0,0.0,0.0,0.0,0.0,0.0,0.0,0.0,0.0,0.0,0.0,0.0,0.0,0.0,0.0,0.0,0.0,0.0,0.0,0.0,0.0,0.0,0.0,0.0,0.0,0.0,0.0,0.0,0.0,0.0,0.0,0.0,0.0,0.0,0.0,0.0,0.0,0.0,0.0,0.0,0.0,0.0,0.0,0.0,0.0,0.0,0.0,0.0,0.0,0.0,0.0,0.0,0.0,0.0,0.0,0.0,0.0,0.0,0.0,0.0,0.0,0.0,0.0,0.0,0.0,0.0,0.0,0.0,0.0,0.0,0.0,0.0,0.0,0.0,0.0,0.0,0.0,0.0,0.0,0.0,0.0,0.0,0.0,0.0,0.0,0.0,0.0,0.0,0.0,0.0,0.0,0.0,0.0,0.0,0.0,3.9528,4.2734,4.7031,4.6793,4.6944,4.8582,4.4813,4.1661,3.9892,3.4944,0.0,0.0,0.0,0.0,0.0,0.0,0.0,0.0,0.0,0.0,0.0,0.0,0.0,0.0,0.0,0.0,0.0,0.0,0.0,0.0,0.0,0.0,0.0,0.0,0.0,0.0,0.0,0.0,0.0,0.0,0.0,0.0,0.0,0.0,0.0,0.0,0.0,0.0,0.0,0.0,0.0,0.0,0.0,0.0,0.0,0.0,0.0,0.0,0.0,0.0,0.0,0.0,0.0,0.0,0.0,0.0,0.0,0.0,0.0,0.0,0.0,0.0,0.0,0.0,0.0,0.0,0.0,0.0,0.0,0.0,0.0,0.0,0.0,0.0,0.0,0.0,0.0,0.0,0.0,0.0,0.0,0.0,0.0,0.0,0.0,0.0,0.0,0.0,0.0,0.0,0.0,0.0,0.0,0.0,0.0,0.0,0.0,0.0,0.0,0.0,0.0,0.0,4.0804,4.4174,0.0,4.7617,4.7577,4.8749,4.4371,4.0845,3.9142,0.0,0.0,0.0,0.0,0.0,0.0,0.0,0.0,0.0,0.0,0.0,0.0,0.0,0.0,0.0,0.0,0.0,0.0,0.0,0.0,0.0,0.0,0.0,0.0,0.0,0.0,0.0,0.0,0.0,0.0,0.0,0.0,0.0,0.0,0.0,0.0,0.0,0.0,0.0,0.0,0.0,0.0,0.0,0.0,0.0,0.0,0.0,0.0,0.0,0.0,0.0,0.0,0.0,0.0,0.0,0.0,0.0,0.0,0.0,0.0,0.0,0.0,0.0,0.0,0.0,0.0,0.0,0.0,0.0,0.0,0.0,0.0,0.0,0.0,0.0,0.0,0.0,0.0,0.0,0.0,0.0,0.0,0.0,0.0,0.0,0.0,0.0,0.0,0.0,0.0,0.0,0.0,0.0,0.0,0.0,0.0,0.0,0.0,0.0,0.0,0.0,0.0,3.8024,4.1576,4.5024,0.0,4.8125,4.7969,4.8826,4.4374,4.0664,3.8703,0.0,0.0,0.0,0.0,0.0,0.0,0.0,0.0,0.0,0.0,0.0,0.0,0.0,0.0,0.0,0.0,0.0,0.0,0.0,0.0,0.0,0.0,0.0,0.0,0.0,0.0,0.0,0.0,0.0,0.0,0.0,0.0,0.0,0.0,0.0,0.0,0.0,0.0,0.0,0.0,0.0,0.0,0.0,0.0,0.0,0.0,0.0,0.0,0.0,0.0,0.0,0.0,0.0,0.0,0.0,0.0,0.0,0.0,0.0,0.0,0.0,0.0,0.0,0.0,0.0,0.0,0.0,0.0,0.0,0.0,0.0,0.0,0.0,0.0,0.0,0.0,0.0,0.0,0.0,0.0,0.0,0.0,0.0,0.0,0.0,0.0,0.0,0.0,0.0,0.0,0.0,0.0,0.0,0.0,0.0,0.0,0.0,0.0,0.0,0.0,0.0,0.0,3.8021,4.1618,4.506,4.8547,4.8124,4.7967,4.8844,4.4909,4.1323,0.0,0.0,0.0,0.0,0.0,0.0,0.0,0.0,0.0,0.0,0.0,0.0,0.0,0.0,0.0,0.0,0.0,0.0,0.0,0.0,0.0,0.0,0.0,0.0,0.0,0.0,0.0,0.0,0.0,0.0,0.0,0.0,0.0,0.0,0.0,0.0,0.0,0.0,0.0,0.0,0.0,0.0,0.0,0.0,0.0,0.0,0.0,0.0,0.0,0.0,0.0,0.0,0.0,0.0,0.0,0.0,0.0,0.0,0.0,0.0,0.0,0.0,0.0,0.0,0.0,0.0,0.0,0.0,0.0,0.0,0.0,0.0,0.0,0.0,0.0,0.0,0.0,0.0,0.0,0.0,0.0,0.0,0.0,0.0,0.0,0.0,0.0,0.0,0.0,0.0,0.0,0.0,0.0,0.0,0.0,0.0,0.0,0.0,0.0,0.0,0.0,0.0,0.0,3.8102,4.2669,4.6387,4.8664,4.9218,4.9295,4.8922,4.5486,4.1975,3.8812,0.0,0.0,0.0,0.0,0.0,0.0,0.0,0.0,0.0,0.0,0.0,0.0,0.0,0.0,0.0,0.0,0.0,0.0,0.0,0.0,0.0,0.0,0.0,0.0,0.0,0.0,0.0,0.0,0.0,0.0,0.0,0.0,0.0,0.0,0.0,0.0,0.0,0.0,0.0,0.0,0.0,0.0,0.0,0.0,0.0,0.0,0.0,0.0,0.0,0.0,0.0,0.0,0.0,0.0,0.0,0.0,0.0,0.0,0.0,0.0,0.0,0.0,0.0,0.0,0.0,0.0,0.0,0.0,0.0,0.0,0.0,0.0,0.0,0.0,0.0,0.0,0.0,0.0,0.0,0.0,0.0,0.0,0.0,0.0,0.0,0.0,0.0,0.0,0.0,0.0,0.0,0.0,0.0,0.0,0.0,0.0,0.0,0.0,0.0,0.0,0.0,0.0,3.9078,4.3528,4.7087,4.9165,4.9839,4.9838,4.8958,4.603,4.275,3.9312,0.0,0.0,0.0,0.0,0.0,0.0,0.0,0.0,0.0,0.0,0.0,0.0,0.0,0.0,0.0,0.0,0.0,0.0,0.0,0.0,0.0,0.0,0.0,0.0,0.0,0.0,0.0,0.0,0.0,0.0,0.0,0.0,0.0,0.0,0.0,0.0,0.0,0.0,0.0,0.0,0.0,0.0,0.0,0.0,0.0,0.0,0.0,0.0,0.0,0.0,0.0,0.0,0.0,0.0,0.0,0.0,0.0,0.0,0.0,0.0,0.0,0.0,0.0,0.0,0.0,0.0,0.0,0.0,0.0,0.0,0.0,0.0,0.0,0.0,0.0,0.0,0.0,0.0,0.0,0.0,0.0,0.0,0.0,0.0,0.0,0.0,0.0,0.0,0.0,0.0,0.0,0.0,0.0,0.0,0.0,0.0,0.0,0.0,0.0,0.0,0.0,0.0,4.0444,4.4153,4.7276,4.9813,5.0178,4.9907,4.9075,4.669,4.3762,4.0249,0.0,0.0,0.0,0.0,0.0,0.0,0.0,0.0,0.0,0.0,0.0,0.0,0.0,0.0,0.0,0.0,0.0,0.0,0.0,0.0,0.0,0.0,0.0,0.0,0.0,0.0,0.0,0.0,0.0,0.0,0.0,0.0,0.0,0.0,0.0,0.0,0.0,0.0,0.0,0.0,0.0,0.0,0.0,0.0,0.0,0.0,0.0,0.0,0.0,0.0,0.0,0.0,0.0,0.0,0.0,0.0,0.0,0.0,0.0,0.0,3.1367,0.0,0.0,0.0,0.0,0.0,0.0,0.0,0.0,0.0,0.0,0.0,0.0,0.0,0.0,0.0,0.0,0.0,0.0,0.0,0.0,0.0,0.0,0.0,0.0,0.0,0.0,0.0,0.0,0.0,0.0,0.0,0.0,0.0,0.0,0.0,0.0,0.0,0.0,0.0,0.0,0.0,4.0522,4.4153,4.7276,4.9813,5.0715,5.0793,4.993,4.8135,4.5558,4.2084,0.0,0.0,0.0,0.0,0.0,0.0,0.0,0.0,0.0,0.0,0.0,0.0,0.0,0.0,0.0,0.0,0.0,0.0,0.0,0.0,0.0,0.0,0.0,0.0,0.0,0.0,0.0,0.0,0.0,0.0,0.0,0.0,0.0,0.0,0.0,0.0,0.0,0.0,0.0,0.0,0.0,0.0,0.0,0.0,0.0,0.0,0.0,0.0,0.0,0.0,0.0,0.0,0.0,0.0,0.0,0.0,0.0,0.0,0.0,0.0,0.0,3.3937,0.0,0.0,0.0,0.0,0.0,0.0,0.0,0.0,0.0,0.0,0.0,0.0,0.0,0.0,0.0,0.0,0.0,0.0,0.0,0.0,0.0,0.0,0.0,0.0,0.0,0.0,0.0,0.0,0.0,0.0,0.0,0.0,0.0,0.0,0.0,0.0,0.0,0.0,0.0,0.0,4.2318,4.5285,4.79,5.0438,5.1141,5.1063,5.0165,4.8915,4.6885,4.384,4.0795,0.0,0.0,0.0,0.0,0.0,0.0,0.0,0.0,0.0,0.0,0.0,0.0,0.0,0.0,0.0,0.0,0.0,0.0,0.0,0.0,0.0,0.0,0.0,0.0,0.0,0.0,0.0,0.0,0.0,0.0,0.0,0.0,0.0,0.0,0.0,0.0,0.0,0.0,0.0,0.0,0.0,0.0,0.0,0.0,0.0,0.0,0.0,0.0,0.0,0.0,0.0,0.0,0.0,0.0,4.3056,4.4582,4.4582,4.466,4.4621,4.0909,3.8879,3.8102,0.0,0.0,0.0,0.0,0.0,0.0,0.0,0.0,0.0,0.0,0.0,0.0,0.0,0.0,0.0,0.0,0.0,0.0,0.0,0.0,0.0,0.0,0.0,0.0,0.0,4.1342,4.0366,0.0,0.0,0.0,0.0,0.0,0.0,0.0,0.0,0.0,0.0,0.0,0.0,4.427,4.6534,4.8564,5.1141,5.1414,5.1102,5.0399,4.954,4.8057,4.5792,4.3216,4.0327,0.0,0.0,0.0,0.0,0.0,0.0,0.0,0.0,0.0,0.0,0.0,0.0,0.0,0.0,0.0,0.0,0.0,0.0,0.0,0.0,0.0,0.0,0.0,0.0,0.0,0.0,0.0,0.0,0.0,0.0,0.0,0.0,3.3158,3.3356,0.0,0.0,0.0,0.0,0.0,0.0,0.0,0.0,0.0,0.0,0.0,0.0,0.0,0.0,4.154,4.318,4.4543,4.5633,4.6374,4.7237,4.8135,4.8135,4.8525,4.9189,4.7861,0.0,4.1615,3.9976,0.0,0.0,0.0,0.0,0.0,0.0,0.0,0.0,0.0,0.0,0.0,0.0,0.0,0.0,0.0,0.0,0.0,0.0,0.0,0.0,0.0,0.0,4.3255,4.427,4.4972,4.5363,0.0,4.0639,3.6774,3.6774,0.0,0.0,0.0,0.0,0.0,0.0,0.0,0.0,4.4426,4.6534,4.8564,5.1141,5.1414,5.1336,5.1258,5.0438,4.9462,4.8369,4.5909,4.3255,4.0522,3.7126,0.0,0.0,0.0,0.0,0.0,0.0,0.0,0.0,0.0,0.0,0.0,0.0,0.0,0.0,0.0,0.0,0.0,0.0,0.0,0.0,0.0,0.0,0.0,0.0,0.0,0.0,0.0,0.0,0.0,3.4237,3.5764,3.6194,3.6648,3.6399,0.0,0.0,0.0,0.0,0.0,0.0,0.0,0.0,0.0,4.285,4.3622,4.4901,4.6726,4.7467,4.856,4.9891,5.0282,5.0906,5.1726,5.1726,5.1921,5.2273,5.1882,5.0399,4.7939,4.4777,4.2942,4.1967,0.0,0.0,0.0,0.0,0.0,4.0952,4.1459,0.0,0.0,0.0,0.0,0.0,0.0,0.0,0.0,0.0,0.0,0.0,0.0,0.0,0.0,4.6924,4.7432,4.7705,4.7705,4.5285,4.2669,0.0,3.8414,3.6306,3.6306,0.0,0.0,0.0,0.0,0.0,4.5987,4.7939,4.9618,5.1219,5.1414,5.1414,5.1414,5.1063,5.0477,4.9579,4.8017,4.5987,4.3411,4.0912,3.7906,0.0,0.0,0.0,0.0,0.0,0.0,0.0,0.0,0.0,0.0,0.0,0.0,0.0,0.0,0.0,0.0,0.0,0.0,0.0,0.0,0.0,0.0,0.0,0.0,0.0,0.0,0.0,0.0,3.6516,3.8002,3.9059,3.9406,3.9122,0.0,0.0,0.0,0.0,0.0,0.0,4.2341,4.3047,4.4607,4.7171,4.7709,4.8837,5.075,5.1219,5.2195,5.3717,5.3912,5.4459,5.5318,5.5318,5.5318,5.5279,5.5083,5.4498,5.3366,4.9306,4.7081,4.6105,4.3918,4.3723,4.4543,4.3255,4.3567,4.4816,4.5675,4.5558,4.5168,4.6027,0.0,4.2396,4.2162,0.0,0.0,0.0,0.0,4.4036,4.5324,0.0,4.8408,4.8993,4.9306,4.9462,4.9462,4.8837,4.7549,0.0,4.2084,3.9897,3.9897,0.0,0.0,0.0,0.0,4.4231,4.751,4.9189,5.0438,5.1297,5.1414,5.1414,5.1414,5.1414,5.1102,5.0477,4.9618,4.8174,4.6066,4.4114,4.1264,3.7399,0.0,0.0,0.0,0.0,0.0,0.0,0.0,0.0,0.0,0.0,0.0,0.0,0.0,0.0,0.0,0.0,0.0,0.0,0.0,0.0,0.0,0.0,0.0,0.0,0.0,0.0,0.0,0.0,0.0,4.0781,4.1719,0.0,0.0,0.0,0.0,4.0976,4.3984,4.5898,4.6015,4.8316,4.9712,4.9887,5.1492,5.2429,5.2585,5.4225,5.5513,5.6411,5.7192,5.8011,5.8831,5.8831,5.8831,5.8792,5.7972,5.7153,5.6138,5.2585,5.0633,4.9735,4.8798,4.8017,4.7393,4.7315,4.7315,4.751,4.833,4.8564,4.8681,4.9579,4.8135,4.587,4.5051,4.4738,0.0,0.0,4.5987,4.7354,4.7432,4.872,4.9969,5.0048,5.0672,5.1258,5.1258,5.0594,4.9462,0.0,4.5246,4.345,4.345,0.0,4.1459,4.3255,4.427,4.5792,4.8408,4.954,5.0438,5.1297,5.1414,5.1414,5.1414,5.1414,5.1375,5.1336,5.0516,4.9618,4.8642,4.6183,4.3606,4.0912,3.7555,0.0,0.0,0.0,0.0,0.0,0.0,0.0,0.0,0.0,0.0,0.0,0.0,0.0,0.0,0.0,0.0,0.0,0.0,0.0,0.0,0.0,0.0,0.0,0.0,0.0,0.0,0.0,0.0,4.4251,4.566,0.0,0.0,4.5859,4.6601,4.6873,4.8037,4.9475,5.1154,5.2124,5.337,5.5005,5.5669,5.6255,5.6801,5.7426,5.7894,5.8207,5.8519,5.8792,5.9104,5.9104,5.9104,5.9065,5.8753,5.848,5.8128,5.6879,5.4888,5.2507,5.1648,5.1492,5.1648,5.1102,5.1258,5.1765,5.2038,5.2156,5.2117,5.1843,5.1141,5.0243,4.9384,4.9111,4.9111,4.9111,4.9969,5.0867,5.0867,5.1726,5.2624,5.2624,5.2858,5.3053,5.3053,5.2819,5.2429,5.1843,4.8759,4.6222,4.6222,4.5246,4.4855,4.6027,4.6924,4.7978,4.9462,5.0399,5.1063,5.1375,5.1414,5.1414,5.1414,5.1414,5.1414,5.1414,5.1102,5.0282,4.8876,4.7939,4.5987,4.2825,4.0483,3.775,0.0,0.0,0.0,0.0,0.0,0.0,0.0,0.0,0.0,0.0,0.0,0.0,0.0,0.0,0.0,0.0,0.0,0.0,0.0,0.0,0.0,0.0,0.0,0.0,0.0,0.0,4.532,4.7325,4.8811,4.9478,4.8931,4.9912,5.0773,5.1352,5.2198,5.344,5.5196,5.5548,5.6645,5.8597,5.8675,5.9104,5.9963,6.0276,6.0432,6.0432,6.0705,6.0861,6.0861,6.0861,6.0861,6.0822,6.0549,6.0237,5.9963,5.9651,5.8011,5.5669,5.5083,5.5044,5.5201,5.4615,5.442,5.4459,5.4459,5.481,5.5083,5.3951,5.3561,5.3405,5.2546,5.2273,5.2273,5.2273,5.2702,5.3132,5.3132,5.3561,5.399,5.399,5.399,5.399,5.399,5.399,5.399,5.399,5.1219,4.8876,4.8876,4.7939,4.7432,4.833,4.8915,4.954,5.0438,5.1023,5.1414,5.1414,5.1414,5.1414,5.1414,5.1414,5.1414,5.1414,5.1102,5.0438,4.9306,4.8681,4.7198,4.4621,4.2006,3.9117,3.5991,0.0,0.0,0.0,0.0,0.0,0.0,0.0,0.0,0.0,0.0,0.0,0.0,0.0,0.0,0.0,0.0,0.0,0.0,0.0,0.0,0.0,0.0,0.0,4.2451,4.482,4.7385,4.9965,5.1019,5.1566,5.1601,5.3166,5.4142,5.4142,5.6489,5.7894,5.7933,5.8753,5.9612,6.0471,6.051,6.0939,6.1759,6.2618,6.3047,6.3047,6.3906,6.4297,6.4297,6.4297,6.4297,6.4258,6.3399,6.2579,6.172,6.0861,6.0002,5.9261,5.9143,5.8597,5.7855,5.7855,5.6801,5.5435,5.5435,5.6489,5.7582,5.5942,5.5435,5.524,5.442,5.4147,5.4108,5.4108,5.4108,5.4068,5.4068,5.4068,5.4068,5.4068,5.4068,5.4068,5.4068,5.4068,5.4068,5.4068,5.2702,5.1492,5.1492,5.0087,4.9267,5.0087,5.0204,0.0,5.1375,5.1492,5.1492,5.1492,5.1453,5.1453,5.1453,5.1414,5.1414,5.1414,5.0594,5.0087,5.0048,4.8486,4.7198,4.6261,4.2084,3.8687,3.6147,0.0,0.0,0.0,0.0,0.0,0.0,0.0,0.0,0.0,0.0,0.0,0.0,0.0,0.0,0.0,0.0,0.0,0.0,0.0,0.0,0.0,0.0,4.5366,4.6846,4.8209,5.0239,5.3483,5.4654,5.5396,5.5981,5.7035,5.7699,5.7699,5.8948,5.9963,6.0588,6.1447,6.2345,6.3204,6.3243,6.3321,6.3594,6.3828,6.3945,6.3945,6.4179,6.4297,6.4297,6.4297,6.4297,6.4297,6.4062,6.3828,6.3555,6.3321,6.3086,6.2618,6.008,5.8948,5.8753,5.8753,5.8441,5.805,5.805,5.8363,5.8675,5.8207,5.805,5.8011,5.7777,5.727,5.6762,5.6762,5.6333,5.5903,5.5903,5.5903,5.5903,5.5903,5.5903,5.5903,5.5903,5.5903,5.5903,5.5903,5.5005,5.4029,5.3405,5.2897,5.2663,5.2897,0.0,0.0,5.3249,5.3288,5.3288,5.3288,5.2702,5.2351,5.2351,5.1765,5.1414,0.0,5.0594,4.9813,4.9189,4.8135,4.6885,4.5402,4.3567,4.1654,0.0,0.0,0.0,0.0,0.0,0.0,0.0,0.0,0.0,0.0,0.0,0.0,0.0,0.0,0.0,0.0,0.0,0.0,0.0,0.0,0.0,0.0,4.6413,4.9302,5.1722,5.2191,5.3288,5.602,5.7113,5.7816,5.8285,5.9456,6.0198,6.0198,6.133,6.2267,6.2774,6.3282,6.3945,6.4804,6.4843,6.4999,6.5351,6.5351,6.5351,6.5351,6.5351,6.5351,6.5351,6.5351,6.5351,0.0,6.4999,6.4843,6.4804,6.4453,6.4297,0.0,0.0,0.0,0.0,0.0,6.0432,6.0627,5.9885,5.9885,6.0119,5.9768,5.9651,5.9573,5.9222,5.8753,5.8324,5.8324,5.8011,5.766,5.766,5.766,5.766,5.766,5.766,5.766,5.766,5.766,5.766,5.766,0.0,0.0,5.5669,5.4693,5.399,5.399,5.399,5.399,0.0,5.399,5.399,5.399,5.3561,5.3093,5.2741,5.2234,0.0,0.0,0.0,4.9696,4.8837,4.8369,0.0,0.0,0.0,4.466,0.0,0.0,0.0,0.0,3.8726,3.9351,0.0,0.0,0.0,0.0,0.0,0.0,0.0,0.0,0.0,0.0,0.0,0.0,0.0,0.0,0.0,0.0,5.0165,5.3014,5.6411,5.6372,5.6528,5.7933,5.887,5.9417,5.9534,6.1017,6.1993,6.1993,6.3516,6.4453,6.4453,0.0,0.0,0.0,0.0,6.6092,6.6795,6.6795,6.6795,6.6795,6.6795,6.6795,6.6795,6.6795,6.6795,6.6756,6.6053,6.5741,6.5663,6.4882,6.457,6.457,6.4375,6.4297,6.4101,6.2579,6.2462,0.0,0.0,0.0,0.0,6.1095,6.0783,6.0549,5.9768,5.9417,5.9261,5.9261,5.9183,5.9104,5.9104,5.9104,5.9104,5.9104,5.9104,5.9104,5.9104,5.9104,5.9104,5.9104,5.848,5.7933,5.7933,5.5903,5.4303,5.4303,5.4303,0.0,5.4303,5.4303,5.4303,5.4303,0.0,0.0,5.3053,5.2897,5.2468,5.1609,5.0633,4.9696,4.8837,4.8798,4.8447,4.7744,4.7822,4.751,4.6729,4.6924,4.7002,4.6963,4.4348,4.3957,0.0,0.0,0.0,0.0,0.0,0.0,0.0,0.0,0.0,0.0,0.0,0.0,0.0,0.0,0.0,5.0204,5.2858,5.5513,5.8246,5.969,6.0315,5.9924,6.0666,6.1486,6.2189,6.3204,6.3789,6.3789,6.4765,6.5351,6.5351,6.5975,0.0,6.6561,6.6561,6.6639,6.6795,6.6795,6.6795,6.6795,0.0,0.0,6.6795,6.6795,6.6795,6.6795,6.6639,6.6561,6.6561,6.6405,6.6327,6.617,6.4843,6.4297,6.4258,6.3906,6.3906,6.3984,6.3672,6.3672,6.375,6.3594,6.3086,6.2462,6.2306,6.1252,0.0,6.0159,5.9651,5.9104,5.9104,5.9104,5.9104,5.9104,5.9104,5.9104,5.9104,5.9104,5.9104,5.9104,5.8948,5.887,5.887,5.7309,5.6098,5.6098,5.6098,5.6098,5.6098,5.6098,5.6098,5.6098,5.5474,5.4966,5.481,5.4147,5.3366,5.2507,5.0984,4.9696,4.8837,4.8798,4.872,4.8564,4.9267,4.954,4.9384,5.0789,5.1453,5.1414,4.8798,4.7744,0.0,0.0,0.0,0.0,0.0,0.0,0.0,0.0,0.0,0.0,0.0,4.345,4.4777,0.0,5.0867,5.3014,5.5513,5.7933,6.0119,6.1525,6.2189,6.1759,6.2462,6.3164,6.3594,6.4453,6.496,6.496,6.5741,6.6209,6.6209,6.6561,6.6795,6.6795,6.6795,6.6795,6.6795,6.6795,6.6795,6.6795,6.6795,6.6795,6.6795,6.6795,6.6795,6.6795,6.6795,6.6795,6.6795,6.6795,6.6795,6.6717,6.5897,6.5546,6.5507,6.5116,6.496,6.4882,6.4453,6.4297,6.4297,6.4297,6.4023,6.3633,6.3633,6.3047,6.2345,6.2345,6.2032,6.1603,6.1174,6.1056,6.0939,6.051,6.0393,6.0393,6.0393,6.0393,6.0393,6.0393,6.0041,5.9768,5.9768,5.8675,5.7855,5.7855,5.7465,5.7192,5.7192,5.684,5.6606,5.6606,5.6216,5.5786,5.5357,5.4498,5.3795,5.3366,5.2546,5.1843,5.1414,5.1414,5.1414,5.1414,5.1843,5.2038,5.2038,5.2936,5.3366,5.3327,5.2897,5.2234,0.0,0.0,0.0,0.0,0.0,0.0,0.0,0.0,4.306,4.3528,4.5441,4.7393,4.8603,5.1375,5.4068,5.5981,5.8168,6.0198,6.1954,6.2969,6.3516,6.3516,6.414,6.4531,6.4531,6.5312,6.5819,6.5819,6.6444,6.6795,6.6795,6.6795,6.6795,6.6795,6.6795,6.6795,6.6795,6.6795,6.6795,6.6795,6.6795,6.6795,6.6795,6.6795,6.6795,6.6795,6.6795,6.6795,6.6795,6.6795,6.6795,6.6795,6.6795,6.6795,6.6717,6.6053,6.5819,6.5741,6.5038,6.4804,6.4804,6.4804,6.4687,6.4531,6.4531,6.4414,6.4297,6.4297,6.4297,6.414,6.3438,6.3243,6.3086,6.2384,6.2228,6.2228,6.2228,6.2071,6.1954,6.1954,6.1252,6.0666,6.0666,6.008,5.9495,5.9143,5.8519,5.805,5.805,5.7504,5.7074,5.7074,5.7074,5.6801,5.6098,5.5083,5.4498,5.4498,5.4186,5.399,5.399,5.399,5.399,5.399,5.4186,5.4342,5.4498,5.4654,5.4849,5.5005,5.645,5.6177,4.1108,4.06,4.0522,4.0522,4.1264,4.2162,0.0,0.0,4.5363,4.7627,4.8915,5.0399,5.2858,5.4849,5.6957,5.9417,6.0705,6.2032,6.375,6.4765,6.5312,6.5312,6.539,6.5468,6.5468,6.617,6.6678,6.6678,6.6756,6.6795,6.6795,6.6795,6.6795,6.6795,6.6795,6.6795,6.6795,6.6795,6.6795,6.6795,6.6795,6.6795,6.6795,6.6795,6.6795,6.6795,6.6795,6.6795,6.6795,6.6795,6.6795,6.6795,6.6795,6.6795,6.6795,6.6717,6.6678,6.6639,6.6561,6.6522,6.6522,6.6522,6.6053,6.5468,6.5468,6.4921,6.4297,6.4297,6.4297,6.4297,6.4179,6.414,6.414,6.4023,6.4023,6.4023,6.4023,6.3399,6.2852,6.2852,6.2149,6.1564,6.1564,6.1486,6.09,5.9339,5.9026,5.8948,5.8948,5.887,5.8831,5.8831,5.8831,5.8792,5.8675,5.7231,5.6294,5.6294,5.4849,5.399,5.399,5.399,5.399,5.399,5.4771,5.5552,5.6294,5.7035,5.7777,5.8519,5.8714,5.7933,4.2942,4.2982,4.3372,0.0,4.4426,4.5636,4.6495,4.7744,4.9306,5.1414,5.2936,5.4342,5.5903,5.7621,5.9339,0.0,6.1876,6.3086,6.4804,6.5351,6.5585,6.5585,6.6014,6.6288,6.6288,6.66,6.6795,6.6795,6.6795,6.6795,6.6795,6.6795,6.6795,6.6795,6.6795,6.6795,6.6795,6.6795,6.6795,6.6795,6.6795,6.6795,6.6795,6.6795,6.6795,6.6795,6.6795,6.6795,6.6795,6.6795,6.6795,6.6795,6.6795,6.6795,6.6795,6.6795,6.6795,6.6795,6.6795,6.6795,6.6795,6.6795,6.6561,6.6288,6.6288,6.6053,6.5741,6.5741,6.5741,6.5663,6.5194,6.5077,6.4921,6.4414,6.4297,6.4297,6.4297,6.4023,6.375,6.375,6.3477,6.3204,6.3204,6.3204,6.2774,6.1564,6.051,5.9846,5.9846,5.9417,5.9104,5.9104,5.9104,5.9104,5.9104,5.848,5.805,5.805,5.7387,5.6957,5.6957,5.6957,5.6957,5.6957,5.7348,5.7699,5.805,5.8402,5.8753,5.9104,5.9612,5.9768,4.4816,4.5246,0.0,4.63,4.7549,4.8876,4.9696,5.1023,5.2546,5.4068,5.5552,5.6918,5.7972,5.9378,6.0822,6.2189,6.2969,6.3945,6.5702,6.5741,6.5585,6.5585,6.5897,6.6209,6.6444,6.6678,6.6795,6.6795,6.6795,6.6795,6.6795,6.6795,6.6795,6.6795,6.6795,6.6795,6.6795,6.6795,6.6795,6.6795,6.6795,6.6795,6.6795,6.6795,6.6795,6.6795,6.6795,6.6795,6.6795,6.6795,6.6795,6.6795,6.6795,6.6795,6.6795,6.6795,6.6795,6.6795,6.6795,6.6795,6.6795,6.6795,6.6795,6.6795,6.6795,6.6795,6.6795,6.6795,6.6795,6.6678,6.6092,6.5936,6.578,6.5155,6.4999,6.4999,6.4999,6.4804,6.4648,6.4648,6.4453,6.4297,6.4297,6.4297,6.4101,6.3438,6.2267,6.1291,6.0822,6.0198,5.9807,5.9807,5.9807,5.9807,5.9807,5.9612,5.9456,5.9456,5.9222,5.9104,5.9104,5.9104,5.9104,5.9104,5.9104,5.9222,5.9456,5.969,5.9924,6.0198,6.1056,6.1798,4.7042,0.0,4.79,4.954,5.0633,5.1492,5.239,5.3288,5.4186,5.5083,5.5981,5.7113,5.8753,5.9807,6.1252,6.3789,6.4258,6.4843,6.6522,6.6092,6.5585,6.5585,6.4882,6.4726,0.0,6.6327,6.6795,6.6795,6.6795,6.6795,6.6795,6.6795,6.6795,6.6795,6.6795,6.6795,6.6795,6.6795,6.6795,6.6795,6.6795,6.6795,6.6795,6.6795,6.6795,6.6795,6.6795,6.6795,6.6795,6.6795,6.6795,6.6795,6.6795,6.6795,6.6795,6.6795,6.6795,6.6795,6.6795,6.6795,6.6795,6.6795,6.6795,6.6795,6.6795,6.6795,6.6795,6.6795,6.6795,6.6795,6.6756,6.6756,6.6756,6.6717,6.6717,6.6717,6.6717,6.6092,6.5546,6.5546,6.4882,6.4297,6.4297,6.4297,6.4297,6.4258,6.4219,6.3555,6.1876,6.1642,6.1603,6.1603,6.1603,6.1603,6.1603,6.0861,6.0354,6.0354,5.9573,5.9104,5.9104,5.9104,5.9104,5.9104,5.9104,5.9534,6.0354,6.1213,6.2071,6.2891,6.3789,6.4179,4.7276,0.0,5.0243,5.0828,5.2038,5.3366,5.4225,5.4654,5.5279,5.6684,5.7192,5.7738,5.8909,5.9807,6.0861,6.2345,6.3555,6.4687,6.5858,6.6249,6.5975,6.4882,6.4999,0.0,0.0,0.0,0.0,6.6756,6.6795,6.6795,6.6795,6.6795,6.6795,6.6795,6.6795,6.6795,6.6795,6.6795,6.6795,6.6795,6.7381,6.7966,6.8513,6.8513,6.8513,6.8474,6.7927,6.7654,6.7615,6.7029,6.6795,6.6795,6.6795,6.6795,6.6795,6.6795,6.6795,6.6795,6.6795,6.6795,6.6795,6.6795,6.6795,6.6795,6.6795,6.6795,6.6795,6.6795,6.6795,6.6795,6.6795,6.6795,6.6795,6.6795,6.6795,6.6795,6.6795,6.66,6.6405,6.6405,6.617,6.5975,6.5975,6.5975,6.578,6.5234,6.4687,6.3867,6.2696,6.2579,6.2345,6.1759,6.172,6.172,6.172,6.1447,6.1252,6.1252,6.0978,6.0822,6.0822,6.0822,6.0822,6.0822,6.1408,6.1837,6.211,6.3008,6.3594,6.3867,6.414,6.4609,4.8564,5.0399,5.1999,5.2624,5.3639,5.4693,5.5552,5.5747,5.5981,5.6762,5.7153,5.7465,5.7699,5.8675,5.9846,6.1056,6.2696,6.4258,6.5429,6.6053,6.5975,6.4882,6.496,6.5038,0.0,0.0,0.0,6.6756,6.6795,6.6795,6.6795,6.6795,6.6795,6.6795,6.7107,6.7264,6.7264,6.7576,6.7732,6.7732,6.8318,6.8864,6.9411,6.9411,6.9411,6.9372,6.8825,6.8552,6.8513,6.7966,6.7732,6.7732,6.7732,6.7537,6.7264,6.7264,6.7068,6.6795,6.6795,6.6795,6.6795,6.6795,6.6795,6.6795,6.6795,6.6795,6.6795,6.6795,6.6795,6.6795,6.6795,6.6795,6.6795,6.6795,6.6795,6.6795,6.6795,6.6795,6.6795,6.6795,6.6795,6.6795,6.6795,6.6795,6.66,6.6092,6.5546,6.4765,6.3594,6.3477,6.3243,6.2696,6.2618,6.2618,6.2618,6.2618,6.2618,6.2618,6.2618,6.2618,6.2618,6.2618,6.2618,6.2618,6.3164,6.3477,6.3477,6.4336,6.4765,6.4765,6.5077,6.5507,5.0789,5.2156,5.3288,5.4888,5.5357,5.563,5.6372,5.6528,5.6255,5.5357,5.5825,5.6138,0.0,0.0,5.8246,5.9963,6.1798,6.3594,6.5273,6.5624,6.5663,0.0,0.0,0.0,0.0,0.0,0.0,6.6756,0.0,6.6795,6.6795,6.6834,6.6873,6.6873,6.7693,6.8161,6.8161,6.8981,6.9411,6.945,6.945,6.9489,6.9528,6.9528,6.9528,6.9528,6.9489,6.945,6.945,6.9411,6.9411,6.9411,6.9411,6.8903,6.8161,6.8161,6.7654,6.6912,6.6873,6.6834,6.6795,6.6795,6.6795,6.6795,6.6795,6.6795,6.6795,6.6795,6.6795,6.6795,6.6795,6.6795,6.6795,6.6795,6.6795,6.6795,6.6795,6.6795,6.6795,6.6795,6.6795,6.6795,6.6795,6.6795,6.6795,6.6795,6.6795,6.6209,6.457,6.4375,6.4336,6.4297,6.4297,6.4297,6.4297,6.4297,6.4297,6.4297,6.4297,6.4297,6.4297,6.4297,6.4297,6.4297,6.4336,6.4375,6.4375,6.5234,6.5663,6.5663,6.6444,6.6795,5.1843,5.3951,5.5552,5.5357,5.6255,5.6879,5.5864,5.563,5.5201,5.3678,5.3522,5.3639,0.0,0.0,0.0,5.8207,6.1017,0.0,6.4492,6.5702,0.0,6.5663,0.0,6.5351,6.5585,6.5585,0.0,0.0,6.6795,6.6795,6.6795,6.742,6.7771,6.7771,6.8591,6.9059,6.9059,6.9294,6.9723,7.0387,7.0387,7.0699,7.1324,7.1324,7.1324,7.1285,7.066,7.0387,7.0309,6.9684,6.9411,6.9411,6.9411,6.9255,6.9059,6.9059,6.8942,6.863,6.8005,6.7342,6.6795,6.6795,6.6795,6.6795,6.6795,6.6795,6.6795,6.6795,6.6795,6.6795,6.6795,6.6795,6.6795,6.6795,6.6795,6.6795,6.6795,6.6795,6.6795,6.6795,6.6795,6.6795,6.6795,6.6795,6.6795,6.6795,6.6795,6.6444,6.539,6.5273,6.5038,6.4375,6.4297,6.4297,6.4297,6.4297,6.4297,6.4297,6.4297,6.4297,6.4297,6.4297,6.4297,6.4297,6.4921,6.5273,6.5273,6.6092,6.6483,6.6483,6.6717,6.6795,5.3951,5.5747,5.6996,5.6528,5.7113,5.7348,5.5669,5.5005,5.4225,5.2507,5.1843,0.0,5.1063,0.0,0.0,0.0,0.0,0.0,6.4101,6.5741,6.6639,0.0,6.6131,0.0,6.6131,6.6131,6.6327,0.0,6.6795,6.6951,6.7342,6.7849,6.8279,6.8669,6.9528,7.0152,7.0543,7.0543,7.0777,7.1285,7.1285,7.1519,7.1987,7.1987,7.1987,7.1987,0.0,7.1285,7.1245,7.0738,7.0543,7.0543,7.0543,7.0309,6.9957,6.9957,6.9723,6.9333,6.8825,6.8357,6.781,6.7029,6.6795,6.6795,6.6795,6.6795,6.6795,6.6795,6.6795,6.6795,6.6795,6.6795,6.6795,6.6795,6.6795,6.6795,6.6795,6.6795,6.6795,6.6795,6.6795,6.6795,6.6795,6.6795,6.6795,6.6795,6.6795,6.6639,6.617,6.6131,6.5936,6.5468,6.539,6.539,6.539,6.539,6.539,6.539,6.539,6.539,6.539,6.539,6.539,6.539,6.5897,6.6131,6.6131,6.6561,6.6795,6.6795,6.6795,6.6795,5.6333,5.7426,5.8089,5.7855,5.7816,5.7309,5.5396,5.4186,5.2975,5.1102,0.0,4.9228,4.8603,5.0516,5.2819,5.481,0.0,6.1993,6.3867,6.5585,6.6678,6.6795,6.6795,6.6795,6.6795,6.6795,6.6834,6.6951,6.6951,6.7303,6.8044,6.8318,6.8825,6.9723,7.0465,7.1245,7.1987,7.1987,7.1987,7.1987,7.1987,7.1987,7.1987,7.1987,7.1987,7.1987,0.0,0.0,7.1987,7.1987,7.1987,7.1987,7.1987,7.1558,7.0855,7.0855,7.0387,6.9723,6.9606,6.9567,6.9294,6.7654,6.7146,6.7146,6.7146,6.7146,6.7146,6.7146,6.7146,6.7146,6.7146,6.7068,6.6951,6.6951,6.6873,6.6795,6.6795,6.6795,6.6795,6.6795,6.6795,6.6795,6.6795,6.6795,6.6795,6.6795,6.6795,6.6795,6.6795,6.6795,6.6795,6.6795,6.6795,6.6795,6.6795,6.6795,6.6795,6.6795,6.6795,6.6795,6.6795,6.6795,6.6795,6.6795,6.6795,6.6795,6.6795,6.6795,6.6795,6.6795,6.6795,6.6795,5.7348,5.8753,5.9612,5.8168,5.7816,5.6996,5.3873,5.1921,0.0,0.0,4.6495,4.6066,4.6612,4.8252,5.0516,5.3717,0.0,0.0,0.0,0.0,6.6053,0.0,0.0,0.0,0.0,0.0,0.0,0.0,0.0,0.0,6.8083,6.9489,7.066,7.1519,7.1714,7.1831,7.1987,7.1987,7.1987,7.1987,7.1987,7.1987,7.1987,7.1987,7.1987,7.1987,0.0,0.0,7.1987,7.1987,7.1987,7.1987,7.1987,7.1909,7.1753,7.1753,7.1675,7.1441,7.0738,7.0465,7.0309,6.9294,6.8942,6.8942,6.8942,6.8942,6.8942,6.8942,6.8942,6.8942,6.8942,6.8396,6.7888,6.7888,6.7303,6.6795,6.6795,6.6795,6.6795,6.6795,6.6795,6.6795,6.6795,6.6795,6.6795,6.6795,6.6795,6.6795,6.6795,6.6795,6.6795,6.6795,6.6795,6.6795,6.6795,6.6795,6.6795,6.6795,6.6795,6.6795,6.6795,6.6795,6.6795,6.6795,6.6795,6.6795,6.6795,6.6795,6.6795,6.6795,6.6795,6.6795,5.8246,5.9417,6.008,5.8792,5.8128,5.6918,5.3483,0.0,0.0,0.0,4.5246,4.4582,4.5441,4.7354,0.0,0.0,0.0,0.0,0.0,0.0,0.0,0.0,0.0,0.0,0.0,0.0,0.0,0.0,0.0,0.0,6.945,7.0699,7.1558,7.1987,7.1987,7.1987,7.1987,7.1987,7.1987,7.1987,7.1987,7.1987,7.1987,7.1987,7.1987,7.1987,7.1987,0.0,7.1987,7.1987,7.1987,7.1987,7.1987,7.1987,7.1987,7.1987,7.1987,7.1948,7.1519,7.1363,7.1324,7.0894,7.0152,6.9411,6.9411,6.9411,6.9411,6.9411,6.9411,6.9411,6.9411,6.9098,6.8786,6.8786,6.8474,6.8161,6.8161,6.8161,6.8161,6.8161,6.7771,6.7498,6.7498,6.7107,6.6795,6.6795,6.6795,6.6795,6.6795,6.6795,6.6795,6.6795,6.6795,6.6795,6.6795,6.6795,6.6795,6.6795,6.6795,6.6795,6.6795,6.6795,6.6795,6.6795,6.6795,6.6795,6.6795,6.6795,6.6795,6.6795,6.7264,6.7498,5.887,5.9885,6.0432,5.9378,5.8324,5.6645,5.321,5.0282,0.0,0.0,4.4348,4.345,4.4543,0.0,4.8681,0.0,5.5005,5.8441,0.0,0.0,0.0,0.0,0.0,0.0,0.0,0.0,0.0,0.0,0.0,0.0,7.0972,7.1636,7.1987,7.1987,7.1987,7.1987,7.1987,7.1987,7.1987,7.1987,7.1987,7.1987,7.1987,7.1987,7.1987,7.1987,7.1987,0.0,0.0,7.1987,7.1987,7.1987,7.1987,7.1987,7.1987,7.1987,7.1987,7.1987,7.1987,7.1987,7.1987,7.1987,7.105,6.9957,6.9957,6.9957,6.9957,6.9957,6.9957,6.9957,6.9957,6.9801,6.9645,6.945,6.9411,6.9411,6.9411,6.9411,6.9411,6.9411,6.8864,6.8396,6.8396,6.781,6.7303,6.7107,6.7068,6.699,6.6834,6.6795,6.6795,6.6795,6.6795,6.6795,6.6795,6.6795,6.6795,6.6795,6.6795,6.6795,6.6795,6.6795,6.6795,6.6795,6.6795,6.6873,6.7068,6.7068,6.7185,6.7381,6.8044,6.8396,5.887,6.0315,6.1174,5.9534,5.7894,5.5786,5.2312,0.0,4.6027,4.4309,4.2552,4.1849,4.3528,4.466,0.0,0.0,0.0,5.5318,0.0,0.0,0.0,0.0,0.0,0.0,0.0,0.0,0.0,0.0,0.0,0.0,0.0,7.1948,7.1987,7.1987,7.1987,7.1987,7.1987,7.1987,7.1987,7.1987,7.1987,7.1987,7.1987,7.1987,7.1987,7.1987,0.0,0.0,0.0,7.1987,7.1987,7.1987,7.1987,7.1987,7.1987,7.1987,7.1987,7.1987,7.1987,7.1987,7.1987,7.1987,7.187,7.1753,7.1753,7.1753,7.1753,7.1753,7.1753,7.1753,7.1753,7.1167,7.0387,6.9606,6.9411,6.9411,6.9411,6.9411,6.9411,6.9411,6.9333,6.9294,6.9294,6.9215,6.8903,6.8083,6.7966,6.7693,6.6912,6.6795,6.6795,6.6795,6.6795,6.6795,6.6795,6.6795,6.6795,6.6795,6.6795,6.6795,6.6795,6.6795,6.6795,6.6795,6.6795,6.7185,6.7966,6.7966,6.8396,6.9176,6.9255,6.9294,5.7348,5.8831,5.9846,5.8636,5.7074,5.4888,5.1414,0.0,4.5675,4.3372,4.1967,4.1615,4.3372,4.4426,4.5948,4.8837,5.1492,5.3951,5.5981,0.0,0.0,0.0,0.0,0.0,0.0,0.0,0.0,0.0,0.0,0.0,0.0,7.1987,7.1987,7.1987,7.1987,7.1987,7.1987,7.1987,7.1987,7.1987,7.1987,7.1987,7.1987,7.1987,7.1987,7.1987,0.0,0.0,0.0,7.1987,7.1987,7.1987,7.1987,7.1987,7.1987,7.1987,7.1987,7.1987,7.1987,7.1987,7.1987,7.1987,7.1987,7.1987,7.1987,7.1987,7.1987,7.1987,7.1987,7.1987,7.1987,7.1753,7.1402,7.105,7.0972,7.0972,7.0972,7.0972,7.0972,7.0972,7.0543,7.0191,7.0191,6.9762,6.9294,6.8942,6.8864,6.8747,6.8401,6.8362,6.8357,6.8357,6.742,6.6795,6.6795,6.6795,6.6795,6.6795,6.6795,6.6795,6.6795,6.6795,6.7068,6.7576,6.7576,6.8005,6.8864,6.8864,6.9059,6.9411,6.9957,7.0191,5.6216,5.7465,5.8207,5.7582,5.5981,5.3678,0.0,0.0,4.5246,4.2903,4.1693,4.1537,4.3021,4.4036,4.5441,4.8017,5.0633,5.2936,5.4654,5.7621,0.0,0.0,0.0,0.0,0.0,0.0,0.0,0.0,0.0,0.0,0.0,7.1987,7.1987,7.1987,7.1987,7.1987,7.1987,7.1987,7.1987,7.1987,7.1987,7.2143,7.2378,7.2378,7.2378,7.2378,0.0,0.0,0.0,7.1987,7.2143,7.2378,7.2378,7.2534,7.2729,7.2729,7.2729,7.2729,7.2456,7.2378,7.2339,7.2065,7.1987,7.1987,7.1987,7.1987,7.1987,7.1987,7.1987,7.1987,7.1987,7.1987,7.1987,7.1987,7.1987,7.1987,7.1987,7.1987,7.1987,7.1987,7.1519,7.1089,7.1089,7.0582,7.0074,6.9801,6.9762,6.9689,6.9416,6.9416,6.9411,6.9411,6.8318,6.7576,6.7576,6.7576,6.7576,6.7576,6.7576,6.7576,6.7576,6.7576,6.7849,6.8474,6.8474,6.8903,6.9762,6.9762,6.9918,7.0191,7.0816,7.1206,5.5903,5.6606,5.6606,5.6606,5.4654,5.2038,0.0,0.0,4.4504,4.2747,4.1693,4.1381,4.224,4.3138,4.4582,4.7198,4.9735,5.2038,5.3756,5.6216,0.0,0.0,0.0,0.0,0.0,0.0,0.0,0.0,0.0,0.0,0.0,7.1987,7.1987,7.1987,7.1987,7.1987,7.1987,7.1987,7.1987,7.1987,7.1987,7.2456,7.3275,7.3275,7.3275,0.0,0.0,0.0,0.0,7.1987,7.2495,7.3275,7.3275,7.3783,7.4486,7.4486,7.4486,7.4369,7.3549,7.3275,7.3158,7.226,7.1987,7.1987,7.1987,7.1987,7.1987,7.1987,7.1987,7.1987,7.1987,7.1987,7.1987,7.1987,7.1987,7.1987,7.1987,7.1987,7.1987,7.1987,7.1987,7.1987,7.1987,7.1987,7.1675,7.0816,7.0699,7.0387,6.9528,6.9411,6.9411,6.9411,6.9372,6.9372,6.9372,6.9372,6.9372,6.9372,6.9372,6.9372,6.9372,6.9372,6.9372,6.9372,6.9372,6.9801,7.0699,7.0699,7.1128,7.1987,7.1987,7.2456,5.2351,5.3053,5.3171,5.3795,5.2429,5.0243,4.7666,4.6027,4.4348,4.2006,4.1303,4.1381,4.224,4.3099,4.4543,4.7159,4.9228,5.1336,5.3678,0.0,0.0,0.0,0.0,0.0,0.0,0.0,0.0,0.0,0.0,0.0,0.0,7.1987,7.1987,7.1987,7.1987,7.1987,7.1987,7.2573,7.2885,7.2885,7.3432,7.3861,7.4134,7.4134,0.0,0.0,0.0,0.0,0.0,7.3705,7.3861,7.4134,7.4134,7.429,7.4486,7.4486,7.4486,7.4447,7.4212,7.4134,7.4056,7.3783,7.3705,7.3705,7.3705,7.2924,7.1987,7.1987,7.1987,7.1987,7.1987,7.1987,7.2143,7.2768,7.2885,7.3041,7.3588,7.3705,7.3705,7.3705,7.3275,7.2885,7.2885,7.2378,7.1909,7.1636,7.1597,7.148,7.1206,7.1167,7.1167,7.1167,7.1167,7.0699,6.9489,6.9411,6.9411,6.9411,6.9411,6.9411,6.9411,6.9411,6.9684,7.027,7.0309,7.0738,7.1597,7.1597,7.2026,7.2885,7.3432,7.3861,4.8993,4.9735,4.9696,5.0555,4.9462,4.7666,4.5753,0.0,4.345,4.1498,4.1108,4.1264,4.181,4.2903,4.4465,4.6729,4.9072,5.1492,5.4108,0.0,0.0,0.0,0.0,0.0,0.0,0.0,0.0,0.0,0.0,0.0,0.0,0.0,7.1987,7.1987,7.1987,7.1987,7.1987,7.2846,7.3315,7.3315,7.4134,7.4681,7.4993,7.4993,0.0,0.0,0.0,0.0,0.0,7.4486,7.4681,7.4993,7.4993,7.5188,7.5462,7.5462,7.5462,7.5423,7.511,7.4993,7.4954,7.4603,7.4486,7.4486,7.4486,7.3783,7.2924,7.2924,7.2924,7.2924,7.2924,7.2924,7.308,7.3627,7.3744,7.39,7.4408,7.4486,7.4486,7.4486,7.4095,7.3744,7.3744,7.3315,7.2924,7.2924,7.2924,7.2846,7.2534,7.2495,7.2378,7.2026,7.1987,7.1675,7.0933,7.0582,7.0387,7.0387,7.0387,7.0387,7.0387,7.0387,7.0621,7.1167,7.1519,7.1948,7.2495,7.2807,7.3236,7.3783,7.4603,7.4993,0.0,4.6534,4.6261,4.7198,4.6144,4.4699,4.3801,0.0,0.0,4.1264,4.1108,4.1108,4.1108,4.2513,4.427,4.6027,4.9189,5.2312,5.4927,5.766,0.0,0.0,0.0,0.0,0.0,0.0,0.0,0.0,0.0,0.0,0.0,0.0,7.1987,7.1987,7.1987,7.1987,7.1987,7.2846,7.3315,7.3393,7.4212,7.5032,7.5891,7.5891,0.0,0.0,0.0,0.0,0.0,7.4681,7.5149,7.5891,7.5891,7.6399,7.7101,7.7101,7.7101,7.6984,7.6164,7.5891,7.5774,7.4954,7.4681,7.4681,7.4681,7.4603,7.4486,7.4486,7.4486,7.4486,7.4486,7.4486,7.4525,7.4564,7.4603,7.4603,7.4681,7.4681,7.4681,7.4681,7.4642,7.4603,7.4603,7.4525,7.4486,7.4486,7.4486,7.4212,7.3471,7.3393,7.308,7.226,7.2182,7.2495,7.3315,7.2573,7.2104,7.2182,7.2182,7.2182,7.2182,7.2182,7.2182,7.2182,7.2963,7.3393,7.3393,7.4212,7.4603,7.4603,7.5501,7.5891,4.0952,0.0,4.3684,4.5246,4.4816,4.3762,0.0,4.2552,0.0,0.0,0.0,4.1108,4.1108,4.2513,4.427,4.6027,4.9189,5.2312,5.4927,0.0,0.0,0.0,0.0,0.0,0.0,0.0,0.0,0.0,0.0,0.0,0.0,0.0,7.1987,7.1987,7.1987,7.1987,7.1987,7.2846,7.3627,7.4212,7.5071,7.593,7.6789,7.6789,0.0,0.0,0.0,0.0,7.6477,7.6477,7.6594,7.6789,7.6789,7.6906,7.7101,7.7101,7.7101,7.7062,7.6867,7.6789,7.675,7.6555,7.6477,7.6477,7.6477,7.5579,7.4486,7.4486,7.4486,7.4486,7.4486,7.4486,7.4681,7.5345,7.5501,7.5696,7.632,7.6477,7.6477,7.6477,7.5969,7.5501,7.5501,7.4954,7.4486,7.4486,7.4486,7.4447,7.4251,7.4212,7.4134,7.3939,7.39,7.4017,7.4212,7.3471,7.3275,7.3861,7.39,7.39,7.39,7.39,7.39,7.39,7.4095,7.4212,7.4212,7.5071,7.5501,7.5501,7.6399,7.6789,3.8804,4.021,4.1537,4.2864,4.2864,4.2396,4.1927,4.181,0.0,0.0,0.0,4.1693,4.1693,4.345,4.5441,4.7159,5.0321,0.0,0.0,0.0,0.0,0.0,0.0,0.0,0.0,0.0,0.0,0.0,0.0,0.0,0.0,0.0,7.1987,7.1987,7.1987,7.1987,7.1987,7.2846,7.351,7.3978,7.5227,7.6047,7.6516,7.6906,0.0,0.0,0.0,0.0,7.7101,7.7101,7.7101,7.7101,7.7101,7.7101,7.7101,7.7101,7.7101,7.7101,7.7101,7.7101,7.7101,7.7101,7.7101,7.7101,7.7101,7.6438,7.5696,7.5696,7.5696,7.5696,7.5696,7.5696,7.5813,7.6281,7.6399,7.6516,7.6984,7.7101,7.7101,7.7101,7.6711,7.6399,7.6399,7.6008,7.5696,7.5696,7.5696,7.554,7.5149,7.511,7.4954,7.4525,7.4486,7.4642,7.5071,7.4681,7.4447,7.4486,7.4486,7.4486,7.4486,7.4486,7.4681,7.5071,7.511,7.5305,7.5696,7.6164,7.6399,7.6399,7.6867,7.7101,3.8141,3.9195,4.0054,4.1069,4.1381,4.1498,4.1498,0.0,0.0,0.0,0.0,0.0,0.0,4.4816,0.0,0.0,0.0,0.0,0.0,0.0,0.0,0.0,0.0,0.0,0.0,0.0,0.0,0.0,0.0,0.0,0.0,0.0,0.0,7.1987,7.1987,7.1987,7.1987,7.2729,7.3158,7.3315,7.4759,7.5462,7.5618,7.6516,0.0,0.0,0.0,0.0,7.7101,7.7101,7.7101,7.7101,7.7101,7.7101,7.7101,7.7101,7.7101,7.7101,7.7101,7.7101,7.7101,7.7101,7.7101,7.7101,7.7101,7.7101,7.7101,7.7101,7.7101,7.7101,7.7101,7.7101,7.7101,7.7101,7.7101,7.7101,7.7101,7.7101,7.7101,7.7101,7.7101,7.7101,7.7101,7.7101,7.7101,7.7101,7.7101,7.6828,7.6086,7.6008,7.5735,7.4993,7.4915,7.5188,7.593,7.6008,7.5696,7.4954,7.4915,7.4915,7.4915,7.4915,7.5227,7.5969,7.6008,7.636,7.7101,7.7101,7.7179,7.7296,7.7296,7.7375,3.8141,3.9195,4.021,4.181,4.2747,4.3294,4.3294,4.3294,0.0,0.0,0.0,0.0,0.0,0.0,0.0,0.0,0.0,0.0,0.0,0.0,0.0,0.0,0.0,0.0,0.0,0.0,0.0,0.0,0.0,0.0,0.0,0.0,0.0,7.1987,7.1987,7.1987,7.1987,7.2143,7.2573,7.3315,7.3549,7.4056,7.472,7.5618,7.6008,0.0,0.0,7.7101,7.7101,7.7101,7.7101,7.7101,7.7101,7.7101,7.7101,7.7101,7.7101,7.7101,7.7101,7.7101,7.7101,7.7101,7.7101,7.7101,7.7101,7.7101,7.7101,7.7101,7.7101,7.7101,7.7101,7.7101,7.7101,7.7101,7.7101,7.7101,7.7101,7.7101,7.7101,7.7101,7.7101,7.7101,7.7101,7.7101,7.7101,7.7101,7.7101,7.7062,7.6906,7.6906,7.6867,7.6711,7.6711,7.675,7.6906,7.6906,7.6828,7.6711,7.6711,7.6711,7.6711,7.6711,7.675,7.6906,7.6906,7.6984,7.7101,7.7101,7.7492,7.8194,7.8194,7.8585,3.8258,3.9858,4.1498,4.2786,4.3411,4.3801,4.4309,0.0,0.0,0.0,0.0,0.0,0.0,0.0,0.0,0.0,0.0,0.0,0.0,0.0,0.0,0.0,0.0,0.0,0.0,0.0,0.0,0.0,0.0,0.0,0.0,0.0,0.0,0.0,7.1987,7.1987,7.1987,7.1987,7.2182,7.2612,7.308,7.351,7.3861,7.472,7.5345,7.5813,0.0,7.6672,7.7101,7.7101,7.7101,7.7101,7.7089,7.7089,7.7089,7.7075,7.7036,7.7036,7.7036,7.7036,7.7036,7.7082,7.7082,7.7082,7.7095,7.7101,7.7101,7.7101,7.7101,7.7101,7.7101,7.7101,7.7101,7.7101,7.7101,7.7101,7.7101,7.7101,7.7101,7.7101,7.7101,7.7101,7.7101,7.7101,7.7101,7.7101,7.7101,7.7101,7.7101,7.7101,7.7101,7.7101,7.7101,7.7101,7.7101,7.7101,7.7101,7.7101,7.7101,7.7101,7.7101,7.7101,7.7101,7.7101,7.7101,7.7335,7.7804,7.7804,7.8233,7.9092,7.9092,7.9326,3.857,4.0444,4.2357,4.3411,4.4153,4.4855,4.5675,0.0,0.0,0.0,0.0,0.0,0.0,0.0,0.0,0.0,0.0,0.0,0.0,0.0,0.0,0.0,0.0,0.0,0.0,0.0,0.0,0.0,0.0,0.0,0.0,0.0,0.0,0.0,7.1987,7.1987,7.1987,7.1987,7.1987,7.2026,7.269,7.3002,7.3002,7.3822,7.4564,7.5227,7.5618,7.6164,7.6828,7.7023,7.7101,7.7095,7.7121,7.7067,7.7067,7.7012,7.7004,7.7004,7.7004,7.7004,7.7012,7.7067,7.7075,7.7075,7.7095,7.7101,7.7101,7.7101,7.7101,7.7101,7.7101,7.7101,7.7101,7.7101,7.7101,7.7101,7.7101,7.7257,7.7414,7.7414,7.757,7.7726,7.7726,7.7726,7.7726,7.7726,7.7726,7.7726,7.7726,7.7726,7.7726,7.7726,7.7726,7.7726,7.7726,7.7726,7.7726,7.7726,7.7531,7.7492,7.7687,7.7726,7.7726,7.7726,7.7726,7.8038,7.8702,7.8702,7.9131,7.999,7.999,8.0107,3.9273,4.0444,4.1615,4.3294,4.5519,0.0,4.833,4.915,0.0,5.0867,0.0,0.0,0.0,0.0,0.0,0.0,0.0,0.0,0.0,0.0,0.0,0.0,0.0,0.0,0.0,0.0,0.0,0.0,0.0,0.0,0.0,0.0,0.0,0.0,0.0,7.1987,7.1987,7.1987,7.1987,7.1987,7.2065,7.2104,7.2104,7.3002,7.3432,7.3588,7.511,7.5852,7.5969,7.6789,7.7089,7.7114,7.7114,7.7059,7.7004,7.7004,7.7004,7.7004,7.7004,7.7012,7.6981,7.7028,7.7004,7.7023,7.7023,7.7062,7.7101,7.7101,7.7101,7.7101,7.7101,7.7101,7.7101,7.7101,7.7101,7.7101,7.7101,7.7726,7.8305,7.8311,7.8975,7.9522,7.9522,7.9522,7.9522,7.9522,7.9522,7.9522,7.9522,7.9522,7.9522,7.9522,7.9522,7.9522,7.9522,7.9522,7.9522,7.9522,7.8741,7.8663,7.9483,7.9522,7.9522,7.9522,7.9522,7.9522,7.96,7.96,8.0068,8.0927,8.0927,8.1356,3.9624,4.1225,4.3021,4.4192,4.6846,0.0,0.0,5.0711,5.2117,0.0,0.0,0.0,0.0,0.0,0.0,0.0,0.0,0.0,0.0,0.0,0.0,0.0,0.0,0.0,0.0,0.0,0.0,0.0,0.0,0.0,0.0,0.0,0.0,0.0,0.0,7.1987,7.1987,7.1987,7.1987,7.1987,7.1987,7.1987,7.2026,7.2339,7.2807,7.3354,7.4486,7.5305,7.5852,7.6737,7.7121,7.7106,7.7043,7.7014,7.6994,7.6994,7.6994,7.6994,7.6994,7.6994,7.7004,7.7004,7.7014,7.6995,7.7011,7.7028,7.7034,7.7089,7.7492,7.7759,7.7257,7.7101,7.7257,7.7759,7.7921,7.8077,7.8585,7.8975,7.9209,7.9209,7.9483,7.9717,7.9717,7.9717,7.9717,7.9717,7.9717,7.9717,7.9717,7.9717,7.9717,7.9717,7.9717,7.9717,7.9717,7.9717,7.9912,8.0459,7.9678,7.9366,7.9678,7.9717,7.9717,7.9717,7.9717,7.9951,8.0498,8.0498,8.0966,8.1825,8.1825,8.1981,4.0132,4.1732,4.3567,0.0,0.0,0.0,5.1141,5.2897,5.481,0.0,0.0,0.0,0.0,0.0,0.0,0.0,0.0,0.0,0.0,0.0,0.0,0.0,0.0,0.0,0.0,0.0,0.0,0.0,0.0,0.0,0.0,0.0,0.0,0.0,0.0,0.0,7.1987,7.1987,7.1987,7.1987,7.1987,7.1987,7.1987,7.1987,7.2339,7.2924,7.3744,7.4603,7.5456,7.634,7.6833,7.7051,7.7014,7.7022,7.6999,7.6999,7.6999,7.6999,7.6999,7.6999,7.6999,7.6999,7.6999,7.7011,7.7012,7.6985,7.7011,7.7051,7.7706,7.8266,7.7687,7.7726,7.8077,7.8657,7.8813,7.8975,7.9561,7.9912,8.0107,8.0107,8.0341,8.0537,8.0537,8.0537,8.0537,8.0537,8.0537,8.0537,8.0537,8.0537,8.0537,8.0537,8.0537,8.0537,8.0537,8.0537,8.0771,8.1356,8.0849,8.0537,8.0537,8.0537,8.0537,8.0537,8.0537,8.081,8.1396,8.1396,8.1708,8.2293,8.2293,8.2293,4.0873,4.1732,4.2864,0.0,0.0,0.0,5.3444,5.5981,5.8324,0.0,0.0,0.0,0.0,0.0,0.0,0.0,0.0,0.0,0.0,0.0,0.0,0.0,0.0,0.0,0.0,0.0,0.0,0.0,0.0,0.0,0.0,0.0,0.0,0.0,0.0,0.0,7.1987,7.1987,7.1987,7.1987,7.1987,7.1987,7.1987,7.1987,7.1987,7.2065,7.2924,7.3732,7.4577,7.5436,7.6271,7.6975,7.7011,7.6999,7.6999,7.6999,7.6999,7.6999,7.6999,7.6999,7.6999,7.6999,7.6999,7.6999,7.6999,7.6999,7.6999,7.6999,7.7706,7.8422,7.8422,7.9086,7.9717,7.9717,7.9717,7.9711,7.9717,8.042,8.1005,8.1005,8.1708,8.2293,8.2293,8.2293,8.2293,8.2293,8.2293,8.2293,8.2293,8.2293,8.2293,8.2293,8.2293,8.2293,8.2293,8.2293,8.2293,8.2293,8.2293,8.2293,8.2293,8.2293,8.2293,8.2293,8.2293,8.2293,8.2293,8.2293,8.2293,8.2293,8.2293,8.2293,4.1771,4.3099,0.0,4.712,0.0,0.0,0.0,5.7738,0.0,0.0,0.0,0.0,0.0,0.0,0.0,0.0,0.0,0.0,0.0,0.0,0.0,0.0,0.0,0.0,0.0,0.0,0.0,0.0,0.0,0.0,0.0,0.0,0.0,0.0,0.0,0.0,7.1987,7.1987,7.1987,7.1987,7.1987,7.1987,7.1987,7.1987,7.1987,7.2065,7.2873,7.3374,7.3719,7.514,7.5884,7.6153,7.6765,7.6999,7.6999,7.6999,7.6999,7.6999,7.6999,7.6999,7.6999,7.6999,7.6999,7.6999,7.6999,7.6999,7.7116,7.774,7.8545,7.9377,8.0002,8.0836,8.1356,8.0771,8.0615,8.0771,8.1396,8.1747,8.1903,8.1903,8.2137,8.2293,8.2293,8.2293,8.2293,8.2293,8.2293,8.2293,8.2293,8.2293,8.2293,8.2293,8.2293,8.2293,8.2293,8.2293,8.2293,8.2293,8.2293,8.2293,8.2293,8.2293,8.2293,8.2293,8.2293,8.2293,8.2293,8.2293,8.2293,8.2293,8.2293,8.2293,4.2084,4.3684,0.0,4.8174,5.1414,5.5044,5.8987,0.0,0.0,0.0,0.0,0.0,0.0,0.0,0.0,0.0,0.0,0.0,0.0,0.0,0.0,0.0,0.0,0.0,0.0,0.0,0.0,0.0,0.0,0.0,0.0,0.0,0.0,0.0,0.0,0.0,7.1987,7.1987,7.1987,7.1987,7.1987,7.1987,7.1987,7.1987,7.1987,7.2026,7.286,7.3197,7.3306,7.4636,7.5385,7.5752,7.6298,7.6688,7.6999,7.6999,7.6999,7.6999,7.6999,7.6999,7.6999,7.6999,7.6999,7.6999,7.6999,7.6999,7.7194,7.8051,7.8915,7.9812,8.0679,8.1563,8.2131,8.1623,8.1513,8.1669,8.2176,8.2293,8.2293,8.2293,8.2293,8.2293,8.2293,8.2293,8.2293,8.2293,8.2293,8.2293,8.2293,8.2293,8.2293,8.2293,8.2293,8.2293,8.2293,8.2293,8.2293,8.2293,8.2293,8.2293,8.2293,8.2293,8.2293,8.2293,8.2293,8.2293,8.2293,8.2293,8.245,8.2762,8.2762,8.2957,4.2045,0.0,0.0,4.8603,5.1999,0.0,0.0,0.0,0.0,0.0,0.0,0.0,0.0,0.0,0.0,0.0,0.0,0.0,0.0,0.0,0.0,0.0,0.0,0.0,0.0,0.0,0.0,0.0,0.0,0.0,0.0,0.0,0.0,0.0,0.0,0.0,7.1987,7.1987,7.1987,0.0,7.1987,7.1987,7.1987,7.1987,7.1987,7.2021,7.2767,7.3094,7.3144,7.3932,7.4728,7.5468,7.5624,7.6181,7.6882,7.696,7.6999,7.6999,7.6999,7.6999,7.6999,7.6999,7.6999,7.6999,7.6999,7.6999,7.7194,7.8129,7.8971,7.9822,8.0787,8.1624,8.2234,8.2287,8.2293,8.2293,8.2293,8.2293,8.2293,8.2293,8.2293,8.2293,8.2293,8.2293,8.2293,8.2293,8.2293,8.2293,8.2293,8.2293,8.2293,8.2293,8.2293,8.2293,8.2293,8.2293,8.2293,8.2293,8.2293,8.2293,8.2293,8.2293,8.2293,8.2293,8.2293,8.2332,8.2411,8.2411,8.284,8.3621,8.3621,8.405,4.2942,4.5636,0.0,0.0,5.6489,6.0744,0.0,0.0,0.0,0.0,0.0,0.0,0.0,0.0,0.0,0.0,0.0,0.0,0.0,0.0,0.0,0.0,0.0,0.0,0.0,0.0,0.0,0.0,0.0,0.0,0.0,0.0,0.0,0.0,0.0,7.1324,7.1987,7.1987,7.1987,0.0,7.1987,7.1987,7.1987,7.1987,7.1976,7.1924,7.2112,7.2158,7.2178,7.3036,7.3492,7.3804,7.5168,7.5819,7.6064,7.6765,7.6999,7.6999,7.6999,7.6999,7.6999,7.6999,7.6999,7.6999,7.6999,7.6999,7.7311,7.8831,7.9422,7.9968,8.1529,8.2109,8.2287,8.2293,8.2293,8.2293,8.2293,8.2293,8.2293,8.2293,8.2293,8.2293,8.2293,8.2293,8.2293,8.2293,8.2293,8.2293,8.2293,8.2293,8.2293,8.2293,8.2293,8.2293,8.2293,8.2293,8.2293,8.2293,8.2293,8.2293,8.2293,8.2293,8.2293,8.2293,8.2293,8.2606,8.323,8.323,8.3699,8.4519,8.4519,8.4636,4.2396,0.0,0.0,5.3951,0.0,6.2657,0.0,0.0,0.0,0.0,0.0,0.0,0.0,0.0,0.0,0.0,0.0,0.0,0.0,0.0,0.0,0.0,0.0,0.0,0.0,0.0,0.0,0.0,0.0,0.0,0.0,0.0,0.0,0.0,7.0465,7.0933,7.1363,7.1792,7.1987,7.1987,7.1987,7.1987,7.1987,7.1987,7.1943,7.1891,7.1916,7.1876,7.1895,7.2284,7.2724,7.323,7.4544,7.5324,7.5819,7.6688,7.6999,7.6999,7.6999,7.6999,7.6999,7.6999,7.6999,7.6999,7.6999,7.6999,7.735,7.9026,7.9567,7.9998,8.1763,8.2218,8.2241,8.2293,8.2293,8.2293,8.2293,8.2293,8.2293,8.2293,8.2293,8.2293,8.2293,8.2293,8.2293,8.2293,8.2293,8.2293,8.2293,8.2293,8.2293,8.2293,8.2293,8.245,8.284,8.2879,8.3035,8.3465,8.3504,8.3504,8.3504,8.3504,8.3308,8.2879,8.2879,8.3308,8.4128,8.4128,8.4558,8.5416,8.5416,8.5651,4.1459,0.0,4.9111,5.5279,5.9807,0.0,0.0,0.0,0.0,0.0,0.0,0.0,0.0,0.0,0.0,0.0,0.0,0.0,0.0,0.0,0.0,0.0,0.0,0.0,0.0,0.0,0.0,0.0,0.0,0.0,0.0,0.0,6.902,6.9176,6.9879,7.0309,7.0465,7.1324,7.1792,7.1792,7.1948,7.1987,7.1987,7.1987,7.1948,7.1909,7.1916,7.1915,7.1895,7.1817,7.2206,7.2997,7.401,7.4817,7.5585,7.661,7.6999,7.6999,7.6999,7.6999,7.6999,7.6999,7.6999,7.6999,7.6999,7.7116,7.7545,7.9065,7.9673,8.0183,8.1802,8.221,8.2234,8.2287,8.2293,8.2293,8.2293,8.2293,8.2293,8.2293,8.2293,8.2293,8.2293,8.2293,8.2293,8.2293,8.2293,8.2293,8.2293,8.2411,8.2528,8.2528,8.2645,8.2996,8.366,8.3738,8.4011,8.4753,8.4792,8.4792,8.4792,8.4792,8.4519,8.3972,8.3816,8.4167,8.5026,8.5026,8.5456,8.6314,8.6314,8.6705,0.0,0.0,5.3717,0.0,5.9768,6.2306,0.0,0.0,0.0,0.0,0.0,0.0,0.0,0.0,0.0,0.0,0.0,0.0,0.0,0.0,0.0,0.0,0.0,0.0,0.0,0.0,0.0,0.0,0.0,0.0,0.0,6.7146,6.7498,6.8239,6.8396,6.8825,6.9567,7.0426,7.0855,7.0894,7.1636,7.1987,7.1987,7.1987,7.1948,7.1909,7.1903,7.1901,7.1895,7.1817,7.1856,7.2128,7.3776,7.4466,7.4767,7.6415,7.6999,7.6999,7.6999,7.6999,7.6999,7.6999,7.6999,7.6999,7.6999,7.7545,7.8324,7.9259,8.0085,8.0943,8.1958,8.2226,8.2287,8.2293,8.2293,8.2293,8.2293,8.2293,8.2293,8.2293,8.2293,8.2293,8.2293,8.2293,8.2293,8.2293,8.2293,8.2293,8.2293,8.2918,8.3347,8.3347,8.4011,8.4519,8.4636,8.4636,8.4675,8.4792,8.4792,8.4792,8.4792,8.4792,8.5104,8.5729,8.5026,8.5065,8.5924,8.5924,8.6353,8.7212,8.7212,8.729,4.181,4.7744,5.3053,0.0,5.8714,6.2032,0.0,0.0,0.0,0.0,0.0,0.0,0.0,0.0,0.0,0.0,0.0,0.0,0.0,0.0,0.0,0.0,0.0,0.0,0.0,0.0,0.0,0.0,0.0,0.0,6.6795,6.6795,6.699,6.7342,6.7849,6.8279,6.8669,6.9528,7.023,7.0699,7.1597,7.1987,7.1987,7.1987,7.1987,7.1948,7.1909,7.1909,7.1895,7.1856,7.1817,7.1973,7.3726,7.4388,7.4611,7.6376,7.6999,7.6999,7.6999,7.6999,7.6999,7.6999,7.6999,7.6999,7.6999,7.7623,7.848,7.9259,8.0163,8.1099,8.1958,8.2265,8.2293,8.2293,8.2293,8.2293,8.2293,8.2293,8.2293,8.2293,8.2293,8.2293,8.2293,8.2293,8.2293,8.2293,8.2293,8.245,8.2918,8.3269,8.3699,8.4167,8.4558,8.4987,8.5495,8.5534,8.5729,8.6236,8.6275,8.6275,8.6275,8.6275,8.6431,8.6822,8.5963,8.5963,8.6822,8.6822,8.7017,8.7407,8.7407,8.7407,0.0,0.0,5.0633,5.2819,5.6723,6.0471,0.0,0.0,0.0,0.0,0.0,0.0,0.0,0.0,0.0,0.0,0.0,0.0,0.0,0.0,0.0,0.0,0.0,0.0,0.0,0.0,0.0,0.0,0.0,0.0,6.6795,6.6795,6.6795,6.6795,6.742,6.7771,6.7771,6.8635,6.9606,7.0699,7.1363,7.1792,7.1987,7.1987,7.1987,7.1987,7.1948,7.1909,7.1895,7.1895,7.1856,7.1973,7.3726,7.4388,7.4611,7.6376,7.6999,7.6999,7.6999,7.6999,7.6999,7.6999,7.6999,7.6999,7.6999,7.774,7.8714,7.9349,8.0357,8.1373,8.2045,8.2265,8.2293,8.2293,8.2293,8.2293,8.2293,8.2293,8.2293,8.2293,8.2293,8.2293,8.2293,8.2293,8.2371,8.2567,8.2606,8.2918,8.3738,8.4011,8.4401,8.5065,8.5338,8.5729,8.6392,8.6431,8.6705,8.7368,8.7407,8.7407,8.7407,8.7407,8.7407,8.7407,8.6744,8.6744,8.7407,8.7407,8.7407,8.7407,8.7407,8.7407,0.0,4.3216,0.0,5.0711,0.0,0.0,0.0,0.0,0.0,0.0,0.0,0.0,0.0,0.0,0.0,0.0,0.0,0.0,0.0,0.0,0.0,0.0,0.0,0.0,0.0,0.0,0.0,0.0,0.0,0.0,6.6795,6.6795,6.6795,6.6795,6.6834,6.6873,6.6873,6.7732,6.902,7.0699,7.0738,7.1206,7.1987,7.1987,7.1987,7.1987,7.1948,7.1909,7.1895,7.1895,7.1856,7.1973,7.3726,7.4388,7.4611,7.6376,7.6999,7.6999,7.6999,7.6999,7.6999,7.6999,7.6999,7.6999,7.6999,7.8129,7.9454,7.9567,8.0807,8.2162,8.2179,8.2241,8.2293,8.2293,8.2293,8.2293,8.2293,8.2293,8.2293,8.2293,8.2293,8.2293,8.2293,8.2293,8.2567,8.3308,8.3426,8.3738,8.4636,8.5456,8.5963,8.6041,8.6783,8.729,8.7329,8.7329,8.7368,8.7407,8.7407,8.7407,8.7407,8.7407,8.7407,8.7407,8.7368,8.7368,8.7407,8.7407,8.7407,8.7407,8.7407,8.7407,0.0,0.0,0.0,4.8876,5.2117,0.0,0.0,0.0,0.0,0.0,0.0,0.0,0.0,0.0,0.0,0.0,0.0,0.0,0.0,0.0,0.0,0.0,0.0,0.0,0.0,0.0,0.0,0.0,0.0,0.0,6.6795,6.6795,6.6795,6.6795,6.6795,6.6795,6.6795,6.7654,6.8396,6.9059,7.0152,7.0855,7.1167,7.1753,7.1987,7.1987,7.1987,7.1937,7.1909,7.1893,7.1885,7.2041,7.3787,7.4441,7.4675,7.637,7.6994,7.6983,7.7011,7.6999,7.6999,7.6999,7.6999,7.6999,7.6983,7.8202,7.9567,7.9598,8.0874,8.2218,8.2187,8.2241,8.2293,8.2293,8.2293,8.2293,8.2293,8.2293,8.2293,8.2293,8.2293,8.2293,8.2293,8.2723,8.3152,8.3465,8.3972,8.4636,8.5534,8.5924,8.6314,8.6861,8.7212,8.7407,8.7407,8.7407,8.7407,8.7407,8.7407,8.7407,8.7407,8.7407,8.7407,8.7407,8.7407,8.7407,8.7407,8.7407,8.7407,8.7407,8.7407,8.7407,3.7087,0.0,0.0,0.0,0.0,0.0,0.0,0.0,0.0,0.0,0.0,0.0,0.0,0.0,0.0,0.0,0.0,0.0,0.0,0.0,0.0,0.0,0.0,0.0,0.0,0.0,0.0,0.0,0.0,0.0,6.6795,6.6795,6.6795,6.6795,6.6795,6.6795,6.6795,6.7381,6.781,6.8122,6.9255,7.0113,7.0738,7.1285,7.1714,7.1987,7.1987,7.1943,7.1897,7.1916,7.1909,7.2057,7.3805,7.4507,7.4702,7.6361,7.7014,7.7004,7.6983,7.7011,7.6999,7.6999,7.7011,7.7022,7.6994,7.8223,7.9598,7.9626,8.0891,8.2226,8.2234,8.2287,8.2293,8.2293,8.2293,8.2293,8.2293,8.2293,8.2293,8.2293,8.2293,8.2371,8.2645,8.3152,8.3699,8.4284,8.487,8.5534,8.6431,8.6549,8.6744,8.7329,8.7407,8.7407,8.7407,8.7407,8.7407,8.7407,8.7407,8.7407,8.7407,8.7407,8.7407,8.7407,8.7407,8.7407,8.7407,8.7407,8.7407,8.7407,8.7407,8.7407,0.0,0.0,0.0,0.0,0.0,0.0,0.0,0.0,0.0,0.0,0.0,0.0,0.0,0.0,0.0,0.0,0.0,0.0,0.0,0.0,0.0,0.0,0.0,0.0,0.0,0.0,0.0,0.0,0.0,6.6795,6.6795,6.6795,6.6795,6.6795,6.6795,6.6795,6.6795,6.6795,6.7224,6.8044,6.8083,6.8981,7.066,7.0699,7.1167,7.1987,7.1987,7.1976,7.1916,7.1916,7.1909,7.2088,7.3805,7.4507,7.4702,7.6379,7.6995,7.7004,7.7004,7.6983,7.6999,7.6999,7.6983,7.7004,7.7004,7.8233,7.9626,7.9682,8.0899,8.2234,8.2287,8.2293,8.2293,8.2293,8.2293,8.2293,8.2293,8.2293,8.2293,8.2293,8.2293,8.2567,8.3347,8.3504,8.4128,8.5846,8.6119,8.6431,8.729,8.7407,8.7407,8.7407,8.7407,8.7407,8.7407,8.7407,8.7407,8.7407,8.7407,8.7407,8.7407,8.7407,8.7407,8.7407,8.7407,8.7407,8.7407,8.7407,8.7407,8.7407,8.7407,8.7407,3.6657,0.0,0.0,0.0,0.0,0.0,0.0,5.2038,0.0,0.0,0.0,0.0,0.0,0.0,0.0,0.0,0.0,0.0,0.0,0.0,0.0,0.0,0.0,0.0,0.0,0.0,0.0,0.0,6.6795,6.6795,6.6795,6.6795,6.6795,6.6795,6.6795,6.6795,6.6795,6.6795,6.6912,6.7185,6.781,6.8669,6.9762,7.0426,7.1167,7.1987,7.1987,7.1982,7.1982,7.1982,7.1976,7.2132,7.3849,7.4513,7.4708,7.645,7.7059,7.7051,7.7004,7.6995,7.6985,7.6985,7.6985,7.6995,7.7051,7.8269,7.9682,7.9704,8.096,8.2287,8.2293,8.2293,8.2293,8.2293,8.2293,8.2293,8.2293,8.2293,8.2293,8.2293,8.2293,8.2567,8.3347,8.4011,8.4831,8.5924,8.6627,8.7134,8.7368,8.7407,8.7407,8.7407,8.7407,8.7407,8.7407,8.7407,8.7407,8.7407,8.7407,8.7407,8.7407,8.7407,8.7407,8.7407,8.7407,8.7407,8.7407,8.7407,8.7407,8.7407,8.7407,8.7407,0.0,0.0,0.0,0.0,0.0,0.0,4.6378,4.9072,5.1765,0.0,0.0,0.0,0.0,0.0,0.0,0.0,0.0,0.0,0.0,0.0,0.0,0.0,0.0,0.0,0.0,0.0,0.0,0.0,6.6795,6.6795,6.6795,6.6795,6.6795,6.6795,6.6795,6.6795,6.6795,6.6795,6.6795,6.6795,6.7303,6.8005,6.8903,6.9762,7.0621,7.148,7.1831,7.1987,7.1987,7.1987,7.1987,7.2182,7.3861,7.4486,7.472,7.6464,7.7082,7.7075,7.7059,7.7012,7.7004,7.7004,7.7012,7.7137,7.7536,7.8604,7.9782,8.0146,8.1239,8.2293,8.2293,8.2293,8.2293,8.2293,8.2293,8.2293,8.2293,8.2293,8.2293,8.2293,8.2567,8.3074,8.3894,8.4753,8.5651,8.651,8.7056,8.7407,8.7407,8.7407,8.7407,8.7407,8.7407,8.7407,8.7407,8.7407,8.7407,8.7407,8.7407,8.7407,8.7407,8.7407,8.7407,8.7407,8.7407,8.7407,8.7407,8.7407,8.7407,8.7407,8.7407,8.7407,0.0,0.0,0.0,0.0,0.0,0.0,4.3684,4.5792,4.8252,0.0,0.0,0.0,0.0,0.0,0.0,0.0,0.0,0.0,0.0,0.0,0.0,0.0,0.0,0.0,0.0,0.0,6.6795,6.6795,6.6795,6.6795,6.6795,6.6795,6.6795,6.6795,6.6795,6.6795,6.6795,6.6795,6.6795,6.6795,6.6795,6.7264,6.8122,6.8981,6.9879,7.0738,7.1636,7.1987,7.1987,7.1987,7.1987,7.2182,7.3861,7.4486,7.472,7.6477,7.7089,7.7114,7.7114,7.7067,7.7012,7.7012,7.7067,7.727,7.8136,7.9001,7.9912,8.0888,8.1708,8.2293,8.2293,8.2293,8.2293,8.2293,8.2293,8.2293,8.2293,8.2293,8.2293,8.2293,8.2957,8.3777,8.4636,8.5534,8.6392,8.729,8.7407,8.7407,8.7407,8.7407,8.7407,8.7407,8.7407,8.7407,8.7407,8.7407,8.7407,8.7407,8.7407,8.7407,8.7407,8.7407,8.7407,8.7407,8.7407,8.7407,8.7407,8.7407,8.7407,8.7407,8.7407,8.7407,0.0,0.0,0.0,0.0,0.0,0.0,4.4699,4.6222,4.7939,0.0,0.0,0.0,0.0,0.0,0.0,0.0,0.0,0.0,0.0,0.0,0.0,0.0,0.0,0.0,0.0,0.0,6.6795,6.6795,6.6795,6.6795,6.6795,6.6795,6.6795,6.6795,6.6795,6.6795,6.6795,6.6795,6.6795,6.6795,6.6795,6.7264,6.8122,6.8981,6.9879,7.0738,7.1636,7.1987,7.1987,7.1987,7.1987,7.2182,7.3861,7.4486,7.472,7.6477,7.7101,7.7095,7.7095,7.7095,7.7089,7.7089,7.7095,7.7251,7.8149,7.9014,8.0029,8.1591,8.2176,8.2293,8.2293,8.2293,8.2293,8.2293,8.2293,8.2293,8.2293,8.2293,8.2293,8.2293,8.2957,8.3777,8.4636,8.5534,8.6392,8.729,8.7407,8.7407,8.7407,8.7407,8.7407,8.7407,8.7407,8.7407,8.7407,8.7407,8.7407,8.7407,8.7407,8.7407,8.7407,8.7407,8.7407,8.7407,8.7407,8.7407,8.7407,8.7407,8.7407,8.7407,8.7407,8.7407,0.0,0.0,0.0,4.4972,0.0,0.0,0.0,4.5363,4.653,0.0,0.0,0.0,0.0,0.0,0.0,0.0,0.0,0.0,0.0,0.0,0.0,0.0,0.0,0.0,0.0,0.0,6.5546,6.5546,6.5975,6.6209,6.6209,6.6561,6.6795,6.6795,6.6795,6.6795,6.6795,6.6795,6.6795,6.6795,6.6795,6.7029,6.7498,6.8786,6.9645,7.0113,7.1441,7.1987,7.1987,7.1987,7.1987,7.2143,7.3393,7.4134,7.4642,7.5969,7.6711,7.7101,7.7101,7.7101,7.7101,7.7101,7.7101,7.7257,7.8155,7.9326,8.0615,8.1942,8.2293,8.2293,8.2293,8.2293,8.2293,8.2293,8.2293,8.2293,8.2293,8.2293,8.2293,8.2293,8.3308,8.4284,8.4714,8.5885,8.69,8.7329,8.7407,8.7407,8.7407,8.7407,8.7407,8.7407,8.7407,8.7407,8.7407,8.7407,8.7407,8.7407,8.7407,8.7407,8.7407,8.7407,8.7407,8.7407,8.7407,8.7407,8.7407,8.7407,8.7407,8.7407,8.7407,8.7407,0.0,0.0,0.0,0.0,0.0,4.5246,0.0,0.0,0.0,0.0,0.0,0.0,0.0,0.0,0.0,0.0,0.0,0.0,0.0,0.0,0.0,0.0,0.0,0.0,0.0,0.0,6.4062,6.4062,6.4687,6.5234,6.5585,6.6209,6.6639,6.6795,6.6795,6.6795,6.6795,6.6795,6.6795,6.6795,6.6795,6.6795,6.6873,6.8591,6.9411,6.9489,7.1245,7.1987,7.1987,7.1987,7.1987,7.2104,7.2963,7.3783,7.4603,7.5462,7.636,7.7101,7.7101,7.7101,7.7101,7.7101,7.7218,7.7492,7.839,7.9756,8.1161,8.2059,8.2293,8.2293,8.2293,8.2293,8.2293,8.2293,8.2293,8.2293,8.2293,8.2293,8.2332,8.2489,8.3777,8.4792,8.4792,8.6236,8.7407,8.7407,8.7407,8.7407,8.7407,8.7407,8.7407,8.7407,8.7407,8.7407,8.7407,8.7407,8.7407,8.7407,8.7407,8.7407,8.7407,8.7407,8.7407,8.7407,8.7407,8.7407,8.7407,8.7407,8.7407,8.7407,8.7407,8.7407,0.0,0.0,0.0,0.0,4.7393,0.0,0.0,0.0,0.0,0.0,0.0,0.0,0.0,0.0,0.0,0.0,0.0,0.0,0.0,0.0,0.0,0.0,0.0,0.0,0.0,0.0,0.0,6.3164,6.3243,6.3984,6.5507,6.5702,6.6053,6.6795,6.6795,6.6795,6.6795,6.6795,6.6795,6.6795,6.6795,6.6795,6.6873,6.8591,6.9411,6.9489,7.1245,7.1987,7.1987,7.1987,7.1987,7.2104,7.2963,7.3783,7.4603,7.5462,7.636,7.7101,7.7101,7.7101,7.7101,7.7101,7.7609,7.839,7.9287,8.0224,8.1161,8.2059,8.2293,8.2293,8.2293,8.2293,8.2293,8.2293,8.2293,8.2293,8.2293,8.2293,8.2528,8.323,8.4128,8.4792,8.4792,8.6236,8.7407,8.7407,8.7407,8.7407,8.7407,8.7407,8.7407,8.7407,8.7407,8.7407,8.7407,8.7407,8.7407,8.7407,8.7407,8.7407,8.7407,8.7407,8.7407,8.7407,8.7407,8.7407,8.7407,8.7407,8.7407,8.7407,8.7407,8.7407,0.0,0.0,0.0,0.0,0.0,0.0,0.0,0.0,4.5577,0.0,0.0,0.0,0.0,0.0,0.0,0.0,0.0,0.0,0.0,0.0,0.0,0.0,0.0,0.0,0.0,0.0,0.0,0.0,0.0,6.2032,6.3282,6.4765,6.5741,6.6092,6.6561,6.6795,6.6795,6.6795,6.6795,6.6795,6.6795,6.6795,6.6873,6.8591,6.9411,6.9489,7.1245,7.1987,7.1987,7.1987,7.1987,7.2026,7.2417,7.3354,7.4525,7.4915,7.593,7.7101,7.7101,7.7101,7.7101,7.7101,7.7335,7.7882,7.9287,7.9951,8.0537,8.1903,8.2293,8.2293,8.2293,8.2293,8.2293,8.2293,8.2293,8.2293,8.2293,8.2293,8.2528,8.3347,8.4206,8.4948,8.5456,8.6588,8.7407,8.7407,8.7407,8.7407,8.7407,8.7407,8.7407,8.7407,8.7407,8.7407,8.7407,8.7407,8.7407,8.7407,8.7407,8.7407,8.7407,8.7407,8.7407,8.7407,8.7407,8.7407,8.7407,8.7407,8.7407,8.7407,8.7407,8.7407,5.4507,0.0,0.0,0.0,0.0,0.0,0.0,0.0,0.0,0.0,0.0,0.0,0.0,0.0,0.0,0.0,0.0,0.0,0.0,0.0,0.0,0.0,0.0,0.0,0.0,0.0,0.0,0.0,5.847,0.0,6.1291,6.3594,6.5116,6.5585,6.6366,6.6795,6.6795,6.6795,6.6795,6.6795,6.6795,6.6795,6.6873,6.8591,6.9411,6.9489,7.1245,7.1987,7.1987,7.1987,7.1987,7.1987,7.1987,7.3002,7.4486,7.4486,7.5618,7.7101,7.7101,7.7101,7.7101,7.7101,7.7101,7.7414,7.917,7.9717,8.0068,8.1825,8.2293,8.2293,8.2293,8.2293,8.2293,8.2293,8.2293,8.2293,8.2293,8.2293,8.2606,8.366,8.4362,8.5143,8.6275,8.6978,8.7407,8.7407,8.7407,8.7407,8.7407,8.7407,8.7407,8.7407,8.7407,8.7407,8.7407,8.7407,8.7407,8.7407,8.7407,8.7407,8.7407,8.7407,8.7407,8.7407,8.7407,8.7407,8.7407,8.7407,8.7407,8.7407,8.7407,8.7407,0.0,0.0,0.0,5.2815,0.0,0.0,0.0,0.0,4.7195,0.0,0.0,0.0,0.0,0.0,4.4936,4.4936,4.4267,0.0,0.0,0.0,0.0,0.0,0.0,0.0,0.0,0.0,0.0,5.528,5.6113,5.7738,6.031,6.211,6.3867,6.5546,6.6366,6.6795,6.6795,6.6795,6.6795,6.6795,6.6795,6.6795,6.6873,6.8591,6.9411,6.9489,7.1245,7.1987,7.1987,7.1987,7.1987,7.1987,7.1987,7.3002,7.4486,7.4486,7.5618,7.7101,7.7101,7.7101,7.7101,7.7101,7.7101,7.7414,7.917,7.9717,8.0068,8.1825,8.2293,8.2293,8.2293,8.2293,8.2293,8.2293,8.2293,8.2293,8.2293,8.2293,8.2801,8.4441,8.4792,8.5338,8.7056,8.7368,8.7407,8.7407,8.7407,8.7407,8.7407,8.7407,8.7407,8.7407,8.7407,8.7407,8.7407,8.7407,8.7407,8.7407,8.7407,8.7407,8.7407,8.7407,8.7407,8.7407,8.7407,8.7407,8.7407,8.7407,8.7407,8.7407,8.7407,8.7407,0.0,0.0,5.541,5.4611,0.0,0.0,0.0,0.0,0.0,0.0,0.0,0.0,0.0,0.0,4.7111,4.5942,4.5514,4.5007,0.0,0.0,0.0,0.0,0.0,0.0,0.0,0.0,0.0,5.2575,5.3967,5.5903,0.0,6.09,6.293,6.4687,6.5546,6.6249,6.6795,6.6795,6.6795,6.6795,6.6795,6.6795,6.6873,6.8591,6.9411,6.9489,7.1245,7.1987,7.1987,7.1987,7.1987,7.1987,7.1987,7.3002,7.4486,7.4486,7.5618,7.7101,7.7101,7.7101,7.7101,7.7101,7.7492,7.8194,7.9366,8.0107,8.081,8.1981,8.2293,8.2293,8.2293,8.2293,8.2293,8.2293,8.2293,8.2293,8.2293,8.2723,8.3426,8.4597,8.526,8.6041,8.7212,8.7407,8.7407,8.7407,8.7407,8.7407,8.7407,8.7407,8.7407,8.7407,8.7407,8.7407,8.7407,8.7407,8.7407,8.7407,8.7407,8.7407,8.7407,8.7407,8.7407,8.7407,8.7407,8.7407,8.7407,8.7407,8.7407,8.7407,8.7407,8.7407,6.0776,5.9599,0.0,0.0,5.4728,0.0,5.1586,0.0,0.0,0.0,0.0,0.0,0.0,0.0,4.867,4.6956,4.6137,4.5046,0.0,4.2708,0.0,0.0,0.0,0.0,0.0,0.0,4.98,5.0385,5.2038,5.4021,0.0,0.0,6.172,6.3789,6.4999,6.5975,6.6795,6.6795,6.6795,6.6795,6.6795,6.6795,6.6873,6.8591,6.9411,6.9489,7.1245,7.1987,7.1987,7.1987,7.1987,7.2026,7.2339,7.3315,7.4486,7.4486,7.5618,7.7101,7.7101,7.7101,7.7101,7.7101,7.7687,7.8546,7.9444,8.0302,8.1161,8.2059,8.2293,8.2293,8.2293,8.2293,8.2293,8.2293,8.2293,8.2293,8.2293,8.2918,8.3777,8.4636,8.5495,8.6392,8.7251,8.7407,8.7407,8.7407,8.7407,8.7407,8.7407,8.7407,8.7407,8.7407,8.7407,8.7407,8.7407,8.7407,8.7407,8.7407,8.7407,8.7407,8.7407,8.7407,8.7407,8.7407,8.7407,8.7407,8.7407,8.7407,8.7407,8.7407,8.7407,8.7407]},{"header":{"parameterUnit":"m.s-1","parameterCategory":1,"la1":30.6,"la2":29.2853,"lo1":-89.7004,"lo2":-87.6739,"dy":0.0162,"dx":0.0183,"nx":112,"ny":82,"refTime":"2024-03-31T06:00:00:Z","depth":0,"parameterNumber":3,"parameterNumberName":"V-component_of_WINDS"},"data":[0.0,0.0,0.0,0.0,0.0,0.0,0.0,0.0,0.0,0.0,0.0,0.0,0.0,0.0,0.0,0.0,0.0,0.0,0.0,0.0,0.0,0.0,0.0,0.0,0.0,0.0,0.0,0.0,0.0,0.0,0.0,0.0,0.0,0.0,0.0,0.0,0.0,0.0,0.0,0.0,0.0,0.0,0.0,0.0,0.0,0.0,0.0,0.0,0.0,0.0,0.0,0.0,0.0,0.0,0.0,0.0,0.0,0.0,0.0,0.0,0.0,0.0,0.0,0.0,0.0,0.0,0.0,0.0,0.0,0.0,0.0,0.0,0.0,0.0,0.0,0.0,0.0,0.0,0.0,0.0,0.0,0.0,0.0,0.0,0.0,0.0,0.0,0.0,0.0,0.0,0.0,-0.2219,-0.3652,-0.4831,-0.534,-0.4935,-0.4426,-0.3836,0.0,0.0,0.0,0.0,0.0,0.0,0.0,0.0,0.0,0.0,0.0,0.0,0.0,0.0,0.0,0.0,0.0,0.0,0.0,0.0,0.0,0.0,0.0,0.0,0.0,0.0,0.0,0.0,0.0,0.0,0.0,0.0,0.0,0.0,0.0,0.0,0.0,0.0,0.0,0.0,0.0,0.0,0.0,0.0,0.0,0.0,0.0,0.0,0.0,0.0,0.0,0.0,0.0,0.0,0.0,0.0,0.0,0.0,0.0,0.0,0.0,0.0,0.0,0.0,0.0,0.0,0.0,0.0,0.0,0.0,0.0,0.0,0.0,0.0,0.0,0.0,0.0,0.0,0.0,0.0,0.0,0.0,0.0,0.0,0.0,0.0,0.0,0.0,0.0,0.0,0.0,0.0,0.0,0.0,0.0,0.0,0.0,0.0,0.0,0.0,0.0,0.0,0.0,0.0,-0.1565,-0.2177,-0.3352,-0.4243,-0.4614,-0.453,-0.4203,-0.3739,0.0,0.0,0.0,0.0,0.0,0.0,0.0,0.0,0.0,0.0,0.0,0.0,0.0,0.0,0.0,0.0,0.0,0.0,0.0,0.0,0.0,0.0,0.0,0.0,0.0,0.0,0.0,0.0,0.0,0.0,0.0,0.0,0.0,0.0,0.0,0.0,0.0,0.0,0.0,0.0,0.0,0.0,0.0,0.0,0.0,0.0,0.0,0.0,0.0,0.0,0.0,0.0,0.0,0.0,0.0,0.0,0.0,0.0,0.0,0.0,0.0,0.0,0.0,0.0,0.0,0.0,0.0,0.0,0.0,0.0,0.0,0.0,0.0,0.0,0.0,0.0,0.0,0.0,0.0,0.0,0.0,0.0,0.0,0.0,0.0,0.0,0.0,0.0,0.0,0.0,0.0,0.0,0.0,0.0,0.0,0.0,0.0,0.0,0.0,0.0,0.0,0.0,0.0,-0.0403,-0.0973,-0.1773,-0.2609,-0.3352,-0.3727,-0.3871,-0.3741,-0.3269,-0.2637,0.0,0.0,0.0,0.0,0.0,0.0,0.0,0.0,0.0,0.0,0.0,0.0,0.0,0.0,0.0,0.0,0.0,0.0,0.0,0.0,0.0,0.0,0.0,0.0,0.0,0.0,0.0,0.0,0.0,0.0,0.0,0.0,0.0,0.0,0.0,0.0,0.0,0.0,0.0,0.0,0.0,0.0,0.0,0.0,0.0,0.0,0.0,0.0,0.0,0.0,0.0,0.0,0.0,0.0,0.0,0.0,0.0,0.0,0.0,0.0,0.0,0.0,0.0,0.0,0.0,0.0,0.0,0.0,0.0,0.0,0.0,0.0,0.0,0.0,0.0,0.0,0.0,0.0,0.0,0.0,0.0,0.0,0.0,0.0,0.0,0.0,0.0,0.0,0.0,0.0,0.0,0.0,0.0,0.0,0.0,0.0,0.0,0.0,0.0,0.0,0.0,0.0,0.0086,-0.0371,-0.1108,-0.1719,-0.2241,-0.2604,-0.2912,-0.3001,-0.2703,-0.2292,0.0,0.0,0.0,0.0,0.0,0.0,0.0,0.0,0.0,0.0,0.0,0.0,0.0,0.0,0.0,0.0,0.0,0.0,0.0,0.0,0.0,0.0,0.0,0.0,0.0,0.0,0.0,0.0,0.0,0.0,0.0,0.0,0.0,0.0,0.0,0.0,0.0,0.0,0.0,0.0,0.0,0.0,0.0,0.0,0.0,0.0,0.0,0.0,0.0,0.0,0.0,0.0,0.0,0.0,0.0,0.0,0.0,0.0,0.0,0.0,0.0,0.0,0.0,0.0,0.0,0.0,0.0,0.0,0.0,0.0,0.0,0.0,0.0,0.0,0.0,0.0,0.0,0.0,0.0,0.0,0.0,0.0,0.0,0.0,0.0,0.0,0.0,0.0,0.0,0.0,0.0,0.0,0.0,0.0,0.0,0.0,0.0,0.0,0.0,0.0,0.0,0.0,0.0517,-0.0186,-0.0205,-0.0613,-0.0922,-0.106,-0.1663,-0.2183,-0.2353,-0.1984,0.0,0.0,0.0,0.0,0.0,0.0,0.0,0.0,0.0,0.0,0.0,0.0,0.0,0.0,0.0,0.0,0.0,0.0,0.0,0.0,0.0,0.0,0.0,0.0,0.0,0.0,0.0,0.0,0.0,0.0,0.0,0.0,0.0,0.0,0.0,0.0,0.0,0.0,0.0,0.0,0.0,0.0,0.0,0.0,0.0,0.0,0.0,0.0,0.0,0.0,0.0,0.0,0.0,0.0,0.0,0.0,0.0,0.0,0.0,0.0,0.0,0.0,0.0,0.0,0.0,0.0,0.0,0.0,0.0,0.0,0.0,0.0,0.0,0.0,0.0,0.0,0.0,0.0,0.0,0.0,0.0,0.0,0.0,0.0,0.0,0.0,0.0,0.0,0.0,0.0,0.0,0.0,0.0,0.0,0.0,0.0,0.0,0.0,0.0,0.0,0.0,0.0,0.1158,0.0675,0.0,-0.0208,-0.0311,-0.0319,-0.0581,-0.107,-0.1709,0.0,0.0,0.0,0.0,0.0,0.0,0.0,0.0,0.0,0.0,0.0,0.0,0.0,0.0,0.0,0.0,0.0,0.0,0.0,0.0,0.0,0.0,0.0,0.0,0.0,0.0,0.0,0.0,0.0,0.0,0.0,0.0,0.0,0.0,0.0,0.0,0.0,0.0,0.0,0.0,0.0,0.0,0.0,0.0,0.0,0.0,0.0,0.0,0.0,0.0,0.0,0.0,0.0,0.0,0.0,0.0,0.0,0.0,0.0,0.0,0.0,0.0,0.0,0.0,0.0,0.0,0.0,0.0,0.0,0.0,0.0,0.0,0.0,0.0,0.0,0.0,0.0,0.0,0.0,0.0,0.0,0.0,0.0,0.0,0.0,0.0,0.0,0.0,0.0,0.0,0.0,0.0,0.0,0.0,0.0,0.0,0.0,0.0,0.0,0.0,0.0,0.0,0.1328,0.1452,0.1179,0.0,0.0105,0.0105,0.0426,0.029,-0.0089,-0.076,0.0,0.0,0.0,0.0,0.0,0.0,0.0,0.0,0.0,0.0,0.0,0.0,0.0,0.0,0.0,0.0,0.0,0.0,0.0,0.0,0.0,0.0,0.0,0.0,0.0,0.0,0.0,0.0,0.0,0.0,0.0,0.0,0.0,0.0,0.0,0.0,0.0,0.0,0.0,0.0,0.0,0.0,0.0,0.0,0.0,0.0,0.0,0.0,0.0,0.0,0.0,0.0,0.0,0.0,0.0,0.0,0.0,0.0,0.0,0.0,0.0,0.0,0.0,0.0,0.0,0.0,0.0,0.0,0.0,0.0,0.0,0.0,0.0,0.0,0.0,0.0,0.0,0.0,0.0,0.0,0.0,0.0,0.0,0.0,0.0,0.0,0.0,0.0,0.0,0.0,0.0,0.0,0.0,0.0,0.0,0.0,0.0,0.0,0.0,0.0,0.0,0.0,0.1411,0.1362,0.1278,0.0847,0.0315,0.0419,0.1492,0.1078,0.0631,0.0,0.0,0.0,0.0,0.0,0.0,0.0,0.0,0.0,0.0,0.0,0.0,0.0,0.0,0.0,0.0,0.0,0.0,0.0,0.0,0.0,0.0,0.0,0.0,0.0,0.0,0.0,0.0,0.0,0.0,0.0,0.0,0.0,0.0,0.0,0.0,0.0,0.0,0.0,0.0,0.0,0.0,0.0,0.0,0.0,0.0,0.0,0.0,0.0,0.0,0.0,0.0,0.0,0.0,0.0,0.0,0.0,0.0,0.0,0.0,0.0,0.0,0.0,0.0,0.0,0.0,0.0,0.0,0.0,0.0,0.0,0.0,0.0,0.0,0.0,0.0,0.0,0.0,0.0,0.0,0.0,0.0,0.0,0.0,0.0,0.0,0.0,0.0,0.0,0.0,0.0,0.0,0.0,0.0,0.0,0.0,0.0,0.0,0.0,0.0,0.0,0.0,0.0,0.1331,0.149,0.1316,0.0849,0.0322,0.043,0.1495,0.139,0.1191,0.1101,0.0,0.0,0.0,0.0,0.0,0.0,0.0,0.0,0.0,0.0,0.0,0.0,0.0,0.0,0.0,0.0,0.0,0.0,0.0,0.0,0.0,0.0,0.0,0.0,0.0,0.0,0.0,0.0,0.0,0.0,0.0,0.0,0.0,0.0,0.0,0.0,0.0,0.0,0.0,0.0,0.0,0.0,0.0,0.0,0.0,0.0,0.0,0.0,0.0,0.0,0.0,0.0,0.0,0.0,0.0,0.0,0.0,0.0,0.0,0.0,0.0,0.0,0.0,0.0,0.0,0.0,0.0,0.0,0.0,0.0,0.0,0.0,0.0,0.0,0.0,0.0,0.0,0.0,0.0,0.0,0.0,0.0,0.0,0.0,0.0,0.0,0.0,0.0,0.0,0.0,0.0,0.0,0.0,0.0,0.0,0.0,0.0,0.0,0.0,0.0,0.0,0.0,0.1365,0.152,0.1439,0.118,0.0652,0.0761,0.1603,0.1507,0.14,0.1373,0.0,0.0,0.0,0.0,0.0,0.0,0.0,0.0,0.0,0.0,0.0,0.0,0.0,0.0,0.0,0.0,0.0,0.0,0.0,0.0,0.0,0.0,0.0,0.0,0.0,0.0,0.0,0.0,0.0,0.0,0.0,0.0,0.0,0.0,0.0,0.0,0.0,0.0,0.0,0.0,0.0,0.0,0.0,0.0,0.0,0.0,0.0,0.0,0.0,0.0,0.0,0.0,0.0,0.0,0.0,0.0,0.0,0.0,0.0,0.0,0.0,0.0,0.0,0.0,0.0,0.0,0.0,0.0,0.0,0.0,0.0,0.0,0.0,0.0,0.0,0.0,0.0,0.0,0.0,0.0,0.0,0.0,0.0,0.0,0.0,0.0,0.0,0.0,0.0,0.0,0.0,0.0,0.0,0.0,0.0,0.0,0.0,0.0,0.0,0.0,0.0,0.0,0.1412,0.1542,0.1651,0.174,0.1314,0.1198,0.1607,0.163,0.1528,0.1406,0.0,0.0,0.0,0.0,0.0,0.0,0.0,0.0,0.0,0.0,0.0,0.0,0.0,0.0,0.0,0.0,0.0,0.0,0.0,0.0,0.0,0.0,0.0,0.0,0.0,0.0,0.0,0.0,0.0,0.0,0.0,0.0,0.0,0.0,0.0,0.0,0.0,0.0,0.0,0.0,0.0,0.0,0.0,0.0,0.0,0.0,0.0,0.0,0.0,0.0,0.0,0.0,0.0,0.0,0.0,0.0,0.0,0.0,0.0,0.0,0.0137,0.0,0.0,0.0,0.0,0.0,0.0,0.0,0.0,0.0,0.0,0.0,0.0,0.0,0.0,0.0,0.0,0.0,0.0,0.0,0.0,0.0,0.0,0.0,0.0,0.0,0.0,0.0,0.0,0.0,0.0,0.0,0.0,0.0,0.0,0.0,0.0,0.0,0.0,0.0,0.0,0.0,0.1415,0.1542,0.1651,0.174,0.166,0.1663,0.1744,0.1681,0.1591,0.147,0.0,0.0,0.0,0.0,0.0,0.0,0.0,0.0,0.0,0.0,0.0,0.0,0.0,0.0,0.0,0.0,0.0,0.0,0.0,0.0,0.0,0.0,0.0,0.0,0.0,0.0,0.0,0.0,0.0,0.0,0.0,0.0,0.0,0.0,0.0,0.0,0.0,0.0,0.0,0.0,0.0,0.0,0.0,0.0,0.0,0.0,0.0,0.0,0.0,0.0,0.0,0.0,0.0,0.0,0.0,0.0,0.0,0.0,0.0,0.0,0.0,0.0741,0.0,0.0,0.0,0.0,0.0,0.0,0.0,0.0,0.0,0.0,0.0,0.0,0.0,0.0,0.0,0.0,0.0,0.0,0.0,0.0,0.0,0.0,0.0,0.0,0.0,0.0,0.0,0.0,0.0,0.0,0.0,0.0,0.0,0.0,0.0,0.0,0.0,0.0,0.0,0.0,0.1478,0.1581,0.1673,0.1761,0.1786,0.1783,0.1752,0.1708,0.1637,0.1531,0.1425,0.0,0.0,0.0,0.0,0.0,0.0,0.0,0.0,0.0,0.0,0.0,0.0,0.0,0.0,0.0,0.0,0.0,0.0,0.0,0.0,0.0,0.0,0.0,0.0,0.0,0.0,0.0,0.0,0.0,0.0,0.0,0.0,0.0,0.0,0.0,0.0,0.0,0.0,0.0,0.0,0.0,0.0,0.0,0.0,0.0,0.0,0.0,0.0,0.0,0.0,0.0,0.0,0.0,0.0,0.1598,0.1557,0.1557,0.156,0.1558,0.1518,0.1443,0.1331,0.0,0.0,0.0,0.0,0.0,0.0,0.0,0.0,0.0,0.0,0.0,0.0,0.0,0.0,0.0,0.0,0.0,0.0,0.0,0.0,0.0,0.0,0.0,0.0,0.0,0.1444,0.141,0.0,0.0,0.0,0.0,0.0,0.0,0.0,0.0,0.0,0.0,0.0,0.0,0.1546,0.1625,0.1696,0.1786,0.1795,0.1785,0.176,0.173,0.1678,0.1599,0.1509,0.1408,0.0,0.0,0.0,0.0,0.0,0.0,0.0,0.0,0.0,0.0,0.0,0.0,0.0,0.0,0.0,0.0,0.0,0.0,0.0,0.0,0.0,0.0,0.0,0.0,0.0,0.0,0.0,0.0,0.0,0.0,0.0,0.0,-0.1738,-0.1675,0.0,0.0,0.0,0.0,0.0,0.0,0.0,0.0,0.0,0.0,0.0,0.0,0.0,0.0,0.136,0.1414,0.1555,0.1693,0.1721,0.165,0.1681,0.1681,0.1695,0.1718,0.1671,0.0,0.1453,0.1396,0.0,0.0,0.0,0.0,0.0,0.0,0.0,0.0,0.0,0.0,0.0,0.0,0.0,0.0,0.0,0.0,0.0,0.0,0.0,0.0,0.0,0.0,0.151,0.1546,0.157,0.1584,0.0,0.1419,0.1284,0.1284,0.0,0.0,0.0,0.0,0.0,0.0,0.0,0.0,0.1551,0.1625,0.1696,0.1786,0.1795,0.1793,0.179,0.1761,0.1727,0.1689,0.1603,0.151,0.1415,0.1296,0.0,0.0,0.0,0.0,0.0,0.0,0.0,0.0,0.0,0.0,0.0,0.0,0.0,0.0,0.0,0.0,0.0,0.0,0.0,0.0,0.0,0.0,0.0,0.0,0.0,0.0,0.0,0.0,0.0,-0.1196,-0.1093,-0.1106,-0.152,-0.1828,0.0,0.0,0.0,0.0,0.0,0.0,0.0,0.0,0.0,0.0374,0.0952,0.1372,0.1734,0.1761,0.1802,0.1742,0.1756,0.1778,0.1806,0.1806,0.1813,0.1825,0.1812,0.176,0.1674,0.1564,0.15,0.1466,0.0,0.0,0.0,0.0,0.0,0.143,0.1448,0.0,0.0,0.0,0.0,0.0,0.0,0.0,0.0,0.0,0.0,0.0,0.0,0.0,0.0,0.1639,0.1656,0.1666,0.1666,0.1581,0.149,0.0,0.1341,0.1268,0.1268,0.0,0.0,0.0,0.0,0.0,0.1606,0.1674,0.1733,0.1789,0.1795,0.1795,0.1795,0.1783,0.1763,0.1731,0.1677,0.1606,0.1516,0.1429,0.1324,0.0,0.0,0.0,0.0,0.0,0.0,0.0,0.0,0.0,0.0,0.0,0.0,0.0,0.0,0.0,0.0,0.0,0.0,0.0,0.0,0.0,0.0,0.0,0.0,0.0,0.0,0.0,0.0,-0.0717,-0.0663,-0.0511,-0.0774,-0.1195,0.0,0.0,0.0,0.0,0.0,0.0,-0.0462,-0.0094,0.0487,0.1235,0.1562,0.1705,0.1772,0.1789,0.1823,0.1876,0.1883,0.1902,0.1932,0.1932,0.1932,0.193,0.1924,0.1903,0.1864,0.1722,0.1644,0.161,0.1534,0.1527,0.1555,0.151,0.1521,0.1565,0.1595,0.1591,0.1577,0.1607,0.0,0.148,0.1472,0.0,0.0,0.0,0.0,0.1538,0.1583,0.0,0.169,0.1711,0.1722,0.1727,0.1727,0.1705,0.166,0.0,0.147,0.1393,0.1393,0.0,0.0,0.0,0.0,0.1545,0.1659,0.1718,0.1761,0.1791,0.1795,0.1795,0.1795,0.1795,0.1785,0.1763,0.1733,0.1682,0.1609,0.154,0.1441,0.1306,0.0,0.0,0.0,0.0,0.0,0.0,0.0,0.0,0.0,0.0,0.0,0.0,0.0,0.0,0.0,0.0,0.0,0.0,0.0,0.0,0.0,0.0,0.0,0.0,0.0,0.0,0.0,0.0,0.0,0.0089,0.0,0.0,0.0,0.0,0.0,-0.0179,-0.0096,-0.0,0.0201,0.0632,0.1193,0.1851,0.1798,0.1831,0.1836,0.1894,0.1939,0.197,0.1997,0.2026,0.2054,0.2054,0.2054,0.2053,0.2024,0.1996,0.196,0.1836,0.1768,0.1737,0.1704,0.1677,0.1655,0.1652,0.1652,0.1659,0.1688,0.1696,0.17,0.1731,0.1681,0.1602,0.1573,0.1562,0.0,0.0,0.1606,0.1654,0.1656,0.1701,0.1745,0.1748,0.177,0.179,0.179,0.1767,0.1727,0.0,0.158,0.1517,0.1517,0.0,0.1448,0.151,0.1546,0.1599,0.169,0.173,0.1761,0.1791,0.1795,0.1795,0.1795,0.1795,0.1794,0.1793,0.1764,0.1733,0.1699,0.1613,0.1523,0.1429,0.1311,0.0,0.0,0.0,0.0,0.0,0.0,0.0,0.0,0.0,0.0,0.0,0.0,0.0,0.0,0.0,0.0,0.0,0.0,0.0,0.0,0.0,0.0,0.0,0.0,0.0,0.0,0.0,0.0,0.0772,0.0598,0.0,0.0,-0.01,0.0,0.0409,0.0943,0.1296,0.134,0.1593,0.1747,0.1921,0.1944,0.1964,0.1984,0.2005,0.2022,0.2033,0.2044,0.2053,0.2064,0.2064,0.2064,0.2063,0.2052,0.2042,0.203,0.1986,0.1917,0.1834,0.1804,0.1798,0.1804,0.1785,0.179,0.1808,0.1817,0.1821,0.182,0.181,0.1786,0.1755,0.1725,0.1715,0.1715,0.1715,0.1745,0.1776,0.1776,0.1806,0.1838,0.1838,0.1846,0.1853,0.1853,0.1844,0.1831,0.181,0.1703,0.1614,0.1614,0.158,0.1566,0.1607,0.1639,0.1675,0.1727,0.176,0.1783,0.1794,0.1795,0.1795,0.1795,0.1795,0.1795,0.1795,0.1785,0.1756,0.1707,0.1674,0.1606,0.1495,0.1414,0.1318,0.0,0.0,0.0,0.0,0.0,0.0,0.0,0.0,0.0,0.0,0.0,0.0,0.0,0.0,0.0,0.0,0.0,0.0,0.0,0.0,0.0,0.0,0.0,0.0,0.0,0.0,0.1682,0.1343,0.1278,0.1188,0.1174,0.098,0.0886,0.1233,0.1709,0.1983,0.2048,0.2061,0.1978,0.2046,0.2049,0.2064,0.2094,0.2105,0.211,0.211,0.212,0.2125,0.2125,0.2125,0.2125,0.2124,0.2114,0.2104,0.2094,0.2083,0.2026,0.1944,0.1924,0.1922,0.1928,0.1907,0.19,0.1902,0.1902,0.1914,0.1924,0.1884,0.187,0.1865,0.1835,0.1825,0.1825,0.1825,0.184,0.1855,0.1855,0.187,0.1885,0.1885,0.1885,0.1885,0.1885,0.1885,0.1885,0.1885,0.1789,0.1707,0.1707,0.1674,0.1656,0.1688,0.1708,0.173,0.1761,0.1782,0.1795,0.1795,0.1795,0.1795,0.1795,0.1795,0.1795,0.1795,0.1785,0.1761,0.1722,0.17,0.1648,0.1558,0.1467,0.1366,0.1335,0.0,0.0,0.0,0.0,0.0,0.0,0.0,0.0,0.0,0.0,0.0,0.0,0.0,0.0,0.0,0.0,0.0,0.0,0.0,0.0,0.0,0.0,0.0,0.0926,0.1467,0.1862,0.1854,0.1893,0.1913,0.2027,0.1973,0.2009,0.2009,0.1973,0.2022,0.2023,0.2052,0.2082,0.2112,0.2113,0.2128,0.2157,0.2187,0.2202,0.2202,0.2232,0.2245,0.2245,0.2245,0.2245,0.2244,0.2214,0.2185,0.2155,0.2125,0.2095,0.2069,0.2065,0.2046,0.202,0.202,0.1984,0.1936,0.1936,0.1973,0.2011,0.1954,0.1936,0.1929,0.19,0.1891,0.1889,0.1889,0.1889,0.1888,0.1888,0.1888,0.1888,0.1888,0.1888,0.1888,0.1888,0.1888,0.1888,0.1888,0.184,0.1798,0.1798,0.1749,0.172,0.1749,0.1753,0.0,0.1794,0.1798,0.1798,0.1798,0.1797,0.1797,0.1797,0.1795,0.1795,0.1795,0.1767,0.1749,0.1748,0.1693,0.1648,0.1615,0.147,0.1351,0.1341,0.0,0.0,0.0,0.0,0.0,0.0,0.0,0.0,0.0,0.0,0.0,0.0,0.0,0.0,0.0,0.0,0.0,0.0,0.0,0.0,0.0,0.0,0.1485,0.1636,0.1789,0.1864,0.1868,0.1909,0.1934,0.1955,0.1992,0.2015,0.2015,0.2059,0.2094,0.2116,0.2146,0.2177,0.2207,0.2208,0.2211,0.2221,0.2229,0.2233,0.2233,0.2241,0.2245,0.2245,0.2245,0.2245,0.2245,0.2237,0.2229,0.2219,0.2211,0.2203,0.2187,0.2098,0.2059,0.2052,0.2052,0.2041,0.2027,0.2027,0.2038,0.2049,0.2033,0.2027,0.2026,0.2018,0.2,0.1982,0.1982,0.1967,0.1952,0.1952,0.1952,0.1952,0.1952,0.1952,0.1952,0.1952,0.1952,0.1952,0.1952,0.1921,0.1887,0.1865,0.1847,0.1839,0.1847,0.0,0.0,0.1859,0.1861,0.1861,0.1861,0.184,0.1828,0.1828,0.1808,0.1795,0.0,0.1767,0.174,0.1718,0.1681,0.1637,0.1585,0.1521,0.1455,0.0,0.0,0.0,0.0,0.0,0.0,0.0,0.0,0.0,0.0,0.0,0.0,0.0,0.0,0.0,0.0,0.0,0.0,0.0,0.0,0.0,0.0,0.1722,0.1829,0.1919,0.1937,0.1861,0.1956,0.1994,0.2019,0.2035,0.2076,0.2102,0.2102,0.2142,0.2174,0.2192,0.221,0.2233,0.2263,0.2264,0.227,0.2282,0.2282,0.2282,0.2282,0.2282,0.2282,0.2282,0.2282,0.2282,0.0,0.227,0.2264,0.2263,0.2251,0.2245,0.0,0.0,0.0,0.0,0.0,0.211,0.2117,0.2091,0.2091,0.2099,0.2087,0.2083,0.208,0.2068,0.2052,0.2037,0.2037,0.2026,0.2014,0.2014,0.2014,0.2014,0.2014,0.2014,0.2014,0.2014,0.2014,0.2014,0.2014,0.0,0.0,0.1944,0.191,0.1885,0.1885,0.1885,0.1885,0.0,0.1885,0.1885,0.1885,0.187,0.1854,0.1842,0.1824,0.0,0.0,0.0,0.1735,0.1705,0.1689,0.0,0.0,0.0,0.156,0.0,0.0,0.0,0.0,0.1352,0.1374,0.0,0.0,0.0,0.0,0.0,0.0,0.0,0.0,0.0,0.0,0.0,0.0,0.0,0.0,0.0,0.0,0.1752,0.1851,0.197,0.1969,0.1974,0.2023,0.2056,0.2075,0.2079,0.2131,0.2165,0.2165,0.2218,0.2251,0.2251,0.0,0.0,0.0,0.0,0.2308,0.2333,0.2333,0.2333,0.2333,0.2333,0.2333,0.2333,0.2333,0.2333,0.2331,0.2307,0.2296,0.2293,0.2266,0.2255,0.2255,0.2248,0.2245,0.2238,0.2185,0.2181,0.0,0.0,0.0,0.0,0.2133,0.2123,0.2114,0.2087,0.2075,0.2069,0.2069,0.2067,0.2064,0.2064,0.2064,0.2064,0.2064,0.2064,0.2064,0.2064,0.2064,0.2064,0.2064,0.2042,0.2023,0.2023,0.1952,0.1896,0.1896,0.1896,0.0,0.1896,0.1896,0.1896,0.1896,0.0,0.0,0.1853,0.1847,0.1832,0.1802,0.1768,0.1735,0.1705,0.1704,0.1692,0.1667,0.167,0.1659,0.1632,0.1639,0.1641,0.164,0.1549,0.1535,0.0,0.0,0.0,0.0,0.0,0.0,0.0,0.0,0.0,0.0,0.0,0.0,0.0,0.0,0.0,0.1753,0.1846,0.1939,0.2034,0.2084,0.2106,0.2093,0.2119,0.2147,0.2172,0.2207,0.2228,0.2228,0.2262,0.2282,0.2282,0.2304,0.0,0.2324,0.2324,0.2327,0.2333,0.2333,0.2333,0.2333,0.0,0.0,0.2333,0.2333,0.2333,0.2333,0.2327,0.2324,0.2324,0.2319,0.2316,0.2311,0.2264,0.2245,0.2244,0.2232,0.2232,0.2234,0.2223,0.2223,0.2226,0.2221,0.2203,0.2181,0.2176,0.2139,0.0,0.2101,0.2083,0.2064,0.2064,0.2064,0.2064,0.2064,0.2064,0.2064,0.2064,0.2064,0.2064,0.2064,0.2059,0.2056,0.2056,0.2001,0.1959,0.1959,0.1959,0.1959,0.1959,0.1959,0.1959,0.1959,0.1937,0.1919,0.1914,0.1891,0.1864,0.1834,0.178,0.1735,0.1705,0.1704,0.1701,0.1696,0.172,0.173,0.1725,0.1774,0.1797,0.1795,0.1704,0.1667,0.0,0.0,0.0,0.0,0.0,0.0,0.0,0.0,0.0,0.0,0.0,0.1517,0.1564,0.0,0.1776,0.1851,0.1939,0.2023,0.2099,0.2148,0.2172,0.2157,0.2181,0.2206,0.2221,0.2251,0.2268,0.2268,0.2296,0.2312,0.2312,0.2324,0.2333,0.2333,0.2333,0.2333,0.2333,0.2333,0.2333,0.2333,0.2333,0.2333,0.2333,0.2333,0.2333,0.2333,0.2333,0.2333,0.2333,0.2333,0.2333,0.233,0.2301,0.2289,0.2288,0.2274,0.2268,0.2266,0.2251,0.2245,0.2245,0.2245,0.2236,0.2222,0.2222,0.2202,0.2177,0.2177,0.2166,0.2151,0.2136,0.2132,0.2128,0.2113,0.2109,0.2109,0.2109,0.2109,0.2109,0.2109,0.2097,0.2087,0.2087,0.2049,0.202,0.202,0.2007,0.1997,0.1997,0.1985,0.1977,0.1977,0.1963,0.1948,0.1933,0.1903,0.1879,0.1864,0.1835,0.181,0.1795,0.1795,0.1795,0.1795,0.181,0.1817,0.1817,0.1849,0.1864,0.1862,0.1847,0.1824,0.0,0.0,0.0,0.0,0.0,0.0,0.0,0.0,0.1504,0.152,0.1587,0.1655,0.1697,0.1794,0.1888,0.1955,0.2031,0.2102,0.2163,0.2199,0.2218,0.2218,0.224,0.2253,0.2253,0.2281,0.2298,0.2298,0.232,0.2333,0.2333,0.2333,0.2333,0.2333,0.2333,0.2333,0.2333,0.2333,0.2333,0.2333,0.2333,0.2333,0.2333,0.2333,0.2333,0.2333,0.2333,0.2333,0.2333,0.2333,0.2333,0.2333,0.2333,0.2333,0.233,0.2307,0.2298,0.2296,0.2271,0.2263,0.2263,0.2263,0.2259,0.2253,0.2253,0.2249,0.2245,0.2245,0.2245,0.224,0.2215,0.2208,0.2203,0.2178,0.2173,0.2173,0.2173,0.2168,0.2163,0.2163,0.2139,0.2119,0.2119,0.2098,0.2078,0.2065,0.2044,0.2027,0.2027,0.2008,0.1993,0.1993,0.1993,0.1984,0.1959,0.1924,0.1903,0.1903,0.1892,0.1885,0.1885,0.1885,0.1885,0.1885,0.1892,0.1898,0.1903,0.1909,0.1915,0.1921,0.1971,0.1962,0.1436,0.1418,0.1415,0.1415,0.1441,0.1472,0.0,0.0,0.1584,0.1663,0.1708,0.176,0.1846,0.1915,0.1989,0.2075,0.212,0.2166,0.2226,0.2262,0.2281,0.2281,0.2283,0.2286,0.2286,0.2311,0.2328,0.2328,0.2331,0.2333,0.2333,0.2333,0.2333,0.2333,0.2333,0.2333,0.2333,0.2333,0.2333,0.2333,0.2333,0.2333,0.2333,0.2333,0.2333,0.2333,0.2333,0.2333,0.2333,0.2333,0.2333,0.2333,0.2333,0.2333,0.2333,0.233,0.2328,0.2327,0.2324,0.2323,0.2323,0.2323,0.2307,0.2286,0.2286,0.2267,0.2245,0.2245,0.2245,0.2245,0.2241,0.224,0.224,0.2236,0.2236,0.2236,0.2236,0.2214,0.2195,0.2195,0.217,0.215,0.215,0.2147,0.2127,0.2072,0.2061,0.2059,0.2059,0.2056,0.2054,0.2054,0.2054,0.2053,0.2049,0.1999,0.1966,0.1966,0.1915,0.1885,0.1885,0.1885,0.1885,0.1885,0.1913,0.194,0.1966,0.1992,0.2018,0.2044,0.205,0.2023,0.15,0.1501,0.1515,0.0,0.1551,0.1594,0.1624,0.1667,0.1722,0.1795,0.1849,0.1898,0.1952,0.2012,0.2072,0.0,0.2161,0.2203,0.2263,0.2282,0.229,0.229,0.2305,0.2315,0.2315,0.2326,0.2333,0.2333,0.2333,0.2333,0.2333,0.2333,0.2333,0.2333,0.2333,0.2333,0.2333,0.2333,0.2333,0.2333,0.2333,0.2333,0.2333,0.2333,0.2333,0.2333,0.2333,0.2333,0.2333,0.2333,0.2333,0.2333,0.2333,0.2333,0.2333,0.2333,0.2333,0.2333,0.2333,0.2333,0.2333,0.2333,0.2324,0.2315,0.2315,0.2307,0.2296,0.2296,0.2296,0.2293,0.2277,0.2273,0.2267,0.2249,0.2245,0.2245,0.2245,0.2236,0.2226,0.2226,0.2217,0.2207,0.2207,0.2207,0.2192,0.215,0.2113,0.209,0.209,0.2075,0.2064,0.2064,0.2064,0.2064,0.2064,0.2042,0.2027,0.2027,0.2004,0.1989,0.1989,0.1989,0.1989,0.1989,0.2003,0.2015,0.2027,0.2039,0.2052,0.2064,0.2082,0.2087,0.1565,0.158,0.0,0.1617,0.166,0.1707,0.1735,0.1782,0.1835,0.1888,0.194,0.1988,0.2024,0.2074,0.2124,0.2172,0.2199,0.2233,0.2294,0.2296,0.229,0.229,0.2301,0.2312,0.232,0.2328,0.2333,0.2333,0.2333,0.2333,0.2333,0.2333,0.2333,0.2333,0.2333,0.2333,0.2333,0.2333,0.2333,0.2333,0.2333,0.2333,0.2333,0.2333,0.2333,0.2333,0.2333,0.2333,0.2333,0.2333,0.2333,0.2333,0.2333,0.2333,0.2333,0.2333,0.2333,0.2333,0.2333,0.2333,0.2333,0.2333,0.2333,0.2333,0.2333,0.2333,0.2333,0.2333,0.2333,0.2328,0.2308,0.2303,0.2297,0.2275,0.227,0.227,0.227,0.2263,0.2258,0.2258,0.2251,0.2245,0.2245,0.2245,0.2238,0.2215,0.2174,0.214,0.2124,0.2102,0.2089,0.2089,0.2089,0.2089,0.2089,0.2082,0.2076,0.2076,0.2068,0.2064,0.2064,0.2064,0.2064,0.2064,0.2064,0.2068,0.2076,0.2084,0.2093,0.2102,0.2132,0.2158,0.1643,0.0,0.1673,0.173,0.1768,0.1798,0.1829,0.1861,0.1892,0.1924,0.1955,0.1994,0.2052,0.2089,0.2139,0.2228,0.2244,0.2264,0.2323,0.2308,0.229,0.229,0.2266,0.226,0.0,0.2316,0.2333,0.2333,0.2333,0.2333,0.2333,0.2333,0.2333,0.2333,0.2333,0.2333,0.2333,0.2333,0.2333,0.2333,0.2333,0.2333,0.2333,0.2333,0.2333,0.2333,0.2333,0.2333,0.2333,0.2333,0.2333,0.2333,0.2333,0.2333,0.2333,0.2333,0.2333,0.2333,0.2333,0.2333,0.2333,0.2333,0.2333,0.2333,0.2333,0.2333,0.2333,0.2333,0.2333,0.2333,0.2331,0.2331,0.2331,0.233,0.233,0.233,0.233,0.2308,0.2289,0.2289,0.2266,0.2245,0.2245,0.2245,0.2245,0.2244,0.2243,0.2219,0.2161,0.2153,0.2151,0.2151,0.2151,0.2151,0.2151,0.2125,0.2108,0.2108,0.208,0.2064,0.2064,0.2064,0.2064,0.2064,0.2064,0.2079,0.2108,0.2138,0.2168,0.2196,0.2228,0.2241,0.1651,0.0,0.1755,0.1775,0.1817,0.1864,0.1894,0.1909,0.193,0.1979,0.1997,0.2016,0.2057,0.2089,0.2125,0.2177,0.2219,0.2259,0.23,0.2313,0.2304,0.2266,0.227,0.0,0.0,0.0,0.0,0.2331,0.2333,0.2333,0.2333,0.2333,0.2333,0.2333,0.2333,0.2333,0.2333,0.2333,0.2333,0.2333,0.2353,0.2373,0.2393,0.2393,0.2393,0.2391,0.2372,0.2363,0.2361,0.2341,0.2333,0.2333,0.2333,0.2333,0.2333,0.2333,0.2333,0.2333,0.2333,0.2333,0.2333,0.2333,0.2333,0.2333,0.2333,0.2333,0.2333,0.2333,0.2333,0.2333,0.2333,0.2333,0.2333,0.2333,0.2333,0.2333,0.2333,0.2326,0.2319,0.2319,0.2311,0.2304,0.2304,0.2304,0.2297,0.2278,0.2259,0.223,0.2189,0.2185,0.2177,0.2157,0.2155,0.2155,0.2155,0.2146,0.2139,0.2139,0.2129,0.2124,0.2124,0.2124,0.2124,0.2124,0.2144,0.2159,0.2169,0.22,0.2221,0.223,0.224,0.2256,0.1696,0.176,0.1816,0.1838,0.1873,0.191,0.194,0.1947,0.1955,0.1982,0.1996,0.2007,0.2015,0.2049,0.209,0.2132,0.2189,0.2244,0.2285,0.2307,0.2304,0.2266,0.2268,0.2271,0.0,0.0,0.0,0.2331,0.2333,0.2333,0.2333,0.2333,0.2333,0.2333,0.2343,0.2349,0.2349,0.236,0.2365,0.2365,0.2386,0.2405,0.2424,0.2424,0.2424,0.2423,0.2403,0.2394,0.2393,0.2373,0.2365,0.2365,0.2365,0.2358,0.2349,0.2349,0.2342,0.2333,0.2333,0.2333,0.2333,0.2333,0.2333,0.2333,0.2333,0.2333,0.2333,0.2333,0.2333,0.2333,0.2333,0.2333,0.2333,0.2333,0.2333,0.2333,0.2333,0.2333,0.2333,0.2333,0.2333,0.2333,0.2333,0.2333,0.2326,0.2308,0.2289,0.2262,0.2221,0.2217,0.2208,0.2189,0.2187,0.2187,0.2187,0.2187,0.2187,0.2187,0.2187,0.2187,0.2187,0.2187,0.2187,0.2187,0.2206,0.2217,0.2217,0.2247,0.2262,0.2262,0.2273,0.2288,0.1774,0.1821,0.1861,0.1917,0.1933,0.1943,0.1969,0.1974,0.1964,0.1933,0.1949,0.196,0.0,0.0,0.2034,0.2094,0.2158,0.2221,0.2279,0.2292,0.2293,0.0,0.0,0.0,0.0,0.0,0.0,0.2331,0.0,0.2333,0.2333,0.2334,0.2335,0.2335,0.2364,0.238,0.238,0.2409,0.2424,0.2425,0.2425,0.2427,0.2428,0.2428,0.2428,0.2428,0.2427,0.2425,0.2425,0.2424,0.2424,0.2424,0.2424,0.2406,0.238,0.238,0.2363,0.2337,0.2335,0.2334,0.2333,0.2333,0.2333,0.2333,0.2333,0.2333,0.2333,0.2333,0.2333,0.2333,0.2333,0.2333,0.2333,0.2333,0.2333,0.2333,0.2333,0.2333,0.2333,0.2333,0.2333,0.2333,0.2333,0.2333,0.2333,0.2333,0.2333,0.2312,0.2255,0.2248,0.2247,0.2245,0.2245,0.2245,0.2245,0.2245,0.2245,0.2245,0.2245,0.2245,0.2245,0.2245,0.2245,0.2245,0.2247,0.2248,0.2248,0.2278,0.2293,0.2293,0.232,0.2333,0.181,0.1884,0.194,0.1933,0.1964,0.1986,0.1951,0.1943,0.1928,0.1874,0.1869,0.1873,0.0,0.0,0.0,0.2033,0.2131,0.0,0.2252,0.2294,0.0,0.2293,0.0,0.2282,0.229,0.229,0.0,0.0,0.2333,0.2333,0.2333,0.2354,0.2367,0.2367,0.2395,0.2412,0.2412,0.242,0.2435,0.2458,0.2458,0.2469,0.2491,0.2491,0.2491,0.2489,0.2467,0.2458,0.2455,0.2433,0.2424,0.2424,0.2424,0.2418,0.2412,0.2412,0.2408,0.2397,0.2375,0.2352,0.2333,0.2333,0.2333,0.2333,0.2333,0.2333,0.2333,0.2333,0.2333,0.2333,0.2333,0.2333,0.2333,0.2333,0.2333,0.2333,0.2333,0.2333,0.2333,0.2333,0.2333,0.2333,0.2333,0.2333,0.2333,0.2333,0.2333,0.232,0.2283,0.2279,0.2271,0.2248,0.2245,0.2245,0.2245,0.2245,0.2245,0.2245,0.2245,0.2245,0.2245,0.2245,0.2245,0.2245,0.2267,0.2279,0.2279,0.2308,0.2322,0.2322,0.233,0.2333,0.1884,0.1947,0.199,0.1974,0.1994,0.2003,0.1944,0.1921,0.1894,0.1834,0.181,0.0,0.1783,0.0,0.0,0.0,0.0,0.0,0.2238,0.2296,0.2327,0.0,0.2309,0.0,0.2309,0.2309,0.2316,0.0,0.2333,0.2338,0.2352,0.2369,0.2384,0.2398,0.2428,0.245,0.2463,0.2463,0.2472,0.2489,0.2489,0.2497,0.2514,0.2514,0.2514,0.2514,0.0,0.2489,0.2488,0.247,0.2463,0.2463,0.2463,0.2455,0.2443,0.2443,0.2435,0.2421,0.2403,0.2387,0.2368,0.2341,0.2333,0.2333,0.2333,0.2333,0.2333,0.2333,0.2333,0.2333,0.2333,0.2333,0.2333,0.2333,0.2333,0.2333,0.2333,0.2333,0.2333,0.2333,0.2333,0.2333,0.2333,0.2333,0.2333,0.2333,0.2333,0.2327,0.2311,0.2309,0.2303,0.2286,0.2283,0.2283,0.2283,0.2283,0.2283,0.2283,0.2283,0.2283,0.2283,0.2283,0.2283,0.2283,0.2301,0.2309,0.2309,0.2324,0.2333,0.2333,0.2333,0.2333,0.1967,0.2005,0.2029,0.202,0.2019,0.2001,0.1934,0.1892,0.185,0.1785,0.0,0.1719,0.1697,0.1764,0.1844,0.1914,0.0,0.2165,0.223,0.229,0.2328,0.2333,0.2333,0.2333,0.2333,0.2333,0.2334,0.2338,0.2338,0.235,0.2376,0.2386,0.2403,0.2435,0.2461,0.2488,0.2514,0.2514,0.2514,0.2514,0.2514,0.2514,0.2514,0.2514,0.2514,0.2514,0.0,0.0,0.2514,0.2514,0.2514,0.2514,0.2514,0.2499,0.2474,0.2474,0.2458,0.2435,0.2431,0.2429,0.242,0.2363,0.2345,0.2345,0.2345,0.2345,0.2345,0.2345,0.2345,0.2345,0.2345,0.2342,0.2338,0.2338,0.2335,0.2333,0.2333,0.2333,0.2333,0.2333,0.2333,0.2333,0.2333,0.2333,0.2333,0.2333,0.2333,0.2333,0.2333,0.2333,0.2333,0.2333,0.2333,0.2333,0.2333,0.2333,0.2333,0.2333,0.2333,0.2333,0.2333,0.2333,0.2333,0.2333,0.2333,0.2333,0.2333,0.2333,0.2333,0.2333,0.2333,0.2333,0.2003,0.2052,0.2082,0.2031,0.2019,0.199,0.1881,0.1813,0.0,0.0,0.1624,0.1609,0.1628,0.1685,0.1764,0.1876,0.0,0.0,0.0,0.0,0.2307,0.0,0.0,0.0,0.0,0.0,0.0,0.0,0.0,0.0,0.2378,0.2427,0.2467,0.2497,0.2504,0.2508,0.2514,0.2514,0.2514,0.2514,0.2514,0.2514,0.2514,0.2514,0.2514,0.2514,0.0,0.0,0.2514,0.2514,0.2514,0.2514,0.2514,0.2511,0.2506,0.2506,0.2503,0.2495,0.247,0.2461,0.2455,0.242,0.2408,0.2408,0.2408,0.2408,0.2408,0.2408,0.2408,0.2408,0.2408,0.2388,0.2371,0.2371,0.235,0.2333,0.2333,0.2333,0.2333,0.2333,0.2333,0.2333,0.2333,0.2333,0.2333,0.2333,0.2333,0.2333,0.2333,0.2333,0.2333,0.2333,0.2333,0.2333,0.2333,0.2333,0.2333,0.2333,0.2333,0.2333,0.2333,0.2333,0.2333,0.2333,0.2333,0.2333,0.2333,0.2333,0.2333,0.2333,0.2333,0.2333,0.2034,0.2075,0.2098,0.2053,0.203,0.1988,0.1868,0.0,0.0,0.0,0.158,0.1557,0.1587,0.1654,0.0,0.0,0.0,0.0,0.0,0.0,0.0,0.0,0.0,0.0,0.0,0.0,0.0,0.0,0.0,0.0,0.2425,0.2469,0.2499,0.2514,0.2514,0.2514,0.2514,0.2514,0.2514,0.2514,0.2514,0.2514,0.2514,0.2514,0.2514,0.2514,0.2514,0.0,0.2514,0.2514,0.2514,0.2514,0.2514,0.2514,0.2514,0.2514,0.2514,0.2512,0.2497,0.2492,0.2491,0.2476,0.245,0.2424,0.2424,0.2424,0.2424,0.2424,0.2424,0.2424,0.2424,0.2413,0.2402,0.2402,0.2391,0.238,0.238,0.238,0.238,0.238,0.2367,0.2357,0.2357,0.2343,0.2333,0.2333,0.2333,0.2333,0.2333,0.2333,0.2333,0.2333,0.2333,0.2333,0.2333,0.2333,0.2333,0.2333,0.2333,0.2333,0.2333,0.2333,0.2333,0.2333,0.2333,0.2333,0.2333,0.2333,0.2333,0.2333,0.2349,0.2357,0.2056,0.2091,0.211,0.2074,0.2037,0.1978,0.1858,0.1756,0.0,0.0,0.1549,0.1517,0.1555,0.0,0.17,0.0,0.1921,0.2041,0.0,0.0,0.0,0.0,0.0,0.0,0.0,0.0,0.0,0.0,0.0,0.0,0.2478,0.2502,0.2514,0.2514,0.2514,0.2514,0.2514,0.2514,0.2514,0.2514,0.2514,0.2514,0.2514,0.2514,0.2514,0.2514,0.2514,0.0,0.0,0.2514,0.2514,0.2514,0.2514,0.2514,0.2514,0.2514,0.2514,0.2514,0.2514,0.2514,0.2514,0.2514,0.2481,0.2443,0.2443,0.2443,0.2443,0.2443,0.2443,0.2443,0.2443,0.2438,0.2432,0.2425,0.2424,0.2424,0.2424,0.2424,0.2424,0.2424,0.2405,0.2388,0.2388,0.2368,0.235,0.2343,0.2342,0.2339,0.2334,0.2333,0.2333,0.2333,0.2333,0.2333,0.2333,0.2333,0.2333,0.2333,0.2333,0.2333,0.2333,0.2333,0.2333,0.2333,0.2333,0.2335,0.2342,0.2342,0.2346,0.2353,0.2376,0.2388,0.2056,0.2106,0.2136,0.2079,0.2022,0.1948,0.1827,0.0,0.1607,0.1547,0.1486,0.1461,0.152,0.156,0.0,0.0,0.0,0.1932,0.0,0.0,0.0,0.0,0.0,0.0,0.0,0.0,0.0,0.0,0.0,0.0,0.0,0.2512,0.2514,0.2514,0.2514,0.2514,0.2514,0.2514,0.2514,0.2514,0.2514,0.2514,0.2514,0.2514,0.2514,0.2514,0.0,0.0,0.0,0.2514,0.2514,0.2514,0.2514,0.2514,0.2514,0.2514,0.2514,0.2514,0.2514,0.2514,0.2514,0.2514,0.251,0.2506,0.2506,0.2506,0.2506,0.2506,0.2506,0.2506,0.2506,0.2485,0.2458,0.2431,0.2424,0.2424,0.2424,0.2424,0.2424,0.2424,0.2421,0.242,0.242,0.2417,0.2406,0.2378,0.2373,0.2364,0.2337,0.2333,0.2333,0.2333,0.2333,0.2333,0.2333,0.2333,0.2333,0.2333,0.2333,0.2333,0.2333,0.2333,0.2333,0.2333,0.2333,0.2346,0.2373,0.2373,0.2388,0.2416,0.2418,0.242,0.2003,0.2054,0.209,0.2048,0.1993,0.1917,0.1795,0.0,0.1595,0.1515,0.1466,0.1453,0.1515,0.1551,0.1605,0.1705,0.1798,0.1884,0.1955,0.0,0.0,0.0,0.0,0.0,0.0,0.0,0.0,0.0,0.0,0.0,0.0,0.2514,0.2514,0.2514,0.2514,0.2514,0.2514,0.2514,0.2514,0.2514,0.2514,0.2514,0.2514,0.2514,0.2514,0.2514,0.0,0.0,0.0,0.2514,0.2514,0.2514,0.2514,0.2514,0.2514,0.2514,0.2514,0.2514,0.2514,0.2514,0.2514,0.2514,0.2514,0.2514,0.2514,0.2514,0.2514,0.2514,0.2514,0.2514,0.2514,0.2506,0.2493,0.2481,0.2478,0.2478,0.2478,0.2478,0.2478,0.2478,0.2463,0.2451,0.2451,0.2436,0.242,0.2408,0.2405,0.2401,0.2239,0.2238,0.2387,0.2387,0.2354,0.2333,0.2333,0.2333,0.2333,0.2333,0.2333,0.2333,0.2333,0.2333,0.2342,0.236,0.236,0.2375,0.2405,0.2405,0.2412,0.2424,0.2443,0.2451,0.1963,0.2007,0.2033,0.2011,0.1955,0.1874,0.0,0.0,0.158,0.1498,0.1456,0.1451,0.1502,0.1538,0.1587,0.1677,0.1768,0.1849,0.1909,0.2012,0.0,0.0,0.0,0.0,0.0,0.0,0.0,0.0,0.0,0.0,0.0,0.2514,0.2514,0.2514,0.2514,0.2514,0.2514,0.2514,0.2514,0.2514,0.2514,0.2519,0.2527,0.2527,0.2527,0.2527,0.0,0.0,0.0,0.2514,0.2519,0.2527,0.2527,0.2533,0.254,0.254,0.254,0.254,0.253,0.2527,0.2526,0.2517,0.2514,0.2514,0.2514,0.2514,0.2514,0.2514,0.2514,0.2514,0.2514,0.2514,0.2514,0.2514,0.2514,0.2514,0.2514,0.2514,0.2514,0.2514,0.2497,0.2482,0.2482,0.2465,0.2447,0.2438,0.2436,0.2281,0.2272,0.2272,0.2424,0.2424,0.2386,0.236,0.236,0.236,0.236,0.236,0.236,0.236,0.236,0.236,0.2369,0.2391,0.2391,0.2406,0.2436,0.2436,0.2442,0.2451,0.2473,0.2487,0.1952,0.1977,0.1977,0.1977,0.1909,0.1817,0.0,0.0,0.1554,0.1493,0.1456,0.1445,0.1475,0.1506,0.1557,0.1648,0.1737,0.1817,0.1877,0.1963,0.0,0.0,0.0,0.0,0.0,0.0,0.0,0.0,0.0,0.0,0.0,0.2514,0.2514,0.2514,0.2514,0.2514,0.2514,0.2514,0.2514,0.2514,0.2514,0.253,0.2559,0.2559,0.2559,0.0,0.0,0.0,0.0,0.2514,0.2532,0.2559,0.2559,0.2577,0.2601,0.2601,0.2601,0.2597,0.2568,0.2559,0.2555,0.2523,0.2514,0.2514,0.2514,0.2514,0.2514,0.2514,0.2514,0.2514,0.2514,0.2514,0.2514,0.2514,0.2514,0.2514,0.2514,0.2514,0.2514,0.2514,0.2514,0.2514,0.2514,0.2514,0.2503,0.2473,0.2469,0.2458,0.2428,0.2424,0.2424,0.2424,0.2423,0.2423,0.2423,0.2423,0.2423,0.2423,0.2423,0.2423,0.2423,0.2423,0.2423,0.2423,0.2423,0.2438,0.2469,0.2469,0.2484,0.2514,0.2514,0.253,0.1828,0.1853,0.1857,0.1879,0.1831,0.1755,0.1665,0.1607,0.1549,0.1467,0.1442,0.1445,0.1475,0.1505,0.1555,0.1647,0.1719,0.1793,0.1874,0.0,0.0,0.0,0.0,0.0,0.0,0.0,0.0,0.0,0.0,0.0,0.0,0.2514,0.2514,0.2514,0.2514,0.2514,0.2514,0.2534,0.2545,0.2545,0.2564,0.2579,0.2589,0.2589,0.0,0.0,0.0,0.0,0.0,0.2574,0.2579,0.2589,0.2589,0.2594,0.2601,0.2601,0.2601,0.26,0.2592,0.2589,0.2586,0.2577,0.2574,0.2574,0.2574,0.2547,0.2514,0.2514,0.2514,0.2514,0.2514,0.2514,0.2519,0.2541,0.2545,0.2551,0.257,0.2574,0.2574,0.2574,0.2559,0.2545,0.2545,0.2527,0.2511,0.2502,0.25,0.2496,0.2487,0.2485,0.2485,0.2485,0.2485,0.2469,0.2427,0.2424,0.2424,0.2424,0.2424,0.2424,0.2424,0.2424,0.2433,0.2454,0.2455,0.247,0.25,0.25,0.2515,0.2545,0.2564,0.2579,0.1711,0.1737,0.1735,0.1765,0.1727,0.1665,0.1598,0.0,0.1517,0.1449,0.1436,0.1441,0.146,0.1498,0.1553,0.1632,0.1714,0.1798,0.1889,0.0,0.0,0.0,0.0,0.0,0.0,0.0,0.0,0.0,0.0,0.0,0.0,0.0,0.2514,0.2514,0.2514,0.2514,0.2514,0.2544,0.256,0.256,0.2589,0.2608,0.2619,0.2619,0.0,0.0,0.0,0.0,0.0,0.2601,0.2608,0.2619,0.2619,0.2626,0.2635,0.2635,0.2635,0.2634,0.2623,0.2619,0.2617,0.2605,0.2601,0.2601,0.2601,0.2577,0.2547,0.2547,0.2547,0.2547,0.2547,0.2547,0.2552,0.2571,0.2575,0.2581,0.2598,0.2601,0.2601,0.2601,0.2587,0.2575,0.2575,0.256,0.2547,0.2547,0.2547,0.2544,0.2533,0.2532,0.2527,0.2515,0.2514,0.2503,0.2477,0.2465,0.2458,0.2458,0.2458,0.2458,0.2458,0.2458,0.2466,0.2485,0.2497,0.2512,0.2532,0.2542,0.2557,0.2577,0.2605,0.2619,0.0,0.1625,0.1615,0.1648,0.1611,0.1561,0.153,0.0,0.0,0.1441,0.1436,0.1436,0.1436,0.1485,0.1546,0.1607,0.1718,0.1827,0.1918,0.2014,0.0,0.0,0.0,0.0,0.0,0.0,0.0,0.0,0.0,0.0,0.0,0.0,0.2514,0.2514,0.2514,0.2514,0.2514,0.2544,0.256,0.2563,0.2592,0.262,0.265,0.265,0.0,0.0,0.0,0.0,0.0,0.2608,0.2624,0.265,0.265,0.2668,0.2692,0.2692,0.2692,0.2688,0.266,0.265,0.2646,0.2617,0.2608,0.2608,0.2608,0.2605,0.2601,0.2601,0.2601,0.2601,0.2601,0.2601,0.2602,0.2604,0.2605,0.2605,0.2608,0.2608,0.2608,0.2608,0.2607,0.2605,0.2605,0.2602,0.2601,0.2601,0.2601,0.2592,0.2566,0.2563,0.2552,0.2523,0.2521,0.2532,0.256,0.2534,0.2518,0.2521,0.2521,0.2521,0.2521,0.2521,0.2521,0.2521,0.2548,0.2563,0.2563,0.2592,0.2605,0.2605,0.2637,0.265,0.143,0.0,0.1525,0.158,0.1565,0.1528,0.0,0.1486,0.0,0.0,0.0,0.1436,0.1436,0.1485,0.1546,0.1607,0.1718,0.1827,0.1918,0.0,0.0,0.0,0.0,0.0,0.0,0.0,0.0,0.0,0.0,0.0,0.0,0.0,0.2514,0.2514,0.2514,0.2514,0.2514,0.2544,0.2571,0.2592,0.2622,0.2652,0.2682,0.2682,0.0,0.0,0.0,0.0,0.2671,0.2671,0.2675,0.2682,0.2682,0.2686,0.2692,0.2692,0.2692,0.2691,0.2684,0.2682,0.268,0.2673,0.2671,0.2671,0.2671,0.2639,0.2601,0.2601,0.2601,0.2601,0.2601,0.2601,0.2608,0.2631,0.2637,0.2643,0.2665,0.2671,0.2671,0.2671,0.2653,0.2637,0.2637,0.2617,0.2601,0.2601,0.2601,0.26,0.2593,0.2592,0.2589,0.2582,0.2581,0.2585,0.2592,0.2566,0.2559,0.2579,0.2581,0.2581,0.2581,0.2581,0.2581,0.2581,0.2587,0.2592,0.2592,0.2622,0.2637,0.2637,0.2668,0.2682,0.1355,0.1404,0.1451,0.1497,0.1497,0.148,0.1464,0.146,0.0,0.0,0.0,0.1456,0.1456,0.1517,0.1587,0.1647,0.1757,0.0,0.0,0.0,0.0,0.0,0.0,0.0,0.0,0.0,0.0,0.0,0.0,0.0,0.0,0.0,0.2514,0.2514,0.2514,0.2514,0.2514,0.2544,0.2567,0.2583,0.2627,0.2656,0.2672,0.2686,0.0,0.0,0.0,0.0,0.2692,0.2692,0.2692,0.2692,0.2692,0.2692,0.2692,0.2692,0.2692,0.2692,0.2692,0.2692,0.2692,0.2692,0.2692,0.2692,0.2692,0.2669,0.2643,0.2643,0.2643,0.2643,0.2643,0.2643,0.2647,0.2664,0.2668,0.2672,0.2688,0.2692,0.2692,0.2692,0.2679,0.2668,0.2668,0.2654,0.2643,0.2643,0.2643,0.2638,0.2624,0.2623,0.2617,0.2602,0.2601,0.2607,0.2622,0.2608,0.26,0.2601,0.2601,0.2601,0.2601,0.2601,0.2608,0.2622,0.2623,0.263,0.2643,0.266,0.2668,0.2668,0.2684,0.2692,0.1332,0.1369,0.1399,0.1434,0.1445,0.1449,0.1449,0.0,0.0,0.0,0.0,0.0,0.0,0.1565,0.0,0.0,0.0,0.0,0.0,0.0,0.0,0.0,0.0,0.0,0.0,0.0,0.0,0.0,0.0,0.0,0.0,0.0,0.0,0.2514,0.2514,0.2514,0.2514,0.254,0.2555,0.256,0.2611,0.2635,0.2641,0.2672,0.0,0.0,0.0,0.0,0.2692,0.2692,0.2692,0.2692,0.2692,0.2692,0.2692,0.2692,0.2692,0.2692,0.2692,0.2692,0.2692,0.2692,0.2692,0.2692,0.2692,0.2692,0.2692,0.2692,0.2692,0.2692,0.2692,0.2692,0.2692,0.2692,0.2692,0.2692,0.2692,0.2692,0.2692,0.2692,0.2692,0.2692,0.2692,0.2692,0.2692,0.2692,0.2692,0.2683,0.2657,0.2654,0.2645,0.2619,0.2616,0.2626,0.2652,0.2654,0.2643,0.2617,0.2616,0.2616,0.2616,0.2616,0.2627,0.2653,0.2654,0.2667,0.2692,0.2692,0.2695,0.2699,0.2699,0.2702,0.1332,0.1369,0.1404,0.146,0.1493,0.1512,0.1512,0.1512,0.0,0.0,0.0,0.0,0.0,0.0,0.0,0.0,0.0,0.0,0.0,0.0,0.0,0.0,0.0,0.0,0.0,0.0,0.0,0.0,0.0,0.0,0.0,0.0,0.0,0.2514,0.2514,0.2514,0.2514,0.2519,0.2534,0.256,0.2568,0.2586,0.2609,0.2641,0.2654,0.0,0.0,0.2692,0.2692,0.2692,0.2692,0.2692,0.2692,0.2692,0.2692,0.2692,0.2692,0.2692,0.2692,0.2692,0.2692,0.2692,0.2692,0.2692,0.2692,0.2692,0.2692,0.2692,0.2692,0.2692,0.2692,0.2692,0.2692,0.2692,0.2692,0.2692,0.2692,0.2692,0.2692,0.2692,0.2692,0.2692,0.2692,0.2692,0.2692,0.2692,0.2692,0.2691,0.2686,0.2686,0.2684,0.2679,0.2679,0.268,0.2686,0.2686,0.2683,0.2679,0.2679,0.2679,0.2679,0.2679,0.268,0.2686,0.2686,0.2688,0.2692,0.2692,0.2706,0.2731,0.2731,0.2744,0.1336,0.1392,0.1449,0.1494,0.1516,0.153,0.1547,0.0,0.0,0.0,0.0,0.0,0.0,0.0,0.0,0.0,0.0,0.0,0.0,0.0,0.0,0.0,0.0,0.0,0.0,0.0,0.0,0.0,0.0,0.0,0.0,0.0,0.0,0.0,0.2514,0.2514,0.2514,0.2514,0.2521,0.2536,0.2552,0.2567,0.2579,0.2609,0.2631,0.2647,0.0,0.2677,0.2692,0.2692,0.2692,0.2692,0.3029,0.3029,0.3029,0.3365,0.3363,0.3363,0.3363,0.3363,0.3363,0.3197,0.3197,0.3197,0.2861,0.2692,0.2692,0.2692,0.2692,0.2692,0.2692,0.2692,0.2692,0.2692,0.2692,0.2692,0.2692,0.2692,0.2692,0.2692,0.2692,0.2692,0.2692,0.2692,0.2692,0.2692,0.2692,0.2692,0.2692,0.2692,0.2692,0.2692,0.2692,0.2692,0.2692,0.2692,0.2692,0.2692,0.2692,0.2692,0.2692,0.2692,0.2692,0.2692,0.2692,0.2701,0.2717,0.2717,0.2732,0.2762,0.2762,0.277,0.1347,0.1412,0.1479,0.1516,0.1542,0.1566,0.1595,0.0,0.0,0.0,0.0,0.0,0.0,0.0,0.0,0.0,0.0,0.0,0.0,0.0,0.0,0.0,0.0,0.0,0.0,0.0,0.0,0.0,0.0,0.0,0.0,0.0,0.0,0.0,0.2514,0.2514,0.2514,0.2514,0.2514,0.2515,0.2538,0.2549,0.2549,0.2578,0.2604,0.2627,0.2641,0.266,0.2683,0.269,0.2692,0.2861,0.3199,0.3533,0.3533,0.3868,0.4036,0.4036,0.4036,0.4036,0.3868,0.3533,0.3365,0.3365,0.2861,0.2692,0.2692,0.2692,0.2692,0.2692,0.2692,0.2692,0.2692,0.2692,0.2692,0.2692,0.2692,0.2698,0.2703,0.2703,0.2709,0.2714,0.2714,0.2714,0.2714,0.2714,0.2714,0.2714,0.2714,0.2714,0.2714,0.2714,0.2714,0.2714,0.2714,0.2714,0.2714,0.2714,0.2707,0.2706,0.2713,0.2714,0.2714,0.2714,0.2714,0.2725,0.2748,0.2748,0.2763,0.2793,0.2793,0.2797,0.1371,0.1412,0.1453,0.1512,0.159,0.0,0.1688,0.1716,0.0,0.1776,0.0,0.0,0.0,0.0,0.0,0.0,0.0,0.0,0.0,0.0,0.0,0.0,0.0,0.0,0.0,0.0,0.0,0.0,0.0,0.0,0.0,0.0,0.0,0.0,0.0,0.2514,0.2514,0.2514,0.2514,0.2514,0.2517,0.2518,0.2518,0.2549,0.2564,0.257,0.2623,0.2649,0.2653,0.2682,0.3029,0.3367,0.3367,0.3701,0.4036,0.4036,0.4036,0.4036,0.4036,0.3868,0.3698,0.3532,0.3194,0.269,0.269,0.2691,0.2692,0.2692,0.2692,0.2692,0.2692,0.2692,0.2692,0.2692,0.2692,0.2692,0.2692,0.2714,0.2906,0.2735,0.2758,0.2777,0.2777,0.2777,0.2777,0.2777,0.2777,0.2777,0.2777,0.2777,0.2777,0.2777,0.2777,0.2777,0.2777,0.2777,0.2777,0.2777,0.275,0.2747,0.2776,0.2777,0.2777,0.2777,0.2777,0.2777,0.278,0.278,0.2796,0.2826,0.2826,0.2841,0.1384,0.144,0.1502,0.1543,0.1636,0.0,0.0,0.1771,0.182,0.0,0.0,0.0,0.0,0.0,0.0,0.0,0.0,0.0,0.0,0.0,0.0,0.0,0.0,0.0,0.0,0.0,0.0,0.0,0.0,0.0,0.0,0.0,0.0,0.0,0.0,0.2514,0.2514,0.2514,0.2514,0.2514,0.2514,0.2514,0.2515,0.2526,0.2542,0.2562,0.2601,0.263,0.2649,0.3015,0.3199,0.3535,0.4038,0.4542,0.4878,0.4878,0.4878,0.4878,0.4878,0.4878,0.471,0.471,0.4542,0.4204,0.3026,0.3532,0.4206,0.3029,0.2706,0.2885,0.2698,0.2692,0.2698,0.2885,0.2721,0.2727,0.2744,0.2758,0.2766,0.2766,0.2776,0.2784,0.2784,0.2784,0.2784,0.2784,0.2784,0.2784,0.2784,0.2784,0.2784,0.2784,0.2784,0.2784,0.2784,0.2784,0.2791,0.281,0.2782,0.2772,0.2782,0.2784,0.2784,0.2784,0.2784,0.2792,0.2811,0.2811,0.2827,0.2857,0.2857,0.2863,0.1401,0.1457,0.1521,0.0,0.0,0.0,0.1786,0.1847,0.1914,0.0,0.0,0.0,0.0,0.0,0.0,0.0,0.0,0.0,0.0,0.0,0.0,0.0,0.0,0.0,0.0,0.0,0.0,0.0,0.0,0.0,0.0,0.0,0.0,0.0,0.0,0.0,0.2514,0.2514,0.2514,0.2514,0.2514,0.2514,0.2514,0.2514,0.2526,0.2547,0.2575,0.2605,0.28,0.3166,0.3523,0.387,0.4542,0.5048,0.5384,0.5384,0.5384,0.5384,0.5384,0.5384,0.5384,0.5384,0.5384,0.5216,0.3868,0.4372,0.5216,0.387,0.3223,0.2904,0.2713,0.2714,0.2727,0.2919,0.2924,0.2758,0.2778,0.2791,0.2797,0.2797,0.2806,0.2812,0.2812,0.2812,0.2812,0.2812,0.2812,0.2812,0.2812,0.2812,0.2812,0.2812,0.2812,0.2812,0.2812,0.2812,0.2821,0.2841,0.2823,0.2812,0.2812,0.2812,0.2812,0.2812,0.2812,0.2822,0.2842,0.2842,0.2853,0.2874,0.2874,0.2874,0.1427,0.1457,0.1497,0.0,0.0,0.0,0.1866,0.1955,0.2037,0.0,0.0,0.0,0.0,0.0,0.0,0.0,0.0,0.0,0.0,0.0,0.0,0.0,0.0,0.0,0.0,0.0,0.0,0.0,0.0,0.0,0.0,0.0,0.0,0.0,0.0,0.0,0.2514,0.2514,0.2514,0.2514,0.2514,0.2514,0.2514,0.2514,0.2514,0.2517,0.2547,0.2897,0.3256,0.3294,0.383,0.4539,0.5216,0.5384,0.5384,0.5384,0.5384,0.5384,0.5384,0.5384,0.5384,0.5384,0.5384,0.5384,0.5384,0.5384,0.5384,0.5384,0.4072,0.291,0.291,0.2935,0.2784,0.2784,0.2784,0.2958,0.2784,0.2808,0.2829,0.2829,0.2853,0.2874,0.2874,0.2874,0.2874,0.2874,0.2874,0.2874,0.2874,0.2874,0.2874,0.2874,0.2874,0.2874,0.2874,0.2874,0.2874,0.2874,0.2874,0.2874,0.2874,0.2874,0.2874,0.2874,0.2874,0.2874,0.2874,0.2874,0.2874,0.2874,0.2874,0.2874,0.1459,0.1505,0.0,0.1645,0.0,0.0,0.0,0.2016,0.0,0.0,0.0,0.0,0.0,0.0,0.0,0.0,0.0,0.0,0.0,0.0,0.0,0.0,0.0,0.0,0.0,0.0,0.0,0.0,0.0,0.0,0.0,0.0,0.0,0.0,0.0,0.0,0.2514,0.2514,0.2514,0.2514,0.2514,0.2514,0.2514,0.2514,0.2514,0.2517,0.2863,0.3043,0.3219,0.3774,0.4475,0.5158,0.5368,0.5384,0.5384,0.5384,0.5384,0.5384,0.5384,0.5384,0.5384,0.5384,0.5384,0.5384,0.5384,0.5384,0.5392,0.5436,0.446,0.3466,0.3493,0.3176,0.2841,0.2821,0.2815,0.2821,0.2842,0.2855,0.286,0.286,0.2868,0.2874,0.2874,0.2874,0.2874,0.2874,0.2874,0.2874,0.2874,0.2874,0.2874,0.2874,0.2874,0.2874,0.2874,0.2874,0.2874,0.2874,0.2874,0.2874,0.2874,0.2874,0.2874,0.2874,0.2874,0.2874,0.2874,0.2874,0.2874,0.2874,0.2874,0.2874,0.147,0.1525,0.0,0.1682,0.1795,0.1922,0.206,0.0,0.0,0.0,0.0,0.0,0.0,0.0,0.0,0.0,0.0,0.0,0.0,0.0,0.0,0.0,0.0,0.0,0.0,0.0,0.0,0.0,0.0,0.0,0.0,0.0,0.0,0.0,0.0,0.0,0.2514,0.2514,0.2514,0.2514,0.2514,0.2514,0.2514,0.2514,0.2514,0.2515,0.3181,0.3516,0.3681,0.4402,0.4941,0.5297,0.5335,0.5363,0.5384,0.5384,0.5384,0.5384,0.5384,0.5384,0.5384,0.5384,0.5384,0.5384,0.5384,0.5384,0.5398,0.5458,0.4827,0.4183,0.4052,0.3561,0.3047,0.3029,0.2846,0.2852,0.287,0.2874,0.2874,0.2874,0.2874,0.2874,0.2874,0.2874,0.2874,0.2874,0.2874,0.2874,0.2874,0.2874,0.2874,0.2874,0.2874,0.2874,0.2874,0.2874,0.2874,0.2874,0.2874,0.2874,0.2874,0.2874,0.2874,0.2874,0.2874,0.2874,0.2874,0.2874,0.2879,0.289,0.289,0.2897,0.1468,0.0,0.0,0.1697,0.1816,0.0,0.0,0.0,0.0,0.0,0.0,0.0,0.0,0.0,0.0,0.0,0.0,0.0,0.0,0.0,0.0,0.0,0.0,0.0,0.0,0.0,0.0,0.0,0.0,0.0,0.0,0.0,0.0,0.0,0.0,0.0,0.2514,0.2514,0.2514,0.0,0.2514,0.2514,0.2514,0.2514,0.2514,0.2672,0.3495,0.3991,0.4474,0.5008,0.5389,0.5443,0.5454,0.5327,0.5376,0.5382,0.5384,0.5384,0.5384,0.5384,0.5384,0.5384,0.5384,0.5384,0.5384,0.5384,0.5398,0.5463,0.5176,0.4707,0.4234,0.3921,0.3411,0.3053,0.2874,0.2874,0.2874,0.2874,0.2874,0.2874,0.2874,0.2874,0.2874,0.2874,0.2874,0.2874,0.2874,0.2874,0.2874,0.2874,0.2874,0.2874,0.2874,0.2874,0.2874,0.2874,0.2874,0.2874,0.2874,0.2874,0.2874,0.2874,0.2874,0.2874,0.2874,0.2875,0.2878,0.2878,0.2893,0.292,0.292,0.2935,0.15,0.1594,0.0,0.0,0.1973,0.2121,0.0,0.0,0.0,0.0,0.0,0.0,0.0,0.0,0.0,0.0,0.0,0.0,0.0,0.0,0.0,0.0,0.0,0.0,0.0,0.0,0.0,0.0,0.0,0.0,0.0,0.0,0.0,0.0,0.0,0.2491,0.2514,0.2514,0.2514,0.0,0.2514,0.2514,0.2514,0.2514,0.2828,0.314,0.3306,0.394,0.4889,0.4947,0.5139,0.5161,0.5256,0.5468,0.5319,0.5368,0.5384,0.5384,0.5384,0.5384,0.5384,0.5384,0.5384,0.5384,0.5384,0.5384,0.5406,0.5512,0.4858,0.4191,0.4273,0.3585,0.3053,0.2874,0.2874,0.2874,0.2874,0.2874,0.2874,0.2874,0.2874,0.2874,0.2874,0.2874,0.2874,0.2874,0.2874,0.2874,0.2874,0.2874,0.2874,0.2874,0.2874,0.2874,0.2874,0.2874,0.2874,0.2874,0.2874,0.2874,0.2874,0.2874,0.2874,0.2874,0.2874,0.2885,0.2906,0.2906,0.2923,0.2951,0.2951,0.2956,0.148,0.0,0.0,0.1884,0.0,0.2188,0.0,0.0,0.0,0.0,0.0,0.0,0.0,0.0,0.0,0.0,0.0,0.0,0.0,0.0,0.0,0.0,0.0,0.0,0.0,0.0,0.0,0.0,0.0,0.0,0.0,0.0,0.0,0.0,0.2461,0.2477,0.2492,0.2507,0.2514,0.2514,0.2514,0.2514,0.2514,0.2514,0.2669,0.2982,0.3297,0.4081,0.5027,0.5055,0.4926,0.496,0.5213,0.5267,0.5468,0.5363,0.5384,0.5384,0.5384,0.5384,0.5384,0.5384,0.5384,0.5384,0.5384,0.5384,0.5409,0.5526,0.5041,0.4368,0.4285,0.3769,0.3231,0.2874,0.2874,0.2874,0.2874,0.2874,0.2874,0.2874,0.2874,0.2874,0.2874,0.2874,0.2874,0.2874,0.2874,0.2874,0.2874,0.2874,0.2874,0.2874,0.2874,0.2879,0.2893,0.2894,0.29,0.2915,0.2916,0.2916,0.2916,0.2916,0.2909,0.2894,0.2894,0.2909,0.2938,0.2938,0.2953,0.2983,0.2983,0.2991,0.1448,0.0,0.1715,0.193,0.2089,0.0,0.0,0.0,0.0,0.0,0.0,0.0,0.0,0.0,0.0,0.0,0.0,0.0,0.0,0.0,0.0,0.0,0.0,0.0,0.0,0.0,0.0,0.0,0.0,0.0,0.0,0.0,0.241,0.2416,0.244,0.2455,0.2461,0.2491,0.2507,0.2507,0.2512,0.2514,0.2514,0.2514,0.2512,0.2511,0.3297,0.4084,0.5027,0.5022,0.5049,0.4944,0.5013,0.5232,0.5451,0.5357,0.5384,0.5384,0.5384,0.5384,0.5384,0.5384,0.5384,0.5384,0.5384,0.5392,0.5422,0.5529,0.5222,0.4553,0.4287,0.3949,0.3411,0.3053,0.2874,0.2874,0.2874,0.2874,0.2874,0.2874,0.2874,0.2874,0.2874,0.2874,0.2874,0.2874,0.2874,0.2874,0.2874,0.2878,0.2882,0.2882,0.2886,0.2898,0.2921,0.2924,0.2934,0.296,0.2961,0.2961,0.2961,0.2961,0.2951,0.2932,0.2927,0.2939,0.2969,0.2969,0.2984,0.3014,0.3014,0.3028,0.0,0.0,0.1876,0.0,0.2087,0.2176,0.0,0.0,0.0,0.0,0.0,0.0,0.0,0.0,0.0,0.0,0.0,0.0,0.0,0.0,0.0,0.0,0.0,0.0,0.0,0.0,0.0,0.0,0.0,0.0,0.0,0.2345,0.2357,0.2383,0.2388,0.2403,0.2429,0.2459,0.2474,0.2476,0.2502,0.2514,0.2514,0.2514,0.2512,0.2511,0.2668,0.3611,0.5027,0.5022,0.5025,0.5044,0.4997,0.5207,0.5392,0.5343,0.5384,0.5384,0.5384,0.5384,0.5384,0.5384,0.5384,0.5384,0.5384,0.5422,0.5477,0.5542,0.4898,0.4242,0.4295,0.359,0.3053,0.2874,0.2874,0.2874,0.2874,0.2874,0.2874,0.2874,0.2874,0.2874,0.2874,0.2874,0.2874,0.2874,0.2874,0.2874,0.2874,0.2896,0.2911,0.2911,0.2934,0.2951,0.2956,0.2956,0.2957,0.2961,0.2961,0.2961,0.2961,0.2961,0.2972,0.2994,0.2969,0.2971,0.3001,0.3001,0.3016,0.3046,0.3046,0.3048,0.146,0.1667,0.1853,0.0,0.205,0.2166,0.0,0.0,0.0,0.0,0.0,0.0,0.0,0.0,0.0,0.0,0.0,0.0,0.0,0.0,0.0,0.0,0.0,0.0,0.0,0.0,0.0,0.0,0.0,0.0,0.2333,0.2333,0.2339,0.2352,0.2369,0.2384,0.2398,0.2428,0.2453,0.2469,0.25,0.2514,0.2514,0.2514,0.2514,0.2512,0.2511,0.3454,0.5027,0.5025,0.5022,0.5033,0.5155,0.5202,0.5381,0.5341,0.5384,0.5384,0.5384,0.5384,0.5384,0.5384,0.5384,0.5384,0.5384,0.5428,0.5488,0.5542,0.4903,0.425,0.4295,0.3592,0.2874,0.2874,0.2874,0.2874,0.2874,0.2874,0.2874,0.2874,0.2874,0.2874,0.2874,0.2874,0.2874,0.2874,0.2874,0.2879,0.2896,0.2908,0.2923,0.2939,0.2953,0.2968,0.2986,0.2987,0.2994,0.3011,0.3013,0.3013,0.3013,0.3013,0.3018,0.3032,0.3002,0.3002,0.3032,0.3032,0.3039,0.3052,0.3052,0.3052,0.0,0.0,0.1768,0.1844,0.1981,0.2112,0.0,0.0,0.0,0.0,0.0,0.0,0.0,0.0,0.0,0.0,0.0,0.0,0.0,0.0,0.0,0.0,0.0,0.0,0.0,0.0,0.0,0.0,0.0,0.0,0.2333,0.2333,0.2333,0.2333,0.2354,0.2367,0.2367,0.2247,0.2431,0.2469,0.2492,0.2507,0.2514,0.2514,0.2514,0.2514,0.2512,0.3454,0.5027,0.5027,0.5025,0.5033,0.5155,0.5202,0.5381,0.5341,0.5384,0.5384,0.5384,0.5384,0.5384,0.5384,0.5384,0.5384,0.5384,0.5436,0.5504,0.5375,0.4915,0.4265,0.412,0.3592,0.2874,0.2874,0.2874,0.2874,0.2874,0.2874,0.2874,0.2874,0.2874,0.2874,0.2874,0.2874,0.2876,0.2883,0.2885,0.2896,0.2924,0.2934,0.2947,0.2971,0.298,0.2994,0.3017,0.3018,0.3028,0.3051,0.3052,0.3052,0.3052,0.3052,0.3052,0.3052,0.3029,0.3029,0.3052,0.3052,0.3052,0.3052,0.3052,0.3052,0.0,0.1509,0.0,0.1771,0.0,0.0,0.0,0.0,0.0,0.0,0.0,0.0,0.0,0.0,0.0,0.0,0.0,0.0,0.0,0.0,0.0,0.0,0.0,0.0,0.0,0.0,0.0,0.0,0.0,0.0,0.2333,0.2333,0.2333,0.2333,0.2334,0.2335,0.2335,0.2365,0.241,0.2469,0.247,0.2487,0.2514,0.2514,0.2514,0.2514,0.2512,0.3454,0.5027,0.5027,0.5025,0.5033,0.5155,0.5202,0.5381,0.5341,0.5384,0.5384,0.5384,0.5384,0.5384,0.5384,0.5384,0.5384,0.5384,0.5463,0.5556,0.5041,0.4589,0.4126,0.3768,0.3231,0.2874,0.2874,0.2874,0.2874,0.2874,0.2874,0.2874,0.2874,0.2874,0.2874,0.2874,0.2874,0.2883,0.2909,0.2913,0.2924,0.2956,0.2984,0.3002,0.3005,0.3031,0.3048,0.305,0.305,0.3051,0.3052,0.3052,0.3052,0.3052,0.3052,0.3052,0.3052,0.3051,0.3051,0.3052,0.3052,0.3052,0.3052,0.3052,0.3052,0.0,0.0,0.0,0.1707,0.182,0.0,0.0,0.0,0.0,0.0,0.0,0.0,0.0,0.0,0.0,0.0,0.0,0.0,0.0,0.0,0.0,0.0,0.0,0.0,0.0,0.0,0.0,0.0,0.0,0.0,0.2333,0.2333,0.2333,0.2333,0.2333,0.2333,0.2333,0.2363,0.2388,0.2412,0.245,0.2474,0.2485,0.2506,0.2514,0.2514,0.2514,0.2826,0.3454,0.3768,0.3925,0.3933,0.419,0.439,0.4404,0.4838,0.4878,0.5046,0.5216,0.5384,0.5384,0.5384,0.5384,0.5384,0.5046,0.4954,0.5041,0.452,0.4062,0.3769,0.3588,0.3231,0.2874,0.2874,0.2874,0.2874,0.2874,0.2874,0.2874,0.2874,0.2874,0.2874,0.2874,0.2889,0.2904,0.2915,0.2932,0.2956,0.2987,0.3001,0.3014,0.3033,0.3046,0.3052,0.3052,0.3052,0.3052,0.3052,0.3052,0.3052,0.3052,0.3052,0.3052,0.3052,0.3052,0.3052,0.3052,0.3052,0.3052,0.3052,0.3052,0.3052,0.1295,0.0,0.0,0.0,0.0,0.0,0.0,0.0,0.0,0.0,0.0,0.0,0.0,0.0,0.0,0.0,0.0,0.0,0.0,0.0,0.0,0.0,0.0,0.0,0.0,0.0,0.0,0.0,0.0,0.0,0.2333,0.2333,0.2333,0.2333,0.2333,0.2333,0.2333,0.2353,0.2368,0.2379,0.2418,0.2448,0.247,0.2489,0.2504,0.2514,0.2514,0.2669,0.2825,0.3297,0.3454,0.3619,0.3868,0.3905,0.3915,0.4336,0.4542,0.471,0.5046,0.5216,0.5384,0.5384,0.5216,0.5048,0.4878,0.4613,0.452,0.3999,0.3709,0.359,0.3411,0.3053,0.2874,0.2874,0.2874,0.2874,0.2874,0.2874,0.2874,0.2874,0.2874,0.2876,0.2886,0.2904,0.2923,0.2943,0.2964,0.2987,0.3018,0.3022,0.3029,0.305,0.3052,0.3052,0.3052,0.3052,0.3052,0.3052,0.3052,0.3052,0.3052,0.3052,0.3052,0.3052,0.3052,0.3052,0.3052,0.3052,0.3052,0.3052,0.3052,0.3052,0.0,0.0,0.0,0.0,0.0,0.0,0.0,0.0,0.0,0.0,0.0,0.0,0.0,0.0,0.0,0.0,0.0,0.0,0.0,0.0,0.0,0.0,0.0,0.0,0.0,0.0,0.0,0.0,0.0,0.2333,0.2333,0.2333,0.2333,0.2333,0.2333,0.2333,0.2333,0.2333,0.2348,0.2376,0.2378,0.2409,0.2467,0.2469,0.2485,0.2514,0.2514,0.2828,0.3297,0.3297,0.3454,0.3778,0.3868,0.3905,0.3915,0.4003,0.4204,0.471,0.471,0.5046,0.5384,0.5384,0.5046,0.471,0.471,0.4442,0.3999,0.3653,0.3532,0.3411,0.3053,0.2874,0.2874,0.2874,0.2874,0.2874,0.2874,0.2874,0.2874,0.2874,0.2874,0.2883,0.2911,0.2916,0.2938,0.2998,0.3007,0.3018,0.3048,0.3052,0.3052,0.3052,0.3052,0.3052,0.3052,0.3052,0.3052,0.3052,0.3052,0.3052,0.3052,0.3052,0.3052,0.3052,0.3052,0.3052,0.3052,0.3052,0.3052,0.3052,0.3052,0.3052,0.128,0.0,0.0,0.0,0.0,0.0,0.0,0.1817,0.0,0.0,0.0,0.0,0.0,0.0,0.0,0.0,0.0,0.0,0.0,0.0,0.0,0.0,0.0,0.0,0.0,0.0,0.0,0.0,0.2333,0.2333,0.2333,0.2333,0.2333,0.2333,0.2333,0.2333,0.2333,0.2333,0.2337,0.2346,0.2368,0.2398,0.2436,0.2459,0.2485,0.2514,0.2514,0.2671,0.2671,0.2671,0.2828,0.2834,0.2902,0.2928,0.2935,0.3338,0.3701,0.387,0.4036,0.4204,0.4372,0.4372,0.4372,0.4204,0.387,0.376,0.3653,0.3132,0.3004,0.3053,0.2874,0.2874,0.2874,0.2874,0.2874,0.2874,0.2874,0.2874,0.2874,0.2874,0.2874,0.2883,0.2911,0.2934,0.2962,0.3001,0.3025,0.3043,0.3051,0.3052,0.3052,0.3052,0.3052,0.3052,0.3052,0.3052,0.3052,0.3052,0.3052,0.3052,0.3052,0.3052,0.3052,0.3052,0.3052,0.3052,0.3052,0.3052,0.3052,0.3052,0.3052,0.3052,0.0,0.0,0.0,0.0,0.0,0.0,0.162,0.1714,0.1808,0.0,0.0,0.0,0.0,0.0,0.0,0.0,0.0,0.0,0.0,0.0,0.0,0.0,0.0,0.0,0.0,0.0,0.0,0.0,0.2333,0.2333,0.2333,0.2333,0.2333,0.2333,0.2333,0.2333,0.2333,0.2333,0.2333,0.2333,0.235,0.2375,0.2406,0.2436,0.2466,0.2496,0.2508,0.2514,0.2514,0.2514,0.2514,0.2521,0.2579,0.2601,0.2609,0.3004,0.3197,0.3365,0.3701,0.3868,0.4036,0.4036,0.3868,0.3705,0.3555,0.326,0.3135,0.2799,0.2837,0.2874,0.2874,0.2874,0.2874,0.2874,0.2874,0.2874,0.2874,0.2874,0.2874,0.2874,0.2883,0.2901,0.293,0.296,0.2991,0.3021,0.304,0.3052,0.3052,0.3052,0.3052,0.3052,0.3052,0.3052,0.3052,0.3052,0.3052,0.3052,0.3052,0.3052,0.3052,0.3052,0.3052,0.3052,0.3052,0.3052,0.3052,0.3052,0.3052,0.3052,0.3052,0.3052,0.0,0.0,0.0,0.0,0.0,0.0,0.1525,0.1599,0.1685,0.0,0.0,0.0,0.0,0.0,0.0,0.0,0.0,0.0,0.0,0.0,0.0,0.0,0.0,0.0,0.0,0.0,0.2333,0.2333,0.2333,0.2333,0.2333,0.2333,0.2333,0.2333,0.2333,0.2333,0.2333,0.2333,0.2333,0.2333,0.2333,0.2349,0.2379,0.2409,0.244,0.247,0.2502,0.2514,0.2514,0.2514,0.2514,0.2521,0.2579,0.2601,0.2609,0.2671,0.3029,0.3367,0.3367,0.3533,0.3868,0.3868,0.3533,0.3374,0.3241,0.3104,0.2791,0.2825,0.2853,0.2874,0.2874,0.2874,0.2874,0.2874,0.2874,0.2874,0.2874,0.2874,0.2874,0.2874,0.2897,0.2926,0.2956,0.2987,0.3017,0.3048,0.3052,0.3052,0.3052,0.3052,0.3052,0.3052,0.3052,0.3052,0.3052,0.3052,0.3052,0.3052,0.3052,0.3052,0.3052,0.3052,0.3052,0.3052,0.3052,0.3052,0.3052,0.3052,0.3052,0.3052,0.3052,0.3052,0.0,0.0,0.0,0.0,0.0,0.0,0.1561,0.1614,0.1674,0.0,0.0,0.0,0.0,0.0,0.0,0.0,0.0,0.0,0.0,0.0,0.0,0.0,0.0,0.0,0.0,0.0,0.2333,0.2333,0.2333,0.2333,0.2333,0.2333,0.2333,0.2333,0.2333,0.2333,0.2333,0.2333,0.2333,0.2333,0.2333,0.2349,0.2379,0.2409,0.244,0.247,0.2502,0.2514,0.2514,0.2514,0.2514,0.2521,0.2579,0.2601,0.2609,0.2671,0.2692,0.2861,0.2861,0.2861,0.3029,0.3029,0.2861,0.2866,0.29,0.2759,0.2795,0.2849,0.287,0.2874,0.2874,0.2874,0.2874,0.2874,0.2874,0.2874,0.2874,0.2874,0.2874,0.2874,0.2897,0.2926,0.2956,0.2987,0.3017,0.3048,0.3052,0.3052,0.3052,0.3052,0.3052,0.3052,0.3052,0.3052,0.3052,0.3052,0.3052,0.3052,0.3052,0.3052,0.3052,0.3052,0.3052,0.3052,0.3052,0.3052,0.3052,0.3052,0.3052,0.3052,0.3052,0.3052,0.0,0.0,0.0,0.157,0.0,0.0,0.0,0.1584,0.1727,0.0,0.0,0.0,0.0,0.0,0.0,0.0,0.0,0.0,0.0,0.0,0.0,0.0,0.0,0.0,0.0,0.0,0.2289,0.2289,0.2304,0.2312,0.2312,0.2324,0.2333,0.2333,0.2333,0.2333,0.2333,0.2333,0.2333,0.2333,0.2333,0.2341,0.2357,0.2402,0.2432,0.2448,0.2495,0.2514,0.2514,0.2514,0.2514,0.2519,0.2563,0.2589,0.2607,0.2653,0.2679,0.2692,0.2692,0.2692,0.2692,0.2692,0.2692,0.2698,0.2729,0.277,0.2815,0.2861,0.2874,0.2874,0.2874,0.2874,0.2874,0.2874,0.2874,0.2874,0.2874,0.2874,0.2874,0.2874,0.2909,0.2943,0.2958,0.2999,0.3035,0.305,0.3052,0.3052,0.3052,0.3052,0.3052,0.3052,0.3052,0.3052,0.3052,0.3052,0.3052,0.3052,0.3052,0.3052,0.3052,0.3052,0.3052,0.3052,0.3052,0.3052,0.3052,0.3052,0.3052,0.3052,0.3052,0.3052,0.0,0.0,0.0,0.0,0.0,0.158,0.0,0.0,0.0,0.0,0.0,0.0,0.0,0.0,0.0,0.0,0.0,0.0,0.0,0.0,0.0,0.0,0.0,0.0,0.0,0.0,0.2237,0.2237,0.2259,0.2278,0.229,0.2312,0.2327,0.2333,0.2333,0.2333,0.2333,0.2333,0.2333,0.2333,0.2333,0.2333,0.2335,0.2395,0.2424,0.2427,0.2488,0.2514,0.2514,0.2514,0.2514,0.2518,0.2548,0.2577,0.2605,0.2635,0.2667,0.2692,0.2692,0.2692,0.2692,0.2692,0.2697,0.2706,0.2737,0.2785,0.2834,0.2866,0.2874,0.2874,0.2874,0.2874,0.2874,0.2874,0.2874,0.2874,0.2874,0.2874,0.2875,0.2881,0.2926,0.2961,0.2961,0.3011,0.3052,0.3052,0.3052,0.3052,0.3052,0.3052,0.3052,0.3052,0.3052,0.3052,0.3052,0.3052,0.3052,0.3052,0.3052,0.3052,0.3052,0.3052,0.3052,0.3052,0.3052,0.3052,0.3052,0.3052,0.3052,0.3052,0.3052,0.3052,0.0,0.0,0.0,0.0,0.1655,0.0,0.0,0.0,0.0,0.0,0.0,0.0,0.0,0.0,0.0,0.0,0.0,0.0,0.0,0.0,0.0,0.0,0.0,0.0,0.0,0.0,0.0,0.2206,0.2208,0.2234,0.2288,0.2294,0.2307,0.2333,0.2333,0.2333,0.2333,0.2333,0.2333,0.2333,0.2333,0.2333,0.2335,0.2395,0.2424,0.2427,0.2488,0.2514,0.2514,0.2514,0.2514,0.2518,0.2548,0.2577,0.2605,0.2635,0.2667,0.2692,0.2692,0.2692,0.2692,0.2692,0.271,0.2737,0.2769,0.2801,0.2834,0.2866,0.2874,0.2874,0.2874,0.2874,0.2874,0.2874,0.2874,0.2874,0.2874,0.2874,0.2882,0.2906,0.2938,0.2961,0.2961,0.3011,0.3052,0.3052,0.3052,0.3052,0.3052,0.3052,0.3052,0.3052,0.3052,0.3052,0.3052,0.3052,0.3052,0.3052,0.3052,0.3052,0.3052,0.3052,0.3052,0.3052,0.3052,0.3052,0.3052,0.3052,0.3052,0.3052,0.3052,0.3052,0.0,0.0,0.0,0.0,0.0,0.0,0.0,0.0,0.209,0.0,0.0,0.0,0.0,0.0,0.0,0.0,0.0,0.0,0.0,0.0,0.0,0.0,0.0,0.0,0.0,0.0,0.0,0.0,0.0,0.2166,0.221,0.2262,0.2296,0.2308,0.2324,0.2333,0.2333,0.2333,0.2333,0.2333,0.2333,0.2333,0.2335,0.2395,0.2424,0.2427,0.2488,0.2514,0.2514,0.2514,0.2514,0.2515,0.2529,0.2562,0.2602,0.2616,0.2652,0.2692,0.2692,0.2692,0.2692,0.2692,0.2701,0.272,0.2769,0.2792,0.2812,0.286,0.2874,0.2874,0.2874,0.2874,0.2874,0.2874,0.2874,0.2874,0.2874,0.2874,0.2882,0.2911,0.2941,0.2966,0.2984,0.3024,0.3052,0.3052,0.3052,0.3052,0.3052,0.3052,0.3052,0.3052,0.3052,0.3052,0.3052,0.3052,0.3052,0.3052,0.3052,0.3052,0.3052,0.3052,0.3052,0.3052,0.3052,0.3052,0.3052,0.3052,0.3052,0.3052,0.3052,0.3052,0.3931,0.0,0.0,0.0,0.0,0.0,0.0,0.0,0.0,0.0,0.0,0.0,0.0,0.0,0.0,0.0,0.0,0.0,0.0,0.0,0.0,0.0,0.0,0.0,0.0,0.0,0.0,0.0,0.2297,0.0,0.214,0.2221,0.2274,0.229,0.2318,0.2333,0.2333,0.2333,0.2333,0.2333,0.2333,0.2333,0.2335,0.2395,0.2424,0.2427,0.2488,0.2514,0.2514,0.2514,0.2514,0.2514,0.2514,0.2549,0.2601,0.2601,0.2641,0.2692,0.2692,0.2692,0.2692,0.2692,0.2692,0.2703,0.2765,0.2784,0.2796,0.2857,0.2874,0.2874,0.2874,0.2874,0.2874,0.2874,0.2874,0.2874,0.2874,0.2874,0.2885,0.2921,0.2946,0.2973,0.3013,0.3037,0.3052,0.3052,0.3052,0.3052,0.3052,0.3052,0.3052,0.3052,0.3052,0.3052,0.3052,0.3052,0.3052,0.3052,0.3052,0.3052,0.3052,0.3052,0.3052,0.3052,0.3052,0.3052,0.3052,0.3052,0.3052,0.3052,0.3052,0.3052,0.0,0.0,0.0,0.196,0.0,0.0,0.0,0.0,0.2577,0.0,0.0,0.0,0.0,0.0,0.3044,0.3044,0.3095,0.0,0.0,0.0,0.0,0.0,0.0,0.0,0.0,0.0,0.0,0.3502,0.2573,0.2016,0.2238,0.2169,0.223,0.2289,0.2318,0.2333,0.2333,0.2333,0.2333,0.2333,0.2333,0.2333,0.2335,0.2395,0.2424,0.2427,0.2488,0.2514,0.2514,0.2514,0.2514,0.2514,0.2514,0.2549,0.2601,0.2601,0.2641,0.2692,0.2692,0.2692,0.2692,0.2692,0.2692,0.2703,0.2765,0.2784,0.2796,0.2857,0.2874,0.2874,0.2874,0.2874,0.2874,0.2874,0.2874,0.2874,0.2874,0.2874,0.2891,0.2949,0.2961,0.298,0.304,0.3051,0.3052,0.3052,0.3052,0.3052,0.3052,0.3052,0.3052,0.3052,0.3052,0.3052,0.3052,0.3052,0.3052,0.3052,0.3052,0.3052,0.3052,0.3052,0.3052,0.3052,0.3052,0.3052,0.3052,0.3052,0.3052,0.3052,0.3052,0.3052,0.0,0.0,0.254,0.2026,0.0,0.0,0.0,0.0,0.0,0.0,0.0,0.0,0.0,0.0,0.3294,0.3213,0.3183,0.3147,0.0,0.0,0.0,0.0,0.0,0.0,0.0,0.0,0.0,0.3561,0.2474,0.1952,0.0,0.2127,0.2198,0.2259,0.2289,0.2313,0.2333,0.2333,0.2333,0.2333,0.2333,0.2333,0.2335,0.2395,0.2424,0.2427,0.2488,0.2514,0.2514,0.2514,0.2514,0.2514,0.2514,0.2549,0.2601,0.2601,0.2641,0.2692,0.2692,0.2692,0.2692,0.2692,0.2706,0.2731,0.2772,0.2797,0.2822,0.2863,0.2874,0.2874,0.2874,0.2874,0.2874,0.2874,0.2874,0.2874,0.2874,0.2889,0.2913,0.2954,0.2977,0.3005,0.3046,0.3052,0.3052,0.3052,0.3052,0.3052,0.3052,0.3052,0.3052,0.3052,0.3052,0.3052,0.3052,0.3052,0.3052,0.3052,0.3052,0.3052,0.3052,0.3052,0.3052,0.3052,0.3052,0.3052,0.3052,0.3052,0.3052,0.3052,0.3052,0.3052,0.385,0.3254,0.0,0.0,0.2031,0.0,0.2365,0.0,0.0,0.0,0.0,0.0,0.0,0.0,0.3403,0.3283,0.3226,0.315,0.0,0.2986,0.0,0.0,0.0,0.0,0.0,0.0,0.3482,0.3523,0.2727,0.2122,0.0,0.0,0.2155,0.2228,0.227,0.2304,0.2333,0.2333,0.2333,0.2333,0.2333,0.2333,0.2335,0.2395,0.2424,0.2427,0.2488,0.2514,0.2514,0.2514,0.2514,0.2515,0.2526,0.256,0.2601,0.2601,0.2641,0.2692,0.2692,0.2692,0.2692,0.2692,0.2713,0.2743,0.2774,0.2804,0.2834,0.2866,0.2874,0.2874,0.2874,0.2874,0.2874,0.2874,0.2874,0.2874,0.2874,0.2896,0.2926,0.2956,0.2986,0.3017,0.3047,0.3052,0.3052,0.3052,0.3052,0.3052,0.3052,0.3052,0.3052,0.3052,0.3052,0.3052,0.3052,0.3052,0.3052,0.3052,0.3052,0.3052,0.3052,0.3052,0.3052,0.3052,0.3052,0.3052,0.3052,0.3052,0.3052,0.3052,0.3052,0.3052]}]]